[[{"header":{"parameterUnit":"m.s-1","parameterCategory":1,"la1":30.6,"la2":29.2853,"lo1":-89.7004,"lo2":-87.6739,"dy":0.0162,"dx":0.0183,"nx":112,"ny":82,"refTime":"2026-03-29T12:00:00:Z","depth":0,"parameterNumber":2,"parameterNumberName":"U-component_of_WINDS"},"data":[0.0,0.0,0.0,0.0,0.0,0.0,0.0,0.0,0.0,0.0,0.0,0.0,0.0,0.0,0.0,0.0,0.0,0.0,0.0,0.0,0.0,0.0,0.0,0.0,0.0,0.0,0.0,0.0,0.0,0.0,0.0,0.0,0.0,0.0,0.0,0.0,0.0,0.0,0.0,0.0,0.0,0.0,0.0,0.0,0.0,0.0,0.0,0.0,0.0,0.0,0.0,0.0,0.0,0.0,0.0,0.0,0.0,0.0,0.0,0.0,0.0,0.0,0.0,0.0,0.0,0.0,0.0,0.0,0.0,0.0,0.0,0.0,0.0,0.0,0.0,0.0,0.0,0.0,0.0,0.0,0.0,0.0,0.0,0.0,0.0,0.0,0.0,0.0,0.0,0.0,-5.4837,-6.008,-6.5696,-6.847,-6.6948,-6.6237,-6.3937,-5.9471,0.0,0.0,0.0,0.0,0.0,0.0,0.0,0.0,0.0,0.0,0.0,0.0,0.0,0.0,0.0,0.0,0.0,0.0,0.0,0.0,0.0,0.0,0.0,0.0,0.0,0.0,0.0,0.0,0.0,0.0,0.0,0.0,0.0,0.0,0.0,0.0,0.0,0.0,0.0,0.0,0.0,0.0,0.0,0.0,0.0,0.0,0.0,0.0,0.0,0.0,0.0,0.0,0.0,0.0,0.0,0.0,0.0,0.0,0.0,0.0,0.0,0.0,0.0,0.0,0.0,0.0,0.0,0.0,0.0,0.0,0.0,0.0,0.0,0.0,0.0,0.0,0.0,0.0,0.0,0.0,0.0,0.0,0.0,0.0,0.0,0.0,0.0,0.0,0.0,0.0,0.0,0.0,0.0,0.0,0.0,0.0,0.0,0.0,0.0,0.0,0.0,0.0,0.0,0.0,-5.7205,-6.2448,-6.6643,-6.847,-6.6948,-6.6711,-6.4715,-6.0216,0.0,0.0,0.0,0.0,0.0,0.0,0.0,0.0,0.0,0.0,0.0,0.0,0.0,0.0,0.0,0.0,0.0,0.0,0.0,0.0,0.0,0.0,0.0,0.0,0.0,0.0,0.0,0.0,0.0,0.0,0.0,0.0,0.0,0.0,0.0,0.0,0.0,0.0,0.0,0.0,0.0,0.0,0.0,0.0,0.0,0.0,0.0,0.0,0.0,0.0,0.0,0.0,0.0,0.0,0.0,0.0,0.0,0.0,0.0,0.0,0.0,0.0,0.0,0.0,0.0,0.0,0.0,0.0,0.0,0.0,0.0,0.0,0.0,0.0,0.0,0.0,0.0,0.0,0.0,0.0,0.0,0.0,0.0,0.0,0.0,0.0,0.0,0.0,0.0,0.0,0.0,0.0,0.0,0.0,0.0,0.0,0.0,0.0,0.0,0.0,0.0,0.0,0.0,-5.7073,-6.0909,-6.2932,-6.6464,-6.7877,-6.5993,-6.5489,-6.3377,-5.8867,-5.419,0.0,0.0,0.0,0.0,0.0,0.0,0.0,0.0,0.0,0.0,0.0,0.0,0.0,0.0,0.0,0.0,0.0,0.0,0.0,0.0,0.0,0.0,0.0,0.0,0.0,0.0,0.0,0.0,0.0,0.0,0.0,0.0,0.0,0.0,0.0,0.0,0.0,0.0,0.0,0.0,0.0,0.0,0.0,0.0,0.0,0.0,0.0,0.0,0.0,0.0,0.0,0.0,0.0,0.0,0.0,0.0,0.0,0.0,0.0,0.0,0.0,0.0,0.0,0.0,0.0,0.0,0.0,0.0,0.0,0.0,0.0,0.0,0.0,0.0,0.0,0.0,0.0,0.0,0.0,0.0,0.0,0.0,0.0,0.0,0.0,0.0,0.0,0.0,0.0,0.0,0.0,0.0,0.0,0.0,0.0,0.0,0.0,0.0,0.0,0.0,0.0,0.0,-5.9801,-6.3069,-6.3003,-6.5836,-6.6832,-6.4684,-6.3762,-6.1309,-5.6758,-5.2769,0.0,0.0,0.0,0.0,0.0,0.0,0.0,0.0,0.0,0.0,0.0,0.0,0.0,0.0,0.0,0.0,0.0,0.0,0.0,0.0,0.0,0.0,0.0,0.0,0.0,0.0,0.0,0.0,0.0,0.0,0.0,0.0,0.0,0.0,0.0,0.0,0.0,0.0,0.0,0.0,0.0,0.0,0.0,0.0,0.0,0.0,0.0,0.0,0.0,0.0,0.0,0.0,0.0,0.0,0.0,0.0,0.0,0.0,0.0,0.0,0.0,0.0,0.0,0.0,0.0,0.0,0.0,0.0,0.0,0.0,0.0,0.0,0.0,0.0,0.0,0.0,0.0,0.0,0.0,0.0,0.0,0.0,0.0,0.0,0.0,0.0,0.0,0.0,0.0,0.0,0.0,0.0,0.0,0.0,0.0,0.0,0.0,0.0,0.0,0.0,0.0,0.0,-5.8929,-6.1556,-6.3422,-6.5091,-6.5203,-6.314,-6.1845,-5.9128,-5.4437,-5.1047,0.0,0.0,0.0,0.0,0.0,0.0,0.0,0.0,0.0,0.0,0.0,0.0,0.0,0.0,0.0,0.0,0.0,0.0,0.0,0.0,0.0,0.0,0.0,0.0,0.0,0.0,0.0,0.0,0.0,0.0,0.0,0.0,0.0,0.0,0.0,0.0,0.0,0.0,0.0,0.0,0.0,0.0,0.0,0.0,0.0,0.0,0.0,0.0,0.0,0.0,0.0,0.0,0.0,0.0,0.0,0.0,0.0,0.0,0.0,0.0,0.0,0.0,0.0,0.0,0.0,0.0,0.0,0.0,0.0,0.0,0.0,0.0,0.0,0.0,0.0,0.0,0.0,0.0,0.0,0.0,0.0,0.0,0.0,0.0,0.0,0.0,0.0,0.0,0.0,0.0,0.0,0.0,0.0,0.0,0.0,0.0,0.0,0.0,0.0,0.0,0.0,0.0,-5.9447,-6.228,-6.2634,-6.4304,-6.4449,-6.1877,-6.0412,-5.785,-5.3538,0.0,0.0,0.0,0.0,0.0,0.0,0.0,0.0,0.0,0.0,0.0,0.0,0.0,0.0,0.0,0.0,0.0,0.0,0.0,0.0,0.0,0.0,0.0,0.0,0.0,0.0,0.0,0.0,0.0,0.0,0.0,0.0,0.0,0.0,0.0,0.0,0.0,0.0,0.0,0.0,0.0,0.0,0.0,0.0,0.0,0.0,0.0,0.0,0.0,0.0,0.0,0.0,0.0,0.0,0.0,0.0,0.0,0.0,0.0,0.0,0.0,0.0,0.0,0.0,0.0,0.0,0.0,0.0,0.0,0.0,0.0,0.0,0.0,0.0,0.0,0.0,0.0,0.0,0.0,0.0,0.0,0.0,0.0,0.0,0.0,0.0,0.0,0.0,0.0,0.0,0.0,0.0,0.0,0.0,0.0,0.0,0.0,0.0,0.0,0.0,0.0,0.0,-5.4327,-5.8829,-6.1725,-6.1694,-6.3173,-6.311,-6.0529,-5.8861,-5.6275,-5.2372,0.0,0.0,0.0,0.0,0.0,0.0,0.0,0.0,0.0,0.0,0.0,0.0,0.0,0.0,0.0,0.0,0.0,0.0,0.0,0.0,0.0,0.0,0.0,0.0,0.0,0.0,0.0,0.0,0.0,0.0,0.0,0.0,0.0,0.0,0.0,0.0,0.0,0.0,0.0,0.0,0.0,0.0,0.0,0.0,0.0,0.0,0.0,0.0,0.0,0.0,0.0,0.0,0.0,0.0,0.0,0.0,0.0,0.0,0.0,0.0,0.0,0.0,0.0,0.0,0.0,0.0,0.0,0.0,0.0,0.0,0.0,0.0,0.0,0.0,0.0,0.0,0.0,0.0,0.0,0.0,0.0,0.0,0.0,0.0,0.0,0.0,0.0,0.0,0.0,0.0,0.0,0.0,0.0,0.0,0.0,0.0,0.0,0.0,0.0,0.0,0.0,0.0,-5.3459,-5.6839,-5.947,-6.0859,-6.1564,-6.117,-5.9084,-5.7082,-5.4344,0.0,0.0,0.0,0.0,0.0,0.0,0.0,0.0,0.0,0.0,0.0,0.0,0.0,0.0,0.0,0.0,0.0,0.0,0.0,0.0,0.0,0.0,0.0,0.0,0.0,0.0,0.0,0.0,0.0,0.0,0.0,0.0,0.0,0.0,0.0,0.0,0.0,0.0,0.0,0.0,0.0,0.0,0.0,0.0,0.0,0.0,0.0,0.0,0.0,0.0,0.0,0.0,0.0,0.0,0.0,0.0,0.0,0.0,0.0,0.0,0.0,0.0,0.0,0.0,0.0,0.0,0.0,0.0,0.0,0.0,0.0,0.0,0.0,0.0,0.0,0.0,0.0,0.0,0.0,0.0,0.0,0.0,0.0,0.0,0.0,0.0,0.0,0.0,0.0,0.0,0.0,0.0,0.0,0.0,0.0,0.0,0.0,0.0,0.0,0.0,0.0,0.0,0.0,-5.3131,-5.7213,-5.9834,-6.0229,-6.1322,-6.117,-5.9084,-5.7931,-5.5694,-5.1894,0.0,0.0,0.0,0.0,0.0,0.0,0.0,0.0,0.0,0.0,0.0,0.0,0.0,0.0,0.0,0.0,0.0,0.0,0.0,0.0,0.0,0.0,0.0,0.0,0.0,0.0,0.0,0.0,0.0,0.0,0.0,0.0,0.0,0.0,0.0,0.0,0.0,0.0,0.0,0.0,0.0,0.0,0.0,0.0,0.0,0.0,0.0,0.0,0.0,0.0,0.0,0.0,0.0,0.0,0.0,0.0,0.0,0.0,0.0,0.0,0.0,0.0,0.0,0.0,0.0,0.0,0.0,0.0,0.0,0.0,0.0,0.0,0.0,0.0,0.0,0.0,0.0,0.0,0.0,0.0,0.0,0.0,0.0,0.0,0.0,0.0,0.0,0.0,0.0,0.0,0.0,0.0,0.0,0.0,0.0,0.0,0.0,0.0,0.0,0.0,0.0,0.0,-5.2815,-5.7058,-5.9757,-6.0029,-6.1267,-6.1358,-5.9523,-5.901,-5.7009,-5.2863,0.0,0.0,0.0,0.0,0.0,0.0,0.0,0.0,0.0,0.0,0.0,0.0,0.0,0.0,0.0,0.0,0.0,0.0,0.0,0.0,0.0,0.0,0.0,0.0,0.0,0.0,0.0,0.0,0.0,0.0,0.0,0.0,0.0,0.0,0.0,0.0,0.0,0.0,0.0,0.0,0.0,0.0,0.0,0.0,0.0,0.0,0.0,0.0,0.0,0.0,0.0,0.0,0.0,0.0,0.0,0.0,0.0,0.0,0.0,0.0,0.0,0.0,0.0,0.0,0.0,0.0,0.0,0.0,0.0,0.0,0.0,0.0,0.0,0.0,0.0,0.0,0.0,0.0,0.0,0.0,0.0,0.0,0.0,0.0,0.0,0.0,0.0,0.0,0.0,0.0,0.0,0.0,0.0,0.0,0.0,0.0,0.0,0.0,0.0,0.0,0.0,0.0,-5.2528,-5.6593,-5.923,-5.9942,-6.1227,-6.1496,-6.0151,-5.9972,-5.8028,-5.3514,0.0,0.0,0.0,0.0,0.0,0.0,0.0,0.0,0.0,0.0,0.0,0.0,0.0,0.0,0.0,0.0,0.0,0.0,0.0,0.0,0.0,0.0,0.0,0.0,0.0,0.0,0.0,0.0,0.0,0.0,0.0,0.0,0.0,0.0,0.0,0.0,0.0,0.0,0.0,0.0,0.0,0.0,0.0,0.0,0.0,0.0,0.0,0.0,0.0,0.0,0.0,0.0,0.0,0.0,0.0,0.0,0.0,0.0,0.0,0.0,-4.1625,-4.0972,0.0,0.0,0.0,0.0,0.0,0.0,0.0,0.0,0.0,0.0,0.0,0.0,0.0,0.0,0.0,0.0,0.0,0.0,0.0,0.0,0.0,0.0,0.0,0.0,0.0,0.0,0.0,0.0,0.0,0.0,0.0,0.0,0.0,0.0,0.0,0.0,0.0,0.0,0.0,0.0,-5.1915,-5.5966,-5.8626,-5.9306,-6.0548,-6.0785,-5.9484,-5.8892,-5.7089,-5.3592,-5.0449,0.0,0.0,0.0,0.0,0.0,0.0,0.0,0.0,0.0,0.0,0.0,0.0,0.0,0.0,0.0,0.0,0.0,0.0,0.0,0.0,0.0,0.0,0.0,0.0,0.0,0.0,0.0,0.0,0.0,0.0,0.0,0.0,0.0,0.0,0.0,0.0,0.0,0.0,0.0,0.0,0.0,0.0,0.0,0.0,0.0,0.0,0.0,0.0,0.0,0.0,0.0,0.0,0.0,0.0,0.0,0.0,0.0,0.0,0.0,-4.2332,-4.1835,0.0,0.0,0.0,0.0,0.0,0.0,0.0,0.0,0.0,0.0,0.0,0.0,0.0,0.0,0.0,0.0,0.0,0.0,0.0,0.0,0.0,0.0,0.0,0.0,0.0,0.0,0.0,0.0,0.0,0.0,0.0,0.0,0.0,0.0,0.0,0.0,0.0,0.0,0.0,0.0,-5.0537,-5.4486,-5.7225,-5.8118,-5.9416,-5.9646,-5.832,-5.7916,-5.6358,-5.3158,-5.0544,0.0,0.0,0.0,0.0,0.0,0.0,0.0,0.0,0.0,0.0,0.0,0.0,0.0,0.0,0.0,0.0,0.0,0.0,0.0,0.0,0.0,0.0,0.0,0.0,0.0,0.0,0.0,0.0,0.0,0.0,0.0,0.0,0.0,0.0,0.0,0.0,0.0,0.0,0.0,0.0,0.0,0.0,0.0,0.0,0.0,0.0,0.0,0.0,0.0,0.0,0.0,0.0,0.0,-4.775,-4.7563,-4.6509,-4.6793,-4.6476,-4.5707,-4.4468,-4.3861,-4.3835,-4.3284,0.0,0.0,0.0,0.0,0.0,0.0,0.0,0.0,0.0,0.0,0.0,0.0,0.0,0.0,0.0,0.0,0.0,0.0,0.0,0.0,0.0,0.0,-4.4858,-4.6094,-4.6747,-4.6415,-4.363,0.0,0.0,0.0,0.0,0.0,0.0,0.0,0.0,0.0,0.0,0.0,-4.9102,-5.2911,-5.5656,-5.6777,-5.8009,-5.8295,-5.7001,-5.6889,-5.5608,-5.2644,-5.0634,-4.8191,0.0,0.0,0.0,0.0,0.0,0.0,0.0,0.0,0.0,0.0,0.0,0.0,0.0,0.0,0.0,0.0,0.0,0.0,0.0,0.0,0.0,0.0,0.0,0.0,0.0,0.0,0.0,0.0,0.0,0.0,0.0,0.0,-4.5441,-4.6263,0.0,0.0,0.0,0.0,0.0,0.0,0.0,0.0,0.0,0.0,0.0,0.0,0.0,-4.5898,-4.7466,-4.8721,-4.9637,-5.023,-5.015,-5.0397,-5.08,-4.9668,-4.9615,-5.0318,-4.9153,0.0,-4.5186,-4.4604,0.0,0.0,0.0,0.0,0.0,0.0,0.0,0.0,0.0,0.0,0.0,0.0,0.0,0.0,0.0,0.0,0.0,0.0,0.0,0.0,0.0,0.0,-4.5615,-4.6727,-4.7384,-4.7673,-4.7227,-4.671,-4.5874,-4.4331,-4.3379,-4.2112,0.0,0.0,0.0,0.0,0.0,0.0,-4.8636,-5.2318,-5.4865,-5.5557,-5.6809,-5.703,-5.5751,-5.564,-5.4651,-5.2408,-5.1038,-4.9202,-4.6595,-4.4618,0.0,0.0,0.0,0.0,0.0,0.0,0.0,0.0,0.0,0.0,0.0,0.0,0.0,0.0,0.0,0.0,0.0,0.0,0.0,0.0,0.0,0.0,0.0,0.0,0.0,0.0,0.0,0.0,0.0,-4.4293,-4.5579,-4.5989,-4.5353,-4.4225,0.0,0.0,0.0,0.0,0.0,0.0,0.0,0.0,0.0,-4.4673,-4.6407,-4.7962,-4.9339,-5.1099,-5.2129,-5.2505,-5.3004,-5.3273,-5.3312,-5.2998,-5.2955,-5.3105,-5.2929,-5.2,-5.0419,-4.8284,-4.6577,-4.5121,0.0,0.0,0.0,0.0,-4.271,-4.374,-4.4292,-4.4141,-4.3539,-4.2635,0.0,0.0,0.0,0.0,0.0,0.0,0.0,-4.1681,-4.384,-4.5849,-4.7531,-4.8335,-4.9163,-4.9715,-4.9389,-4.9101,-4.8172,-4.5727,-4.4186,-4.2684,-4.0563,-3.8471,0.0,0.0,0.0,-4.3885,-4.7089,-5.0327,-5.2589,-5.3361,-5.457,-5.4874,-5.386,-5.4101,-5.3455,-5.1529,-5.1175,-5.013,-4.7949,-4.6244,-4.4874,0.0,0.0,0.0,0.0,0.0,0.0,0.0,0.0,0.0,0.0,0.0,0.0,0.0,0.0,0.0,0.0,0.0,0.0,0.0,0.0,0.0,0.0,0.0,0.0,0.0,0.0,0.0,0.0,-4.4888,-4.5901,-4.6274,-4.5642,-4.4594,0.0,0.0,0.0,0.0,0.0,0.0,-4.3413,-4.4342,-4.5422,-4.6702,-4.8485,-5.0017,-5.1247,-5.303,-5.3984,-5.4135,-5.4988,-5.5239,-5.4988,-5.5265,-5.5239,-5.4988,-5.5265,-5.5164,-5.4561,-5.18,-4.9665,-4.8033,-4.6351,-4.5598,-4.5422,-4.4995,-4.5573,-4.6627,-4.7179,-4.7104,-4.6577,-4.5598,-4.4141,-4.2564,-4.119,0.0,0.0,0.0,0.0,-4.4217,-4.5899,-4.7857,-4.9565,-5.0117,-5.0996,-5.1498,-5.0795,-5.0645,-4.9755,-4.6803,-4.5117,-4.3508,-4.1307,-3.9418,0.0,-4.0056,-4.1694,-4.3716,-4.6308,-4.8948,-5.0895,-5.1562,-5.2647,-5.2984,-5.2227,-5.2761,-5.2476,-5.0837,-5.132,-5.0787,-4.8872,-4.7585,-4.637,-4.5211,0.0,0.0,0.0,0.0,0.0,0.0,0.0,0.0,0.0,0.0,0.0,0.0,0.0,0.0,0.0,0.0,0.0,0.0,0.0,0.0,0.0,0.0,0.0,0.0,0.0,0.0,0.0,0.0,0.0,-4.7774,-4.7379,0.0,0.0,0.0,0.0,-4.4392,-4.5472,-4.6326,-4.6853,-4.7405,-4.846,-5.0117,-5.082,-5.1925,-5.3532,-5.4185,-5.4787,-5.5315,-5.5365,-5.5641,-5.6118,-5.5616,-5.5666,-5.6093,-5.5591,-5.5365,-5.5239,-5.4009,-5.2528,-5.0896,-4.9213,-4.8234,-4.7732,-4.7707,-4.841,-4.9464,-5.0017,-5.0193,-5.0067,-4.949,-4.7129,-4.4292,-4.3162,-4.2489,0.0,0.0,-4.5246,-4.6527,-4.8184,-4.9866,-5.1297,-5.185,-5.2427,-5.2553,-5.1473,-5.1247,-5.0419,-4.7606,-4.6793,-4.5657,-4.287,0.0,-4.1285,-4.1846,-4.346,-4.5175,-4.6916,-4.9179,-5.0614,-5.0703,-5.1498,-5.1819,-5.1224,-5.2007,-5.1931,-5.0511,-5.1423,-5.1153,-4.9072,-4.8915,-4.8054,-4.6275,-4.4313,0.0,0.0,0.0,0.0,0.0,0.0,0.0,0.0,0.0,0.0,0.0,0.0,0.0,0.0,0.0,0.0,0.0,0.0,0.0,0.0,0.0,0.0,0.0,0.0,0.0,0.0,0.0,0.0,-4.8513,-4.895,0.0,-4.759,-4.6839,-4.6677,-4.7255,-4.8661,-4.959,-4.9791,-5.0971,-5.1925,-5.2503,-5.3432,-5.421,-5.4787,-5.534,-5.5717,-5.5917,-5.5917,-5.6018,-5.6194,-5.6018,-5.6018,-5.6194,-5.6018,-5.5917,-5.5892,-5.5491,-5.4135,-5.2251,-5.1297,-5.0569,-5.0042,-4.9665,-5.0017,-5.0695,-5.0896,-5.0971,-5.082,-4.9891,-4.8309,-4.6602,-4.5874,-4.5271,-4.5095,-4.6376,-4.7305,-4.8184,-4.949,-5.082,-5.1782,-5.1754,-5.1886,-5.1668,-5.0347,-4.9709,-4.8868,-4.7085,-4.7168,-4.6924,-4.5238,-4.4118,-4.3619,-4.42,-4.511,-4.6197,-4.746,-4.9014,-5.004,-5.0232,-5.0934,-5.1229,-5.0766,-5.1111,-5.0954,-5.0059,-5.0383,-5.0288,-4.9568,-4.8971,-4.8113,-4.6887,-4.4629,-4.245,0.0,0.0,0.0,0.0,0.0,0.0,0.0,0.0,0.0,0.0,0.0,0.0,0.0,0.0,0.0,0.0,0.0,0.0,0.0,0.0,0.0,0.0,0.0,0.0,0.0,-4.7355,-4.9464,-4.9866,-5.0695,-5.0896,-4.9992,-4.9389,-4.9289,-4.9866,-5.1096,-5.1825,-5.1825,-5.2854,-5.3507,-5.3683,-5.4436,-5.4988,-5.539,-5.5942,-5.6219,-5.6219,-5.6219,-5.6146,-5.5999,-5.5999,-5.5926,-5.5779,-5.5779,-5.5779,-5.5754,-5.5628,-5.4533,-5.3083,-5.3011,-5.2477,-5.18,-5.1398,-5.1498,-5.1825,-5.1825,-5.1825,-5.1674,-5.0745,-4.9941,-4.9213,-4.8686,-4.8284,-4.8134,-4.8837,-4.9464,-5.0067,-5.0795,-5.1674,-5.2259,-5.165,-5.1259,-5.0567,-4.905,-4.8044,-4.7213,-4.6378,-4.6972,-4.7355,-4.6451,-4.5849,-4.5598,-4.5974,-4.6502,-4.7179,-4.8083,-4.9012,-4.9654,-4.9912,-5.0369,-5.0562,-5.0168,-5.0448,-5.0306,-4.9563,-4.9666,-4.9691,-4.9325,-4.8578,-4.7678,-4.6654,-4.3858,-4.1527,-3.9777,0.0,0.0,0.0,0.0,0.0,0.0,0.0,0.0,0.0,0.0,0.0,0.0,0.0,0.0,0.0,0.0,0.0,0.0,0.0,0.0,0.0,0.0,0.0,-4.605,-4.8736,-5.0896,-5.2026,-5.2653,-5.2779,-5.2226,-5.1699,-5.1599,-5.2151,-5.2678,-5.298,-5.2955,-5.2955,-5.3181,-5.3658,-5.3683,-5.4235,-5.534,-5.5917,-5.6219,-5.6219,-5.6219,-5.5999,-5.5632,-5.5558,-5.5337,-5.4967,-5.4892,-5.4868,-5.4819,-5.4255,-5.3788,-5.3322,-5.4181,-5.3884,-5.2861,-5.2861,-5.2861,-5.2861,-5.2861,-5.2861,-5.2785,-5.2302,-5.2126,-5.2,-5.1448,-5.1247,-5.1222,-5.1222,-5.1599,-5.2,-5.2051,-5.2477,-5.2591,-5.1793,-5.0729,-4.9435,-4.7661,-4.648,-4.5691,-4.5441,-4.6301,-4.6892,-4.6451,-4.6828,-4.7143,-4.7143,-4.7631,0.0,-4.8736,-4.9264,-4.959,-4.959,-4.9847,-4.9901,-4.9343,-5.0066,-5.0013,-4.8938,-4.9409,-4.9311,-4.8404,-4.7846,-4.6889,-4.5422,-4.2208,-3.9825,-3.8385,0.0,0.0,0.0,0.0,0.0,0.0,0.0,0.0,0.0,0.0,0.0,0.0,0.0,0.0,0.0,0.0,0.0,0.0,0.0,0.0,0.0,-4.394,-4.5874,-4.728,-5.0218,-5.2477,-5.3181,-5.411,-5.4486,-5.3934,-5.3758,-5.3733,-5.3884,-5.4411,-5.4361,-5.3532,-5.3482,-5.3381,-5.3155,-5.3507,-5.4059,-5.4787,-5.5742,-5.6219,-5.6219,-5.6219,-5.5999,-5.5558,-5.467,-5.3999,-5.3648,-5.2693,-5.2102,-5.1803,-5.1662,-5.1076,-5.0498,-5.2423,-5.2763,-5.2099,-5.2099,-5.2099,-5.2099,-5.2099,-5.2308,-5.2491,-5.2341,-5.2223,-5.2,-5.1448,-5.0695,-5.0067,-5.0067,-4.9866,-4.9866,-5.067,-5.1297,-5.1565,-5.0808,-5.0191,-4.9204,-4.7285,-4.5861,-4.4971,-4.4951,-4.5637,-4.6423,-4.7294,-4.8284,-4.8912,-4.8912,-4.9038,-4.9188,-4.9339,-4.9515,-4.959,-4.959,-4.9654,-4.9492,-4.8938,-4.8787,-4.8484,-4.8182,-4.7576,-4.7349,-4.7453,-4.6547,-4.5338,-4.3689,-4.1982,-4.03,0.0,0.0,0.0,0.0,0.0,0.0,0.0,0.0,0.0,0.0,0.0,0.0,0.0,0.0,0.0,0.0,0.0,0.0,0.0,0.0,0.0,0.0,-4.6225,-4.8234,-4.9791,-5.2101,-5.3808,-5.4336,-5.5189,-5.5616,-5.529,-5.5039,-5.5013,-5.5239,-5.534,-5.4988,-5.411,-5.3632,-5.3231,-5.2929,-5.3231,-5.3758,-5.4561,-5.5666,-5.6146,-5.5926,-5.5926,-5.546,-5.4546,-5.3675,-5.2845,-5.2107,-5.1162,-5.0557,-5.0079,-4.9852,-4.9306,-4.8799,0.0,0.0,0.0,0.0,-5.034,-5.0411,-5.0718,-5.1211,-5.1702,-5.2074,-5.2291,-5.2302,-5.1523,-5.0645,-4.9841,-4.9389,-4.8837,-4.8611,-4.949,-5.0318,-5.0738,-4.9892,-4.956,-4.8894,-4.7037,-4.5643,-4.4812,-4.4803,-4.5171,0.0,-4.6581,-4.8135,-4.9162,-4.9162,-4.9162,-4.9162,-4.9162,-4.9267,-4.9396,-4.9396,-4.9525,-4.9264,-4.8485,-4.8535,0.0,0.0,0.0,-4.6828,-4.6451,-4.5372,0.0,0.0,0.0,0.0,0.0,0.0,0.0,0.0,-3.9373,-4.0031,0.0,0.0,0.0,0.0,0.0,0.0,0.0,0.0,0.0,0.0,0.0,0.0,0.0,0.0,0.0,0.0,-4.8385,-5.0544,-5.2703,-5.4009,-5.4938,-5.5415,-5.5917,-5.6219,-5.6219,-5.5767,-5.5691,-5.6168,-5.5767,-5.5214,-5.4587,-5.3582,0.0,0.0,0.0,-5.3507,-5.4561,-5.5666,-5.5999,-5.5632,-5.546,-5.462,-5.3096,-5.2465,-5.1547,-5.041,-4.992,-4.9396,-4.8885,-4.8418,-4.7907,-4.7545,-4.8487,-4.858,-4.819,-4.819,-4.819,-4.8263,-4.9008,0.0,0.0,-5.1327,-5.2213,-5.266,-5.1532,-5.082,-5.0092,-4.8987,-4.8209,-4.7883,-4.851,-4.949,-5.0127,-4.9327,-4.9138,-4.8754,-4.6956,-4.5779,-4.5059,-4.4898,-4.489,-4.4904,-4.5042,-4.68,-4.8248,-4.8248,-4.8248,-4.8248,-4.8313,-4.8682,-4.8918,-4.9007,-4.9396,0.0,-4.8008,-4.8837,-4.8736,-4.7093,-4.7405,-4.6954,-4.5447,-4.4418,-4.389,-4.389,-4.2992,-4.2489,-4.2489,-4.2007,-4.2308,-4.3237,-4.2057,-4.1856,0.0,0.0,0.0,0.0,0.0,0.0,0.0,0.0,0.0,0.0,0.0,0.0,0.0,0.0,0.0,-4.8008,-4.9791,-5.1548,-5.3306,-5.4913,-5.5942,-5.6043,-5.6143,-5.6219,-5.6219,-5.6118,-5.6093,-5.6194,-5.6118,-5.5616,-5.4612,-5.3909,-5.3356,-5.2929,-5.3331,-5.3884,-5.4561,-5.5666,-5.5999,-5.5632,-5.4522,0.0,-5.2617,-5.0543,-4.9214,-4.8626,-4.7512,-4.6568,-4.5812,-4.5706,-4.516,-4.463,-4.6662,-4.7406,-4.7338,-4.7338,-4.7338,-4.7411,-4.785,-4.8792,-4.9819,-5.0293,-5.1376,-5.2291,-5.117,-5.0347,0.0,-4.8385,-4.738,-4.6853,-4.7832,-4.8912,-4.9651,-4.9227,-4.9561,-4.9481,-4.7507,-4.6576,-4.5845,-4.4982,-4.4748,-4.4635,-4.429,-4.5133,-4.5864,-4.5864,-4.5864,-4.609,-4.6717,-4.7359,-4.7953,-4.8567,-4.9177,-4.9138,-4.8008,-4.8109,-4.7732,-4.6552,-4.615,-4.5598,-4.4819,-4.4568,-4.4468,-4.4468,-4.4242,-4.4141,-4.4141,-4.4518,-4.4794,-4.497,-4.3388,-4.3187,0.0,0.0,0.0,0.0,0.0,0.0,0.0,0.0,0.0,0.0,0.0,-4.5296,-4.6125,0.0,-4.841,-4.9791,-5.1197,-5.2578,-5.3934,-5.534,-5.6219,-5.6219,-5.6219,-5.6219,-5.6219,-5.6219,-5.6219,-5.6219,-5.6219,-5.5842,-5.5013,-5.4436,-5.4009,-5.3758,-5.4009,-5.4411,-5.4963,-5.5792,-5.5926,-5.5263,-5.4472,-5.3322,-5.1954,-5.002,-4.8684,-4.7832,-4.673,-4.583,-4.496,-4.4484,-4.4029,-4.3691,-4.4859,-4.5362,-4.5362,-4.5362,-4.5362,-4.5437,-4.6033,-4.6898,-4.785,-4.891,-5.0269,-5.1341,-5.0629,-5.0182,-4.9766,-4.8661,-4.7757,-4.7305,-4.8134,-4.9163,-4.9877,-4.9471,-5.0049,-5.0273,-4.8518,-4.7524,-4.6655,-4.5738,-4.4677,-4.3737,-4.3301,-4.313,-4.3401,-4.4504,-4.4709,-4.4937,-4.5504,-4.6358,-4.7093,-4.7648,-4.8551,-4.8749,-4.7841,-4.7333,-4.6786,-4.624,-4.5445,-4.4873,-4.4575,-4.4327,-4.4178,-4.4178,-4.4178,-4.4178,-4.4178,-4.4451,-4.4933,-4.5635,-4.4609,-4.4743,0.0,0.0,0.0,0.0,0.0,0.0,0.0,-4.3463,-4.4091,-4.5196,-4.6602,-4.7782,-4.8309,-4.9138,-5.0117,-5.1247,-5.2277,-5.3306,-5.4411,-5.5516,-5.6168,-5.6068,-5.6143,-5.6219,-5.6219,-5.6219,-5.6219,-5.6219,-5.6219,-5.6018,-5.5566,-5.5139,-5.4888,-5.4888,-5.4888,-5.5089,-5.5541,-5.5993,-5.5852,-5.5115,-5.4546,-5.3346,-5.1593,-5.0042,-4.8785,-4.7672,-4.6542,-4.5623,-4.4795,-4.3967,-4.3615,-4.3615,-4.3615,-4.3615,-4.3615,-4.3615,-4.3615,-4.3691,-4.4504,-4.5384,-4.6307,-4.7799,-4.939,-5.0618,-5.0343,-5.0422,-5.0368,-4.9364,-4.8686,-4.836,-4.8937,-4.9841,-5.0444,-4.9826,-5.0478,-5.0705,-4.9035,-4.7911,-4.696,-4.6022,-4.4321,-4.2818,-4.2419,-4.1502,-4.1502,-4.3284,-4.3562,-4.3722,-4.4159,-4.5165,-4.5887,-4.6315,-4.7274,-4.7676,-4.7118,-4.61,-4.5469,-4.5507,-4.4548,-4.4038,-4.4038,-4.3626,-4.3408,-4.3408,-4.3408,-4.3408,-4.3408,-4.3527,-4.4388,-4.581,-4.5626,-4.6118,-3.8366,-3.9823,-4.2112,-4.3162,-4.4644,-4.5974,0.0,-4.6627,-4.6979,-4.8083,-4.8837,-4.949,-5.0042,-5.0243,-5.0695,-5.1825,-5.2528,-5.3306,-5.4411,-5.5516,-5.6018,-5.5541,-5.5917,-5.6219,-5.6219,-5.6219,-5.6219,-5.6219,-5.6219,-5.6194,-5.6118,-5.6068,-5.6018,-5.6018,-5.6018,-5.6068,-5.6118,-5.6168,-5.5999,-5.5558,-5.4373,-5.3299,-5.2389,-4.9998,-4.8605,-4.8028,-4.6032,-4.4857,-4.4339,-4.3822,-4.3615,-4.3615,-4.3615,-4.3615,-4.3615,-4.3615,-4.3615,-4.3691,-4.4504,-4.5555,-4.6743,-4.8013,-4.9652,-5.109,-5.0945,-5.1017,-5.1046,-5.0419,-4.9841,-4.954,-5.0092,-5.072,-5.098,-5.0074,-5.0331,-5.0122,-4.769,-4.6784,-4.6022,-4.4343,-4.3236,-4.2349,-4.1756,-4.1239,-4.1004,-4.1218,-4.1289,-4.1502,-4.2208,-4.2979,-4.3722,-4.4389,-4.5119,-4.5386,-4.481,-4.3817,-4.3239,-4.3239,-4.2749,-4.2448,-4.2448,-4.2402,-4.2355,-4.2355,-4.2355,-4.2355,-4.2355,-4.3028,-4.4198,-4.5924,-4.6163,-4.6655,-4.0097,-4.1731,-4.3865,-4.497,-4.6753,-4.836,-4.8912,-4.9038,-4.9364,-5.0494,-5.1147,-5.1599,-5.1825,-5.1875,-5.2026,-5.2503,-5.303,-5.3658,-5.4461,-5.5516,-5.5892,-5.5013,-5.4813,-5.4888,-5.5214,-5.5265,-5.539,-5.5717,-5.6018,-5.6219,-5.6219,-5.6219,-5.6219,-5.6219,-5.6219,-5.6072,-5.5852,-5.5852,-5.5533,-5.4868,-5.4098,-5.3096,-5.1801,-5.002,-4.8316,-4.6711,-4.5508,-4.4733,-4.4256,-4.3801,-4.3615,-4.3615,-4.3615,-4.3615,-4.3615,-4.3615,-4.3615,-4.3691,-4.4504,-4.5384,-4.6404,-4.7895,-4.9485,-5.0928,-5.1362,-5.1855,-5.2201,-5.195,-5.1699,-5.1574,-5.1825,-5.2051,-5.1933,-5.063,-5.0044,-4.9155,-4.7064,-4.5251,-4.3847,-4.3101,-4.1994,-4.1053,-4.0792,-4.058,-4.0406,-4.0137,-4.0551,-4.1096,-4.1686,-4.2349,-4.3097,-4.4114,-4.4458,-4.4369,-4.3872,-4.3465,-4.2967,-4.2379,-4.2153,-4.204,-4.204,-4.1833,-4.181,-4.2017,-4.204,-4.204,-4.204,-4.2853,-4.4096,-4.5735,-4.5432,-4.5794,-4.1652,-4.3514,-4.5547,-4.6502,-4.8535,-5.0419,-5.0971,-5.1222,-5.1548,-5.2377,-5.2754,-5.2929,-5.2929,-5.2804,-5.2804,-5.308,-5.3582,-5.4135,-5.4712,-5.5616,-5.5792,-5.4687,-5.3934,-5.3582,-5.3858,-5.416,-5.4561,-5.5114,-5.5817,-5.6219,-5.6219,-5.6219,-5.6219,-5.6219,-5.6219,-5.5999,-5.5632,-5.5238,-5.4769,-5.4098,-5.3422,-5.2436,-5.1131,-4.9808,-4.7748,-4.5319,-4.5147,-4.4592,-4.3937,-4.3663,-4.3615,-4.3615,-4.3615,-4.3615,-4.3615,-4.3843,-4.3919,-4.405,-4.4955,-4.581,-4.6824,-4.8308,-4.9747,-5.1093,-5.1771,-5.2421,-5.2929,-5.2929,-5.2929,-5.2929,-5.2929,-5.2929,-5.2491,-5.0961,-4.9718,-4.8407,-4.6391,-4.4119,-4.2406,-4.2284,-4.1249,-4.0406,-4.0406,-4.0303,-4.0046,-3.9716,-4.0179,-4.0693,-4.1051,-4.1651,-4.2398,-4.3214,-4.3284,-4.3152,-4.2732,-4.2579,-4.2206,-4.1505,-4.133,-4.1264,-4.1264,-4.0935,-4.0913,-4.1264,-4.1264,-4.1264,-4.1264,-4.2105,-4.3331,-4.4907,-4.4503,-4.4754,-4.2635,-4.4945,-4.7179,-4.7732,-4.9967,-5.2176,-5.2729,-5.3231,-5.3607,-5.3632,-5.3256,-5.2929,-5.2929,-5.2477,-5.2477,-5.3507,-5.416,-5.4737,-5.529,-5.5842,-5.5792,-5.4687,-5.3607,-5.2754,-5.2226,-5.313,-5.3959,-5.4536,-5.5591,-5.6219,-5.6219,-5.6219,-5.6219,-5.6219,-5.6219,-5.5999,-5.5632,-5.4373,-5.36,-5.3171,-5.2007,-5.1162,-5.0643,-4.9022,-4.6865,-4.4471,-4.4844,-4.4251,-4.3024,-4.3462,-4.3615,-4.3615,-4.3615,-4.3615,-4.3691,-4.4504,-4.473,-4.4955,-4.6151,-4.731,-4.8453,-4.9652,-5.0789,-5.1841,-5.2283,-5.2654,-5.2929,-5.2929,-5.2929,-5.2929,-5.2929,-5.2929,-5.2448,-5.0623,-4.9378,-4.7927,-4.5416,-4.3584,-4.2327,-4.1686,-4.1167,-4.0862,-4.0862,-4.051,-4.022,-4.022,-3.9847,-3.9744,-4.0199,-4.0684,-4.0954,-4.1025,-4.1025,-4.1004,-4.1004,-4.0539,-4.029,-4.0249,-3.9834,-3.9585,-3.9585,-3.9564,-3.9564,-3.9585,-3.9585,-3.9585,-3.9585,-4.0293,-4.1564,-4.3284,-4.3562,-4.3805,-4.4041,-4.6125,-4.8058,-4.9715,-5.1398,-5.2879,-5.3808,-5.416,-5.416,-5.3783,-5.3005,-5.2503,-5.2854,-5.2779,-5.3005,-5.411,-5.5039,-5.5717,-5.5917,-5.6093,-5.5792,-5.4687,-5.3607,-5.2578,-5.1649,-5.1875,-5.2477,-5.3406,-5.4511,-5.529,-5.5641,-5.6018,-5.6072,-5.5852,-5.5779,-5.5238,-5.4023,-5.3322,-5.2465,-5.157,-5.031,-4.9472,-4.9,-4.7352,-4.5778,-4.4371,-4.3966,-4.3478,-4.3004,-4.3157,-4.3386,-4.3615,-4.3898,-4.4125,-4.4504,-4.563,-4.65,-4.7214,-4.758,-4.8453,-4.9605,-5.0506,-5.1306,-5.1796,-5.196,-5.2308,-5.2585,-5.2585,-5.2585,-5.2585,-5.2585,-5.2585,-5.2079,-5.0308,-4.8625,-4.6912,-4.4821,-4.2349,-4.0651,-4.1034,-4.0492,-4.0144,-4.0377,-4.0323,-4.0116,-3.9736,-3.9909,-4.0054,-4.022,-4.0613,-4.0882,-4.0882,-4.0882,-4.0882,-4.0882,-4.0737,-4.053,-4.0241,-4.0075,-3.9922,-3.9922,-3.9702,-3.9682,-3.9992,-3.9972,-3.9972,-3.9992,-4.0794,-4.1939,-4.3274,-4.2759,-4.2938,-4.5422,-4.7556,-4.9515,-5.1172,-5.2553,-5.3758,-5.4662,-5.5013,-5.4838,-5.3658,-5.2578,-5.185,-5.2,-5.2201,-5.2754,-5.4059,-5.5365,-5.6219,-5.6219,-5.6219,-5.5867,-5.4963,-5.4059,-5.308,-5.1975,-5.1498,-5.1574,-5.2277,-5.3532,-5.4511,-5.5064,-5.5817,-5.5999,-5.5632,-5.5164,-5.4322,-5.302,-5.1669,-5.0181,-4.863,-4.7869,-4.7261,-4.6786,-4.5699,-4.4693,-4.3713,-4.3253,-4.287,-4.2544,-4.2697,-4.2927,-4.3233,-4.3767,-4.4428,-4.5159,-4.65,-4.7872,-4.9079,-4.8959,-4.9628,-5.0553,-5.1211,-5.1586,-5.182,-5.182,-5.2099,-5.2377,-5.2238,-5.2308,-5.2377,-5.2238,-5.2308,-5.1872,-4.9967,-4.8187,-4.6332,-4.4246,-4.1741,-3.9963,-4.0392,-4.0136,-3.9952,-4.0185,-4.0203,-4.0075,-3.953,-3.993,-4.022,-4.022,-4.0613,-4.0882,-4.0882,-4.0882,-4.0882,-4.0882,-4.0882,-4.0758,-4.0468,-4.0468,-4.0468,-4.0468,-4.0179,-4.0158,-4.0448,-4.0448,-4.0448,-4.0468,-4.1042,-4.167,-4.2422,-4.1862,-4.1883,-4.6767,-4.9264,-5.1473,-5.2051,-5.3356,-5.4662,-5.5214,-5.5742,-5.5516,-5.3306,-5.1925,-5.0946,-5.0393,-5.077,-5.1699,-5.3356,-5.5089,-5.6219,-5.6219,-5.6219,-5.6018,-5.5491,-5.4938,-5.4185,-5.3105,-5.2026,-5.1373,-5.1373,-5.2804,-5.3934,-5.4607,-5.5616,-5.5999,-5.5558,-5.4373,-5.3299,-5.2465,-4.9506,-4.7026,-4.5002,-4.5002,-4.4766,-4.4371,-4.4351,-4.3634,-4.2505,-4.2877,-4.2539,-4.185,-4.2216,-4.237,-4.2447,-4.331,-4.4331,-4.5468,-4.7118,-4.8936,-5.0576,-5.0293,-5.0672,-5.1282,-5.1656,-5.1751,-5.1751,-5.1751,-5.203,-5.2238,-5.189,-5.203,-5.2238,-5.189,-5.2005,-5.1803,-4.9531,-4.791,-4.6192,-4.3643,-4.1573,-4.0166,-3.9786,-4.0022,-4.031,-4.031,-4.0247,-4.0046,-3.9612,-3.9902,-4.0261,-4.022,-4.0613,-4.0882,-4.0882,-4.0882,-4.0882,-4.0882,-4.0882,-4.0882,-4.0882,-4.0882,-4.0882,-4.0882,-4.0882,-4.0882,-4.0882,-4.0882,-4.0882,-4.0882,-4.0882,-4.0882,-4.0882,-4.0882,-4.0882,-4.8912,-5.072,-5.2126,-5.3055,-5.3607,-5.4059,-5.4637,-5.4888,-5.4361,-5.2151,-5.0142,-4.8736,-4.8586,-4.9012,-5.0092,-5.2176,-5.4587,-5.6219,-5.6219,-5.6219,-5.6168,-5.6018,-5.5516,-5.4913,-5.421,-5.3155,-5.2503,-5.2503,-5.2879,-5.3557,-5.4511,-5.5616,-5.5852,-5.5189,-5.3948,-5.2641,-5.1162,-4.8227,-4.6148,-4.5002,-4.4687,-4.4529,-4.4371,-4.3396,-4.2782,-4.2505,-4.1934,-4.1736,-4.185,-4.1927,-4.2139,-4.2447,-4.331,-4.4352,-4.5533,-4.7141,-4.8936,-5.06,-5.086,-5.1236,-5.1656,-5.1751,-5.1401,-5.0978,-5.0978,-5.1236,-5.1492,-5.1352,-5.1446,-5.1492,-5.1376,-5.1422,-5.0944,-4.8748,-4.7121,-4.5419,-4.3154,-4.1004,-3.9518,-3.9642,-4.0022,-4.031,-4.031,-4.0514,-4.0604,-4.0126,-4.0421,-4.0593,-4.0261,-4.0613,-4.0882,-4.0882,-4.0882,-4.0882,-4.0882,-4.0882,-4.0882,-4.0882,-4.0882,-4.0882,-4.0882,-4.0882,-4.0882,-4.0882,-4.0882,-4.0882,-4.0882,-4.0882,-4.0882,-4.0882,-4.0882,-4.0882,-5.0544,-5.2151,-5.3331,-5.3934,-5.4084,-5.411,-5.416,-5.4009,-5.3155,-5.0695,-4.8611,-4.723,-4.7205,-4.7857,-4.9213,-5.1699,-5.421,-5.5842,-5.5842,-5.5641,-5.5491,-5.5491,-5.5214,-5.4913,-5.4587,-5.4009,-5.3658,-5.3658,-5.3406,-5.3658,-5.4511,-5.5616,-5.5852,-5.5041,-5.3247,-5.0956,-4.7974,-4.6269,-4.4964,-4.3837,-4.3603,-4.3447,-4.3213,-4.2503,-4.2071,-4.1915,-4.1425,-4.1327,-4.156,-4.156,-4.1695,-4.1927,-4.2754,-4.3801,-4.5041,-4.6603,-4.843,-5.0175,-5.0765,-5.1211,-5.1516,-5.1516,-5.119,-5.0696,-5.0696,-5.0954,-5.1141,-5.1025,-5.1095,-5.1141,-5.0789,-5.0718,-5.0149,-4.8052,-4.6388,-4.4705,-4.2515,-4.0576,-3.9248,-3.9445,-3.9662,-3.9878,-4.0238,-4.031,-4.0382,-4.031,-4.0525,-4.0514,-4.0268,-4.0666,-4.0811,-4.0668,-4.0811,-4.0811,-4.0668,-4.0811,-4.0882,-4.0882,-4.0882,-4.0882,-4.0882,-4.0882,-4.0882,-4.0882,-4.0882,-4.0882,-4.0882,-4.0882,-4.0882,-4.0882,-4.0882,-4.0882,-5.1875,-5.3406,-5.4536,-5.4461,-5.4411,-5.4185,-5.3532,-5.2854,-5.1624,-4.8987,-4.7079,-4.5924,-4.605,-4.7029,-4.8711,-5.1448,-5.3858,-5.534,-5.5189,-5.4737,-5.4436,-5.4361,-5.4411,-5.4486,-5.4561,-5.4687,-5.4787,-5.4787,-5.431,-5.421,-5.4662,-5.5641,-5.5681,-5.457,-5.2313,-4.8963,-4.455,-4.445,-4.3746,-4.2447,-4.237,-4.2139,-4.1773,-4.1773,-4.154,-4.1172,-4.1172,-4.1172,-4.1172,-4.1172,-4.1172,-4.125,-4.2005,-4.3019,-4.4172,-4.5692,-4.7462,-4.92,-5.0032,-5.0624,-5.1071,-5.1141,-5.0954,-5.0696,-5.0696,-5.0884,-5.1095,-5.0767,-5.0884,-5.093,-5.0246,-4.9961,-4.932,-4.7258,-4.5562,-4.3824,-4.1856,-4.0282,-3.9182,-3.9182,-3.9215,-3.9393,-4.0022,-3.9878,-3.9786,-4.0094,-4.0238,-4.031,-4.0238,-4.0596,-4.074,-4.031,-4.0596,-4.0668,-4.031,-4.0596,-4.0811,-4.0882,-4.0882,-4.0882,-4.0882,-4.0882,-4.0882,-4.0882,-4.0882,-4.0882,-4.0882,-4.0882,-4.0882,-4.0882,-4.0882,-4.0882,-5.3105,-5.3984,-5.4461,-5.3959,-5.3532,-5.2955,-5.1925,-5.0544,-4.8962,-4.7129,-4.5045,-4.384,-4.4744,-4.62,-4.8033,-5.0343,-5.3331,-5.5064,-5.4135,-5.3909,-5.3683,-5.3256,-5.3582,-5.4034,-5.4511,-5.539,-5.5917,-5.5917,-5.5842,-5.5616,-5.5265,-5.5867,-5.4918,-5.1984,-5.0853,-4.8596,-4.4923,-4.4529,-4.3922,-4.2851,-4.2236,-4.185,-4.1773,-4.1483,-4.125,-4.1172,-4.1172,-4.1172,-4.1172,-4.1172,-4.1172,-4.125,-4.1695,-4.2447,-4.3324,-4.4612,-4.6085,-4.7631,-4.8453,-4.9413,-5.0388,-5.1,-5.0954,-5.0696,-5.0696,-5.0767,-5.0767,-5.0696,-5.0767,-5.0625,-4.9795,-4.9126,-4.8121,-4.61,-4.4387,-4.277,-4.1373,-4.0062,-3.9175,-3.9175,-3.9194,-3.9248,-3.9393,-3.959,-3.9642,-3.9393,-3.9899,-4.0166,-3.9858,-4.0433,-4.074,-4.031,-4.0382,-4.0382,-4.031,-4.0382,-4.0525,-4.0882,-4.0882,-4.0882,-4.0882,-4.0882,-4.0882,-4.0882,-4.0882,-4.0882,-4.0882,-4.0882,-4.0882,-4.0882,-4.0882,-4.0882,-5.4009,-5.4762,-5.5139,-5.3984,-5.3306,-5.2402,-5.0419,-4.8686,-4.7029,-4.5347,-4.3463,-4.2459,-4.3564,-4.4895,-4.6652,-4.9163,-5.2126,-5.3808,-5.298,-5.2628,-5.2352,-5.2101,-5.2277,-5.2879,-5.4009,-5.539,-5.6219,-5.6219,-5.6219,-5.6093,-5.5842,-5.5629,-5.4223,-5.137,-5.0543,-4.8383,-4.4687,-4.4529,-4.3766,-4.239,-4.2005,-4.1695,-4.1463,-4.1327,-4.1172,-4.1172,-4.1172,-4.1172,-4.1172,-4.1172,-4.1172,-4.125,-4.1405,-4.1695,-4.2139,-4.3192,-4.4235,-4.5415,-4.6699,-4.8041,-4.927,-5.008,-5.0459,-5.0696,-5.0696,-5.0696,-5.0696,-5.0696,-5.0696,-5.0483,-4.9723,-4.8933,-4.7922,-4.6382,-4.4422,-4.2562,-4.1366,-4.0435,-3.9696,-3.9312,-3.919,-3.9214,-3.9215,-3.9156,-3.9156,-3.9176,-3.9538,-3.9734,-3.9714,-4.0074,-4.0218,-4.0022,-4.0166,-4.0166,-3.9754,-3.9878,-4.0074,-4.0289,-4.0453,-4.0596,-4.0596,-4.0811,-4.0882,-4.0882,-4.0882,-4.0882,-4.0882,-4.0882,-4.0882,-4.0882,-4.0882,-4.0882,-5.4687,-5.5365,-5.5641,-5.3959,-5.3055,-5.185,-4.9063,-4.6954,-4.5196,-4.374,-4.2133,-4.1329,-4.2434,-4.3539,-4.5146,-4.7807,-5.0569,-5.2201,-5.1649,-5.1197,-5.0921,-5.0921,-5.1021,-5.1749,-5.3381,-5.5164,-5.6219,-5.6219,-5.6146,-5.6072,-5.6072,-5.5164,-5.3572,-5.1216,-5.031,-4.8148,-4.4529,-4.4371,-4.3432,-4.1927,-4.1773,-4.1483,-4.1172,-4.1172,-4.1172,-4.1172,-4.1172,-4.1172,-4.1172,-4.1172,-4.1172,-4.1172,-4.1172,-4.1172,-4.1327,-4.2005,-4.2657,-4.3477,-4.5159,-4.6721,-4.8163,-4.9054,-4.9961,-5.0696,-5.0696,-5.0696,-5.0696,-5.0696,-5.0696,-5.0483,-4.9723,-4.8933,-4.8086,-4.6721,-4.488,-4.3048,-4.1854,-4.1188,-4.0504,-3.9625,-3.9414,-3.9312,-3.9366,-3.9009,-3.8857,-3.9169,-3.9235,-3.9321,-3.957,-3.9642,-3.9642,-3.957,-3.9878,-3.9827,-3.9248,-3.9445,-3.9642,-3.9714,-4.0094,-4.031,-4.031,-4.0668,-4.0882,-4.0882,-4.0882,-4.0882,-4.0882,-4.0882,-4.0882,-4.0882,-4.0882,-4.0882,-5.5039,-5.539,-5.5064,-5.3406,-5.2201,-5.0695,-4.7933,-4.5221,-4.3087,-4.2489,-4.1003,-4.0174,-4.1225,-4.2384,-4.3865,-4.6175,-4.8862,-5.0444,-4.9916,-4.9791,-4.9741,-4.9741,-5.0193,-5.1147,-5.2829,-5.4938,-5.6219,-5.6219,-5.5852,-5.5632,-5.5632,-5.4173,-5.2565,-5.0775,-4.9629,-4.7698,-4.5002,-4.4173,-4.3334,-4.237,-4.1618,-4.125,-4.1172,-4.1172,-4.1172,-4.1172,-4.1172,-4.1172,-4.1172,-4.1172,-4.1172,-4.1172,-4.1172,-4.1172,-4.125,-4.1695,-4.2139,-4.2754,-4.4352,-4.5884,-4.7411,-4.8526,-4.9723,-5.0696,-5.0696,-5.0696,-5.0696,-5.0696,-5.0696,-5.0483,-4.9723,-4.891,-4.7945,-4.6381,-4.5319,-4.4398,-4.3504,-4.2363,-4.1343,-4.0563,-4.0098,-3.9824,-3.986,-3.9434,-3.9141,-3.9214,-3.9194,-3.9176,-3.9248,-3.9518,-3.957,-3.9248,-3.9248,-3.9248,-3.9176,-3.9248,-3.9373,-3.9714,-4.0094,-4.031,-4.031,-4.0668,-4.0882,-4.0882,-4.0882,-4.0882,-4.0882,-4.0882,-4.0882,-4.0882,-4.0882,-4.0882,-5.3783,-5.4637,-5.4838,-5.2503,-5.1348,-4.9866,-4.6401,-4.3991,-4.2288,-4.1354,-4.0375,-3.9923,-4.0701,-4.148,-4.261,-4.4493,-4.6853,-4.836,-4.8134,-4.8686,-4.9113,-4.9113,-4.9289,-5.0218,-5.2226,-5.3808,-5.5114,-5.6143,-5.5632,-5.509,-5.4868,-5.3549,-5.1854,-4.9607,-4.8842,-4.7224,-4.4687,-4.4272,-4.3432,-4.1985,-4.1695,-4.1405,-4.1172,-4.1172,-4.1172,-4.1172,-4.1172,-4.1172,-4.1172,-4.1172,-4.1172,-4.1172,-4.1172,-4.1172,-4.125,-4.1405,-4.154,-4.1927,-4.3518,-4.5084,-4.6603,-4.8113,-4.9532,-5.0696,-5.0696,-5.0696,-5.0696,-5.0696,-5.0696,-5.0554,-5.0033,-4.927,-4.8476,-4.7603,-4.6647,-4.5608,-4.4537,-4.3353,-4.2124,-4.072,-4.0391,-4.0195,-3.9941,-3.9746,-3.9531,-3.9238,-3.921,-3.916,-3.9215,-3.9083,-3.9182,-3.9532,-3.9334,-3.9103,-3.8885,-3.8865,-3.8865,-3.9011,-3.957,-3.993,-3.993,-4.0596,-4.0882,-4.0882,-4.0882,-4.0882,-4.0882,-4.0882,-4.1027,-4.1296,-4.1296,-4.1441,-5.2553,-5.3758,-5.426,-5.1674,-5.0343,-4.8736,-4.5196,-4.2986,-4.1455,-4.0676,-4.0074,-3.9823,-4.0199,-4.0601,-4.1354,-4.2836,-4.4669,-4.6075,-4.6577,-4.7581,-4.8335,-4.8485,-4.851,-4.9339,-5.1398,-5.303,-5.4587,-5.6093,-5.5558,-5.4794,-5.4005,-5.2858,-5.1232,-4.9057,-4.823,-4.677,-4.4371,-4.4134,-4.3275,-4.1773,-4.1695,-4.1483,-4.1172,-4.1172,-4.1172,-4.1172,-4.1172,-4.1172,-4.1172,-4.1172,-4.1172,-4.1172,-4.1172,-4.1172,-4.1172,-4.1172,-4.1172,-4.1405,-4.3004,-4.4612,-4.6159,-4.7845,-4.9484,-5.0696,-5.0696,-5.0696,-5.0696,-5.0696,-5.0696,-5.0625,-5.0317,-4.989,-4.9365,-4.9101,-4.8086,-4.6743,-4.5437,-4.4105,-4.2693,-4.1012,-4.0723,-4.0625,-4.0332,-4.0176,-3.9961,-3.9648,-3.9492,-3.9371,-3.9391,-3.9185,-3.923,-3.9766,-3.9603,-3.9279,-3.9038,-3.8965,-3.8965,-3.8965,-3.9532,-3.9951,-4.0117,-4.077,-4.1131,-4.1276,-4.1276,-4.1276,-4.1276,-4.1276,-4.1462,-4.1772,-4.1772,-4.2011,-5.1674,-5.2904,-5.3181,-5.0971,-4.9163,-4.7205,-4.4443,-4.2108,-4.0526,-4.0526,-4.0074,-3.9697,-3.9697,-3.9697,-4.0074,-4.1125,-4.2283,-4.3614,-4.5271,-4.6451,-4.733,-4.7857,-4.7908,-4.8586,-5.0268,-5.2929,-5.5013,-5.6118,-5.5852,-5.4844,-5.298,-5.1864,-5.0681,-4.955,-4.7911,-4.6132,-4.4392,-4.3559,-4.2625,-4.1773,-4.1405,-4.1172,-4.1172,-4.1172,-4.1172,-4.1172,-4.1172,-4.1172,-4.1172,-4.1172,-4.1172,-4.1172,-4.1172,-4.1172,-4.1172,-4.1172,-4.1172,-4.1405,-4.3004,-4.4612,-4.6159,-4.7845,-4.9484,-5.0696,-5.0696,-5.0696,-5.0696,-5.0696,-5.0696,-5.0696,-5.0696,-5.0696,-5.0696,-5.0696,-4.9484,-4.7918,-4.6233,-4.4687,-4.3157,-4.1483,-4.1172,-4.1172,-4.1172,-4.0801,-4.0508,-4.0508,-4.0156,-3.9883,-3.9883,-3.9883,-3.9883,-3.9883,-3.9883,-3.9883,-3.9883,-3.9883,-3.9883,-3.9883,-4.0219,-4.0594,-4.1042,-4.1414,-4.1785,-4.2322,-4.2322,-4.2322,-4.2322,-4.2322,-4.2322,-4.2322,-4.2322,-4.2322,-4.8786,-5.0318,-5.0921,-4.8736,-4.7481,-4.61,-4.3313,-4.1555,-4.04,-4.0023,-3.9823,-3.9697,-3.9697,-3.9697,-3.9923,-4.0651,-4.1379,-4.2434,-4.4091,-4.5949,-4.733,-4.7857,-4.9264,-5.0419,-5.0946,-5.3155,-5.5013,-5.6118,-5.5852,-5.5065,-5.3839,-5.241,-5.0338,-4.7704,-4.6556,-4.5126,-4.3118,-4.2803,-4.2269,-4.1405,-4.125,-4.1172,-4.1172,-4.1172,-4.1172,-4.1172,-4.1172,-4.1172,-4.1172,-4.1172,-4.1172,-4.1172,-4.1172,-4.1172,-4.1172,-4.1172,-4.1172,-4.1405,-4.3004,-4.4612,-4.6159,-4.7845,-4.9484,-5.0696,-5.0696,-5.0696,-5.0696,-5.0696,-5.0696,-5.0696,-5.0696,-5.0483,-5.0246,-4.9961,-4.8717,-4.7112,-4.5512,-4.4105,-4.2774,-4.1483,-4.1172,-4.1172,-4.1172,-4.1055,-4.0859,-4.0566,-4.041,-4.0215,-3.9941,-3.9902,-4.0,-4.0293,-4.0332,-4.0215,-3.9922,-3.9902,-3.9902,-3.9902,-4.0239,-4.0444,-4.0594,-4.1265,-4.1657,-4.1805,-4.2101,-4.2322,-4.2322,-4.2322,-4.2414,-4.2725,-4.3035,-4.318,-4.605,-4.7732,-4.8435,-4.6627,-4.5623,-4.4493,-4.2333,-4.1003,-4.0099,-3.9772,-3.9697,-3.9622,-3.9421,-3.9371,-3.9496,-3.9848,-4.0199,-4.1128,-4.3212,-4.5422,-4.733,-4.8686,-5.0469,-5.1498,-5.1297,-5.308,-5.4612,-5.5516,-5.5374,-5.4907,-5.4047,-5.2549,-5.0225,-4.6886,-4.5975,-4.4576,-4.2525,-4.2348,-4.1896,-4.1172,-4.1172,-4.1172,-4.1172,-4.1172,-4.1172,-4.1172,-4.1172,-4.1172,0.0,-4.1172,-4.1172,-4.1172,-4.1172,-4.1172,-4.1172,-4.1172,-4.1172,-4.1405,-4.3004,-4.4612,-4.6159,-4.7845,-4.9484,-5.0696,-5.0696,-5.0696,-5.0696,-5.0696,-5.0696,-5.0696,-5.0696,-5.0317,-4.9723,-4.9198,-4.7895,-4.6299,-4.4687,-4.3497,-4.2467,-4.1405,-4.1172,-4.1172,-4.1172,-4.1172,-4.1074,-4.0801,-4.0762,-4.0664,-4.041,-4.0371,-4.0488,-4.0742,-4.0762,-4.0664,-4.041,-4.0371,-4.0371,-4.0371,-4.058,-4.0808,-4.094,-4.1414,-4.1791,-4.2092,-4.2392,-4.2617,-4.2766,-4.2766,-4.2911,-4.318,-4.347,-4.3615,0.0,-4.5146,-4.5849,-4.4719,-4.3689,-4.2635,-4.1476,-4.045,0.0,-3.9697,-3.9672,-3.9496,-3.9019,-3.8944,-3.8944,-3.8969,-3.8994,-3.9948,-4.271,-4.5095,-4.7531,-5.0218,-5.1498,-5.1975,-5.1448,-5.2829,-5.3984,-5.4607,-5.4561,-5.431,-5.3733,-5.2299,-5.0123,-4.7124,-4.6029,-4.4473,-4.2387,-4.1994,-4.1562,-4.1172,-4.1172,-4.1172,-4.1172,-4.1172,-4.1172,-4.1172,-4.1172,-4.1172,-4.1172,-4.1172,-4.1172,-4.1172,-4.1172,-4.1172,-4.1172,-4.1172,-4.1172,-4.1405,-4.3004,-4.4612,-4.6159,-4.7991,-4.9556,-5.0696,-5.0696,-5.0696,-5.0696,-5.0696,-5.0696,-5.0696,-5.0696,-5.0104,-4.9293,-4.8381,-4.7016,-4.5459,-4.378,-4.2887,-4.2139,-4.1327,-4.1172,-4.1172,-4.1172,-4.1172,-4.1172,-4.1172,-4.1172,-4.1172,-4.1172,-4.1172,-4.1172,-4.1172,-4.1172,-4.1191,-4.1211,-4.1191,-4.1172,-4.1172,-4.1172,-4.1405,-4.1773,-4.1773,-4.2159,-4.2927,-4.2927,-4.3157,-4.3615,-4.3615,-4.3615,-4.3615,-4.3615,-4.3615,-3.9772,0.0,-4.4116,-4.3011,-4.259,-4.2112,0.0,-4.0174,-3.9697,-3.9697,-3.9346,-3.9145,-3.9446,-3.917,-3.9145,-3.9998,-4.0124,-4.1103,-4.384,-4.6878,-4.954,-5.1473,-5.2327,-5.2678,-5.2553,-5.3632,-5.4411,-5.4561,-5.4561,-5.431,-5.3733,-5.2299,-5.0123,-4.7124,-4.5685,-4.3842,-4.1562,-4.1406,-4.1269,-4.1172,-4.1172,-4.1172,-4.1172,-4.1172,-4.1172,-4.1172,-4.1172,-4.1172,-4.1172,-4.1172,-4.1172,-4.1172,-4.1172,-4.1172,-4.1172,-4.1172,-4.1172,-4.1405,-4.3004,-4.4612,-4.6381,-4.9221,-5.0412,-5.0696,-5.0696,-5.0696,-5.0696,-5.0696,-5.0696,-5.0696,-5.0696,-4.9866,-4.8766,-4.7631,-4.6181,-4.4654,-4.304,-4.2293,-4.1773,-4.1327,-4.1172,-4.1172,-4.1172,-4.1172,-4.1172,-4.1172,-4.1172,-4.1172,-4.1172,-4.1172,-4.1172,-4.1172,-4.1172,-4.1308,-4.1621,-4.1348,-4.1172,-4.1172,-4.1172,-4.125,-4.1327,-4.1618,-4.185,-4.2082,-4.2697,-4.3157,-4.3615,-4.3615,-4.3615,-4.3615,-4.3615,-4.3615,-3.8567,-4.0375,-4.1781,-4.1178,-4.1028,-4.0802,-3.9948,-3.932,-3.8919,-3.8919,-3.8693,-3.8567,-3.8868,-3.8668,-3.8843,-3.9948,-4.0576,-4.2208,-4.5999,-4.8736,-5.0971,-5.2653,-5.3331,-5.3582,-5.3306,-5.3833,-5.4084,-5.3833,-5.3808,-5.3613,-5.3148,-5.172,-4.96,-4.6831,-4.5319,-4.3421,-4.125,-4.1172,-4.1172,-4.1172,-4.1172,-4.1172,-4.1172,-4.1172,-4.1172,-4.1172,-4.1172,-4.1172,-4.1172,-4.1172,-4.1172,-4.1172,-4.1172,-4.1172,-4.1172,-4.1172,-4.1172,-4.1405,-4.2851,-4.4558,-4.6625,-4.8884,-4.9747,-4.989,-5.0104,-5.0246,-5.0483,-5.0625,-5.0696,-5.0696,-5.0696,-4.9675,-4.8331,-4.6898,-4.5362,-4.3822,-4.2236,-4.1695,-4.1483,-4.125,-4.1172,-4.1172,-4.1172,-4.1172,-4.1172,-4.1172,-4.1172,-4.1172,-4.1172,-4.1172,-4.1172,-4.1172,-4.1172,-4.1348,-4.1758,-4.1582,-4.1465,-4.1465,-4.1289,-4.1172,-4.1172,-4.1405,-4.1717,-4.207,-4.3049,-4.3592,-4.3618,-4.3849,-4.3822,-4.3615,-4.3615,-4.3615,-3.8492,-3.9195,-3.9722,-3.9798,-3.9948,-3.9923,-3.9371,-3.8868,-3.8492,-3.8417,-3.8266,-3.8191,-3.8366,-3.8316,-3.8718,-4.0099,-4.153,-4.3966,-4.8284,-5.0343,-5.1975,-5.3507,-5.4135,-5.4235,-5.3758,-5.3708,-5.3482,-5.298,-5.2861,-5.2723,-5.2446,-5.093,-4.9008,-4.678,-4.5191,-4.3421,-4.1405,-4.125,-4.1172,-4.1172,-4.1172,-4.1172,-4.1172,-4.1172,-4.1172,-4.1172,-4.1172,-4.1172,-4.1172,-4.1172,-4.1172,-4.1172,-4.1172,-4.1172,-4.1172,-4.1172,-4.1172,-4.1405,-4.2621,-4.4504,-4.6522,-4.7626,-4.8282,-4.8694,-4.9198,-4.9652,-5.0104,-5.0554,-5.0625,-5.0625,-5.0554,-4.9389,-4.7794,-4.6159,-4.4612,-4.3081,-4.156,-4.1172,-4.1172,-4.1172,-4.1172,-4.1172,-4.1172,-4.1172,-4.1172,-4.1172,-4.1172,-4.1172,-4.1172,-4.1172,-4.1172,-4.1172,-4.1172,-4.1348,-4.1758,-4.1738,-4.1738,-4.1797,-4.1465,-4.125,-4.1172,-4.123,-4.166,-4.2407,-4.3555,-4.3969,-4.36,-4.3988,-4.3993,-4.3615,-4.3615,-4.3615,-3.7839,-3.8894,-3.9798,-4.0275,-4.1078,-4.1685,-4.1078,-4.0849,-4.0648,-4.0224,-3.9396,-3.9019,-3.9948,-3.9747,-4.0249,-4.276,-4.5673,-4.8058,-4.9289,-5.0921,-5.2402,-5.3557,-5.3783,-5.3808,-5.3708,-5.3708,-5.3482,-5.298,-5.2654,-5.2446,-5.2377,-5.0954,-4.927,-4.7558,-4.6033,-4.4256,-4.2216,-4.154,-4.1172,-4.1172,-4.1172,-4.1172,-4.1172,-4.1172,-4.1172,-4.1172,-4.1172,-4.1172,-4.1172,-4.1172,-4.1172,-4.1172,-4.1172,-4.1172,-4.1172,-4.1172,-4.1172,-4.1385,-4.2887,-4.4159,-4.5213,-4.6011,-4.6751,-4.7485,-4.8236,-4.8982,-4.9723,-5.0483,-5.0483,-5.0104,-4.9795,-4.8572,-4.6965,-4.5362,-4.4029,-4.2697,-4.1483,-4.1172,-4.1172,-4.1172,-4.1172,-4.1172,-4.1172,-4.1172,-4.1172,-4.1172,-4.1172,-4.1172,-4.1172,-4.1172,-4.1172,-4.1172,-4.1172,-4.1348,-4.1758,-4.1484,-4.1426,-4.1777,-4.1738,-4.1543,-4.1191,-4.1523,-4.1975,-4.2407,-4.3002,-4.3397,-4.36,-4.3678,-4.3664,-4.3615,-4.3615,-4.3615,-3.7713,-3.8617,-3.9521,-4.0676,-4.1781,-4.2534,-4.2283,-4.2233,-4.1982,-4.1075,-4.0325,-3.9998,-4.0802,-4.1003,-4.2233,-4.5899,-4.8033,-4.9615,-5.0795,-5.1624,-5.2402,-5.3181,-5.3281,-5.3281,-5.3281,-5.3281,-5.3111,-5.2679,-5.2515,-5.2213,-5.1796,-5.0742,-4.9437,-4.8091,-4.65,-4.4859,-4.304,-4.2216,-4.1618,-4.1172,-4.1172,-4.1172,-4.1172,-4.1172,-4.1172,-4.1172,-4.1172,-4.1172,-4.1172,-4.1172,-4.1172,-4.1172,-4.1172,-4.1172,-4.1172,-4.1172,-4.1327,-4.1695,-4.258,-4.3345,-4.3898,-4.4482,-4.5213,-4.6033,-4.6795,-4.7603,-4.8427,-4.9245,-4.9604,-4.9652,-4.8982,-4.7676,-4.6151,-4.4461,-4.3345,-4.239,-4.1405,-4.1172,-4.1172,-4.1172,-4.1172,-4.1172,-4.1172,-4.1172,-4.1172,-4.1172,-4.1172,-4.1172,-4.1172,-4.1172,-4.1172,-4.1172,-4.1172,-4.1348,-4.1758,-4.1621,-4.1504,-4.1465,-4.1465,-4.1367,-4.1172,-4.1582,-4.1876,-4.2112,-4.2764,-4.318,-4.3288,-4.3522,-4.3685,-4.3615,-4.3863,-4.3987,-3.7538,-3.8241,-3.9044,-4.0576,-4.1882,-4.2861,-4.3112,-4.3263,-4.3087,-4.2108,-4.148,-4.1229,-4.1656,-4.2484,-4.4425,-4.8159,-4.9464,-5.0494,-5.19,-5.2226,-5.2452,-5.2879,-5.2929,-5.2929,-5.2929,-5.2861,-5.2654,-5.2446,-5.2213,-5.1866,-5.1211,-5.0435,-4.9437,-4.8331,-4.6795,-4.5234,-4.3553,-4.2734,-4.2005,-4.1172,-4.1172,-4.1172,-4.1172,-4.1172,-4.1172,-4.1172,-4.1172,-4.1172,-4.1172,-4.1172,-4.1172,-4.1172,-4.1172,-4.1172,-4.1172,-4.1172,-4.1405,-4.1695,-4.2005,-4.2313,-4.2621,-4.2927,-4.3594,-4.4428,-4.5159,-4.598,-4.6817,-4.7626,-4.8113,-4.8308,-4.7872,-4.6647,-4.5159,-4.3629,-4.2734,-4.2062,-4.1327,-4.1172,-4.1172,-4.1172,-4.1172,-4.1172,-4.1172,-4.1172,-4.1172,-4.1172,-4.1172,-4.1172,-4.1172,-4.1172,-4.1172,-4.1172,-4.1172,-4.1308,-4.1621,-4.166,-4.1523,-4.1191,-4.1172,-4.1172,-4.1172,-4.1582,-4.1797,-4.1797,-4.2526,-4.2942,-4.2976,-4.3366,-4.3592,-4.378,-4.4132,-4.436,-3.7086,-3.7638,-3.8341,-3.9521,-4.1028,-4.2539,-4.3514,-4.4141,-4.4342,-4.374,-4.3187,-4.2811,-4.2861,-4.4593,-4.6627,-4.846,-5.0117,-5.1373,-5.2026,-5.2553,-5.2879,-5.2929,-5.2929,-5.2929,-5.2929,-5.2654,-5.2446,-5.2377,-5.1726,-5.1282,-5.1211,-5.0151,-4.915,-4.8377,-4.6817,-4.5256,-4.3615,-4.283,-4.2005,-4.1172,-4.1172,-4.1172,-4.1172,-4.1172,-4.1172,-4.1172,-4.1172,-4.1172,-4.1172,-4.1172,-4.1172,-4.1172,-4.1172,-4.1172,-4.1172,-4.1172,-4.125,-4.125,-4.125,-4.1327,-4.1327,-4.1327,-4.1927,-4.2754,-4.3477,-4.431,-4.5138,-4.5862,-4.5639,-4.5287,-4.598,-4.5256,-4.405,-4.2754,-4.2139,-4.1695,-4.1327,-4.1172,-4.1172,-4.1172,-4.1172,-4.1172,-4.1172,-4.1172,-4.1172,-4.1172,-4.1172,-4.1172,-4.1172,-4.1172,-4.1172,-4.1172,-4.1172,-4.1191,-4.1211,-4.1211,-4.1211,-4.1172,-4.1172,-4.1172,-4.1172,-4.1582,-4.1797,-4.1797,-4.2207,-4.2625,-4.2976,-4.3054,-4.3424,-4.4256,-4.4298,-4.4526,-3.7036,-3.7337,-3.7839,-3.932,-4.0425,-4.1605,-4.3388,-4.5045,-4.6024,-4.5472,-4.5472,-4.5347,-4.4669,-4.5522,-4.6853,-4.851,-4.9891,-5.1071,-5.1975,-5.2578,-5.2792,-5.2585,-5.2585,-5.2515,-5.2238,-5.2099,-5.1935,-5.1656,-5.1352,-5.1095,-5.0884,-5.0009,-4.915,-4.8331,-4.6817,-4.5234,-4.3573,-4.2734,-4.2005,-4.1172,-4.1172,-4.1172,-4.1172,-4.1172,-4.1172,-4.1172,-4.1172,-4.1172,-4.1172,-4.1172,-4.1172,-4.1172,-4.1172,-4.1172,-4.1172,-4.1172,-4.1172,-4.1172,-4.1172,-4.1172,-4.1172,-4.1172,-4.154,-4.2139,-4.2657,-4.3192,-4.3822,-4.4331,-4.4105,-4.3822,-4.431,-4.3801,-4.283,-4.185,-4.154,-4.1405,-4.125,-4.1172,-4.1172,-4.1172,-4.1172,-4.1172,-4.1172,-4.1172,-4.1172,-4.1172,-4.1172,-4.1172,-4.1172,-4.1172,-4.1172,-4.1172,-4.1172,-4.1172,-4.1172,-4.1172,-4.1172,-4.1172,-4.1172,-4.1172,-4.1172,-4.1328,-4.1406,-4.1406,-4.1816,-4.2191,-4.2662,-4.3158,-4.3771,-4.4341,-4.4865,-4.525,-3.6883,-3.6983,-3.7287,-3.8793,-3.9722,-4.0827,-4.3037,-4.5271,-4.6803,-4.6602,-4.6728,-4.6602,-4.5673,-4.5949,-4.6803,-4.8259,-4.9439,-5.0619,-5.1925,-5.2291,-5.2454,-5.2421,-5.2308,-5.2099,-5.182,-5.1681,-5.1516,-5.1211,-5.1095,-5.0954,-5.0696,-4.9961,-4.915,-4.8331,-4.6817,-4.5234,-4.3553,-4.2734,-4.2005,-4.1172,-4.1172,-4.1172,-4.1172,-4.1172,-4.1172,-4.1172,-4.1172,-4.1172,-4.1172,-4.1172,-4.1172,-4.1172,-4.1172,-4.1172,-4.1172,-4.1172,-4.1172,-4.1172,-4.1172,-4.1172,-4.1172,-4.1172,-4.1405,-4.1695,-4.1927,-4.2236,-4.2467,-4.2774,-4.2621,-4.2467,-4.2734,-4.2503,-4.2082,-4.1327,-4.1172,-4.1172,-4.1172,-4.1172,-4.1172,-4.1172,-4.1172,-4.1172,-4.1172,-4.1172,-4.1172,-4.1172,-4.1172,-4.1172,-4.1172,-4.1172,-4.1172,-4.1172,-4.1172,-4.1172,-4.1172,-4.1172,-4.1172,-4.1172,-4.1172,-4.1172,-4.1172,-4.1172,-4.123,-4.1367,-4.166,-4.2092,-4.2625,-4.324,-4.3858,-4.4576,-4.5221,-4.5608,-3.6405,-3.6405,-3.6681,-3.7739,-3.8894,-4.03,-4.2509,-4.4719,-4.6476,-4.6993,-4.6702,-4.615,-4.5598,-4.5949,-4.6652,-4.7732,-4.8837,-5.0167,-5.185,-5.1736,-5.1731,-5.2302,-5.203,-5.182,-5.182,-5.1446,-5.1211,-5.1211,-5.0884,-5.0696,-5.0696,-4.9961,-4.915,-4.84,-4.6817,-4.5256,-4.3615,-4.283,-4.2005,-4.1172,-4.1172,-4.1172,-4.1172,-4.1172,-4.1172,-4.1172,-4.1172,-4.1172,-4.1172,-4.1172,-4.1172,-4.1172,-4.1172,-4.1172,-4.1172,-4.1172,-4.1172,-4.1172,-4.1172,-4.1172,-4.1172,-4.1172,-4.1172,-4.1172,-4.1172,-4.1172,-4.1172,-4.1172,-4.1172,-4.1172,-4.1172,-4.1483,-4.1695,-4.1327,-4.1172,-4.1172,-4.1172,-4.1172,-4.1172,-4.1172,-4.1172,-4.1172,-4.1172,-4.1172,-4.1172,-4.1172,-4.1172,-4.1172,-4.1172,-4.1172,-4.1172,-4.1172,-4.1191,-4.1191,-4.1191,-4.1191,-4.1191,-4.1191,-4.1191,-4.1172,-4.1172,-4.1172,-4.1367,-4.1797,-4.1816,-4.225,-4.3081,-4.3081,-4.3799,-4.4965,-4.5025,-4.5431,-3.6835,-3.7236,-3.7889,-3.9396,-4.0902,-4.2484,-4.4317,-4.5547,-4.6803,-4.851,-4.8109,-4.7218,-4.6448,-4.6088,-4.6163,-4.686,-4.7932,-4.9102,-5.0414,-5.1103,-5.1377,-5.1068,-5.1202,-5.1306,-5.1049,-5.0908,-5.0837,-5.0837,-5.0767,-5.0696,-5.0696,-4.9961,-4.9126,-4.8331,-4.6795,-4.5234,-4.3553,-4.2734,-4.2005,-4.1172,-4.1172,-4.1328,-4.1601,-4.1308,-4.1328,-4.1601,-4.1308,-4.1172,-4.1172,-4.1172,-4.1172,-4.1172,-4.1172,-4.1172,-4.1172,-4.1172,-4.1172,-4.1172,-4.1172,-4.1172,-4.1172,-4.1172,-4.1172,-4.1172,-4.1172,-4.1172,-4.1172,-4.1172,-4.1172,-4.1172,-4.1172,-4.1327,-4.1327,-4.125,-4.1172,-4.1172,-4.1172,-4.1172,-4.1172,-4.1172,-4.1172,-4.1172,-4.1172,-4.1172,-4.1172,-4.1172,-4.1172,-4.1172,-4.1172,-4.1426,-4.1621,-4.1621,-4.1875,-4.2051,-4.2051,-4.2051,-4.2051,-4.2051,-4.2051,-4.1797,-4.1191,-4.1465,-4.168,-4.1797,-4.2383,-4.2835,-4.3133,-4.3753,-4.4216,-4.458,-4.517,-4.5657,-3.7287,-3.7914,-3.8843,-4.0978,-4.2559,-4.4192,-4.6301,-4.7054,-4.7732,-4.9264,-4.8887,-4.7958,-4.706,-4.6625,-4.6526,-4.6849,-4.7706,-4.8675,-4.9743,-5.0504,-5.0783,-5.0454,-5.0756,-5.0884,-5.0696,-5.0554,-5.0412,-5.0246,-5.0104,-4.9961,-4.9771,-4.9173,-4.8572,-4.7895,-4.65,-4.5009,-4.3573,-4.2754,-4.2005,-4.1172,-4.1172,-4.1484,-4.2031,-4.1445,-4.1308,-4.1543,-4.1289,-4.1172,-4.1172,-4.1172,-4.1172,-4.1172,-4.1172,-4.1172,-4.1172,-4.1172,-4.1172,-4.1172,-4.1172,-4.1172,-4.1172,-4.1172,-4.1172,-4.1172,-4.1172,-4.1172,-4.1172,-4.1172,-4.1172,-4.1172,-4.1172,-4.1172,-4.1172,-4.1172,-4.1172,-4.1172,-4.1172,-4.1172,-4.1172,-4.1172,-4.1172,-4.1172,-4.1172,-4.1172,-4.1172,-4.1172,-4.1172,-4.1172,-4.1172,-4.1543,-4.1797,-4.1797,-4.2168,-4.2422,-4.2422,-4.2422,-4.2422,-4.2422,-4.2422,-4.2207,-4.1699,-4.1914,-4.2129,-4.2305,-4.2812,-4.3164,-4.332,-4.3821,-4.4205,-4.4452,-4.4964,-4.5291,-3.7764,-3.8592,-3.9747,-4.2459,-4.4066,-4.5673,-4.8259,-4.8837,-4.8987,-4.949,-4.9188,-4.8623,-4.7744,-4.7519,-4.7519,-4.7543,-4.7965,-4.866,-4.9603,-4.9956,-5.0093,-5.0287,-5.0497,-5.0648,-5.0696,-5.0317,-4.989,-4.9437,-4.8982,-4.8549,-4.8159,-4.7868,-4.7479,-4.7112,-4.5928,-4.4805,-4.3594,-4.283,-4.2005,-4.1172,-4.1172,-4.1562,-4.2285,-4.1523,-4.1172,-4.1172,-4.1172,-4.1172,-4.1172,-4.1211,-4.123,-4.123,-4.123,-4.123,-4.123,-4.1191,-4.1172,-4.1172,-4.1172,-4.1172,-4.1172,-4.1172,-4.1172,-4.1172,-4.1172,-4.1172,-4.1172,-4.1172,-4.1172,-4.1172,-4.1172,-4.1172,-4.1172,-4.1172,-4.1172,-4.1172,-4.1172,-4.1172,-4.1172,-4.1172,-4.1172,-4.1172,-4.1172,-4.1172,-4.1172,-4.1172,-4.1172,-4.1191,-4.123,-4.1601,-4.1875,-4.1914,-4.2285,-4.2539,-4.2539,-4.2539,-4.2539,-4.2539,-4.2539,-4.2539,-4.2539,-4.25,-4.2676,-4.3066,-4.3125,-4.332,-4.3711,-4.3711,-4.3958,-4.437,-4.437,-4.4616,-3.8316,-3.9722,-4.1354,-4.3689,-4.61,-4.8159,-4.9188,-4.9414,-4.9464,-4.9565,-4.9515,-4.9325,-4.8814,-4.8724,-4.866,-4.8361,-4.846,-4.8632,-4.8854,-4.9215,-4.953,-4.9728,-5.0194,-5.0495,-5.0648,-5.0033,-4.9342,-4.8598,-4.7872,-4.7192,-4.6455,-4.6381,-4.6233,-4.6159,-4.5362,-4.4461,-4.3553,-4.2734,-4.2005,-4.1172,-4.1172,-4.1269,-4.1426,-4.125,-4.1172,-4.1172,-4.1172,-4.1172,-4.1191,-4.1523,-4.166,-4.166,-4.166,-4.166,-4.1621,-4.1289,-4.1172,-4.1172,-4.1172,-4.1172,-4.1172,-4.1172,-4.1172,-4.1172,-4.1172,-4.1172,-4.1172,-4.1172,-4.1172,-4.1172,-4.1172,-4.1172,-4.1172,-4.1172,-4.1172,-4.1172,-4.1172,-4.1172,-4.1172,-4.1172,-4.1172,-4.1172,-4.1172,-4.1172,-4.1172,-4.1172,-4.1172,-4.1289,-4.1621,-4.2031,-4.2422,-4.2773,-4.3183,-4.3437,-4.3437,-4.3437,-4.3437,-4.3437,-4.3437,-4.3437,-4.3437,-4.3105,-4.2988,-4.3086,-4.3398,-4.3613,-4.3711,-4.3711,-4.3793,-4.3876,-4.4205,-4.4452,-3.8743,-4.0475,-4.2509,-4.5799,-4.7908,-4.9238,-4.954,-4.959,-4.959,-4.959,-4.959,-4.9525,-4.9137,-4.9072,-4.9007,-4.8641,-4.8706,-4.8772,-4.86,-4.9175,-4.9559,-4.9626,-5.0093,-5.0513,-5.0648,-4.9961,-4.915,-4.8427,-4.7603,-4.6773,-4.5959,-4.5735,-4.5586,-4.5362,-4.4633,-4.3801,-4.2963,-4.237,-4.1773,-4.1172,-4.1172,-4.1172,-4.1172,-4.1172,-4.1172,-4.1172,-4.1172,-4.1172,-4.1191,-4.1406,-4.1621,-4.1777,-4.1582,-4.1621,-4.1758,-4.1328,-4.1172,-4.1172,-4.1172,-4.1172,-4.1172,-4.1172,-4.1172,-4.1172,-4.1172,-4.1172,-4.1172,-4.1172,-4.1172,-4.1172,-4.1172,-4.1172,-4.1172,-4.1172,-4.1172,-4.1172,-4.1172,-4.1172,-4.1172,-4.1172,-4.1172,-4.1172,-4.1172,-4.1172,-4.1172,-4.1172,-4.1172,-4.1328,-4.1758,-4.2168,-4.2598,-4.3027,-4.3457,-4.3711,-4.3711,-4.3711,-4.3711,-4.3711,-4.3711,-4.3711,-4.3711,-4.3496,-4.3379,-4.3379,-4.3594,-4.3711,-4.3711,-4.3711,-4.3711,-4.3711,-4.3958,-4.4041,-3.8944,-4.1178,-4.3897,-4.7908,-4.9264,-4.959,-4.959,-4.959,-4.959,-4.959,-4.959,-4.9525,-4.9267,-4.9202,-4.9072,-4.8706,-4.8877,-4.9007,-4.8706,-4.9298,-4.9702,-4.9572,-5.0015,-5.0437,-5.0574,-4.989,-4.915,-4.845,-4.7626,-4.6817,-4.6055,-4.5533,-4.5106,-4.4579,-4.3822,-4.3004,-4.2216,-4.185,-4.154,-4.1172,-4.1172,-4.1172,-4.1172,-4.1172,-4.1172,-4.1172,-4.1172,-4.1172,-4.1172,-4.125,-4.1523,-4.1875,-4.1445,-4.1543,-4.1855,-4.1348,-4.1172,-4.1172,-4.1172,-4.1172,-4.1172,-4.1172,-4.1172,-4.1172,-4.1172,-4.1172,-4.1172,-4.1172,-4.1172,-4.1172,-4.1172,-4.1172,-4.1172,-4.1172,-4.1172,-4.1172,-4.1172,-4.1172,-4.1172,-4.1172,-4.1172,-4.1172,-4.1172,-4.1172,-4.1172,-4.1172,-4.1172,-4.1348,-4.1836,-4.2207,-4.2617,-4.3125,-4.3496,-4.3711,-4.3711,-4.3711,-4.3711,-4.3711,-4.3711,-4.3711,-4.3711,-4.3711,-4.3711,-4.3711,-4.3711,-4.3711,-4.3711,-4.3711,-4.3711,-4.3711,-4.3711,-4.3711,-3.8366,-4.2308,-4.6351,-4.8862,-4.954,-4.959,-4.959,-4.959,-4.959,-4.959,-4.959,-4.959,-4.9525,-4.9525,-4.9396,-4.9072,-4.9072,-4.9072,-4.9007,-4.9147,-4.9264,-4.9345,-4.9817,-5.0084,-4.9996,-4.9677,-4.915,-4.8381,-4.758,-4.6751,-4.5937,-4.5287,-4.4537,-4.3705,-4.2963,-4.2159,-4.1405,-4.1327,-4.125,-4.1172,-4.1172,-4.1172,-4.1172,-4.1172,-4.1172,-4.1172,-4.1172,-4.1172,-4.1211,-4.1562,-4.1973,-4.2305,-4.1875,-4.1973,-4.2246,-4.1465,-4.1172,-4.1172,-4.1172,-4.1172,-4.1172,-4.1172,-4.1172,-4.1172,-4.1172,-4.1172,-4.1172,-4.1172,-4.1172,-4.1172,-4.1172,-4.1172,-4.1172,-4.1172,-4.1172,-4.1172,-4.1172,-4.1172,-4.1172,-4.1172,-4.1172,-4.1172,-4.1172,-4.1172,-4.1172,-4.1172,-4.1172,-4.1465,-4.2246,-4.2402,-4.2734,-4.3535,-4.3672,-4.3711,-4.3711,-4.3711,-4.3711,-4.3711,-4.3711,-4.3711,-4.3711,-4.3711,-4.3711,-4.3711,-4.3711,-4.3711,-4.3711,-4.3711,-4.3711,-4.3711,-4.3711,-4.3711,-3.9724,-4.3463,-4.6828,-4.9038,-4.959,-4.959,-4.959,-4.959,-4.9515,-4.9188,-4.9138,-4.9213,-4.954,-4.959,-4.9461,-4.9137,-4.9267,-4.9332,-4.9137,-4.9267,-4.9336,-4.9288,-4.9762,-5.003,-4.9875,-4.9865,-4.958,-4.9054,-4.8259,-4.7457,-4.6647,-4.5683,-4.4633,-4.3573,-4.283,-4.1885,-4.0801,-4.1055,-4.1172,-4.1172,-4.1172,-4.1172,-4.1172,-4.1172,-4.1172,-4.1172,-4.1172,-4.1172,-4.1191,-4.1367,-4.1699,-4.2031,-4.1621,-4.1699,-4.2012,-4.1387,-4.1172,-4.1172,-4.1172,-4.1172,-4.1172,-4.1172,-4.1172,-4.1172,-4.1172,-4.1172,-4.1172,-4.1172,-4.1172,-4.1172,-4.1172,-4.1172,-4.1172,-4.1172,-4.1172,-4.1172,-4.1172,-4.1172,-4.1172,-4.1172,-4.1172,-4.1172,-4.1172,-4.1172,-4.1172,-4.1172,-4.1367,-4.1738,-4.2344,-4.2637,-4.3027,-4.3633,-4.3711,-4.3711,-4.3711,-4.3711,-4.3711,-4.3711,-4.3711,-4.3711,-4.3711,-4.3711,-4.3711,-4.3711,-4.3711,-4.3711,-4.3711,-4.3711,-4.3711,-4.3711,-4.3711,-4.3711,-4.0601,-4.3664,-4.6175,-4.8234,-4.8862,-4.9012,-4.9138,-4.9289,-4.9314,-4.9038,-4.8987,-4.9113,-4.9515,-4.949,-4.9375,-4.9242,-4.9461,-4.9525,-4.9267,-4.9461,-4.9481,-4.9315,-4.9823,-5.0117,-4.9821,-5.0122,-5.0246,-4.9795,-4.9101,-4.8305,-4.7552,-4.6225,-4.4955,-4.3594,-4.2708,-4.1666,-4.0527,-4.084,-4.1016,-4.1016,-4.1113,-4.1172,-4.1172,-4.1172,-4.1172,-4.1172,-4.1172,-4.1172,-4.1172,-4.1172,-4.1426,-4.1758,-4.1348,-4.1426,-4.1758,-4.1328,-4.1172,-4.1172,-4.1172,-4.1172,-4.1172,-4.1172,-4.1172,-4.1172,-4.1172,-4.1172,-4.1172,-4.1172,-4.1172,-4.1172,-4.1172,-4.1172,-4.1172,-4.1172,-4.1172,-4.1172,-4.1172,-4.1172,-4.1172,-4.1172,-4.1172,-4.1172,-4.1172,-4.1172,-4.1211,-4.1308,-4.1601,-4.1992,-4.2519,-4.2871,-4.3242,-4.3652,-4.3711,-4.3711,-4.3711,-4.3711,-4.3711,-4.3711,-4.3711,-4.3711,-4.3711,-4.3711,-4.3711,-4.3711,-4.3711,-4.3711,-4.3711,-4.3711,-4.3711,-4.3711,-4.3711,-4.3711,-4.0099,-4.2233,-4.4342,-4.605,-4.6878,-4.738,-4.7883,-4.841,-4.8962,-4.9439,-4.9565,-4.9565,-4.959,-4.9163,-4.8987,-4.9515,-4.959,-4.959,-4.959,-4.959,-4.9486,-4.9162,-5.0041,-5.0376,-4.9655,-5.0534,-5.1025,-5.0625,-4.989,-4.9054,-4.8308,-4.6795,-4.5234,-4.3532,-4.2307,-4.1367,-4.0527,-4.0547,-4.0566,-4.0566,-4.0976,-4.1172,-4.1172,-4.1172,-4.1172,-4.1172,-4.1172,-4.1172,-4.1172,-4.1172,-4.1426,-4.1758,-4.1348,-4.1426,-4.1758,-4.1328,-4.1172,-4.1172,-4.1172,-4.1172,-4.1172,-4.1172,-4.1172,-4.1172,-4.1172,-4.1172,-4.1172,-4.1172,-4.1172,-4.1172,-4.1172,-4.1172,-4.1172,-4.1172,-4.1172,-4.1172,-4.1172,-4.1172,-4.1172,-4.1172,-4.1172,-4.1172,-4.1172,-4.1172,-4.1308,-4.1699,-4.1797,-4.2109,-4.293,-4.3066,-4.3242,-4.3652,-4.3711,-4.3711,-4.3711,-4.3711,-4.3711,-4.3711,-4.3711,-4.3711,-4.3711,-4.3711,-4.3711,-4.3711,-4.3711,-4.3711,-4.3711,-4.3711,-4.3711,-4.3711,-4.3711,-4.3711,-3.8115,-3.9998,-4.2007,-4.3313,-4.4593,-4.5773,-4.6677,-4.7581,-4.8385,-4.8962,-4.9063,-4.9063,-4.9063,-4.9188,-4.949,-5.0042,-5.0117,-5.0243,-5.0619,-5.067,-5.0413,-4.9709,-5.0563,-5.0814,-4.9723,-5.0395,-5.0577,-4.9961,-4.9005,-4.8064,-4.7237,-4.5683,-4.4352,-4.3213,-4.1947,-4.0904,-4.0117,-3.9824,-3.9961,-4.0527,-4.0684,-4.0898,-4.1172,-4.1172,-4.1172,-4.1172,-4.1172,-4.1172,-4.1172,-4.1172,-4.1269,-4.1387,-4.123,-4.1269,-4.1387,-4.123,-4.1172,-4.1172,-4.1172,-4.1172,-4.1172,-4.1172,-4.1172,-4.1172,-4.1172,-4.1172,-4.1172,-4.1172,-4.1172,-4.1172,-4.1172,-4.1172,-4.1172,-4.1172,-4.1387,-4.1582,-4.1582,-4.1367,-4.1172,-4.1172,-4.1387,-4.1582,-4.1582,-4.1797,-4.2031,-4.2187,-4.2441,-4.2734,-4.3047,-4.332,-4.3535,-4.3691,-4.3711,-4.3711,-4.3711,-4.3711,-4.3711,-4.3711,-4.3711,-4.3711,-4.3711,-4.3711,-4.3711,-4.3711,-4.3711,-4.3711,-4.3711,-4.3711,-4.3711,-4.3711,-4.3711,-4.3711,-3.6584,-3.799,-3.9672,-4.083,-4.2158,-4.3589,-4.4895,-4.6175,-4.7355,-4.8284,-4.8636,-4.8837,-4.9012,-4.949,-4.9992,-5.0368,-5.0569,-5.0845,-5.1222,-5.1272,-5.108,-5.0414,-5.1188,-5.1315,-5.0332,-5.0631,-5.0435,-4.9413,-4.8209,-4.7038,-4.5832,-4.4654,-4.347,-4.2196,-4.1052,-4.0164,-3.9453,-3.9277,-3.9492,-4.0078,-4.0371,-4.0762,-4.1172,-4.1172,-4.125,-4.1387,-4.123,-4.1172,-4.1172,-4.1172,-4.1172,-4.1172,-4.1172,-4.1172,-4.1172,-4.1172,-4.1172,-4.1172,-4.1172,-4.1172,-4.1172,-4.1172,-4.1172,-4.1172,-4.1172,-4.1172,-4.1172,-4.1172,-4.1172,-4.1172,-4.1172,-4.1172,-4.1172,-4.1172,-4.1484,-4.1797,-4.1797,-4.1699,-4.1601,-4.1601,-4.1816,-4.2012,-4.2012,-4.2246,-4.248,-4.2617,-4.2891,-4.3125,-4.3262,-4.3535,-4.3711,-4.3711,-4.3711,-4.3711,-4.3711,-4.3711,-4.3711,-4.3711,-4.3711,-4.3711,-4.3711,-4.3711,-4.3711,-4.3711,-4.3711,-4.3711,-4.3711,-4.3711,-4.3711,-4.3711,-4.3711,-4.3711,0.0,0.0,0.0,-3.8492,-3.9572,-4.0852,-4.2484,-4.4192,-4.5874,-4.7531,-4.8335,-4.8912,-4.949,-5.0042,-5.0419,-5.0419,-5.0921,-5.1322,-5.1322,-5.1322,-5.1322,-5.1297,-5.18,-5.1965,-5.1507,-5.1313,-5.0553,-4.9008,-4.7822,-4.6352,-4.431,-4.3801,-4.2651,-4.0579,-3.9657,-3.9004,-3.8574,-3.8984,-3.9199,-3.9238,-4.0098,-4.0742,-4.1191,-4.1172,-4.1406,-4.1777,-4.1348,-4.1172,-4.1172,-4.1172,-4.1172,-4.1172,-4.1172,-4.1172,-4.1191,-4.1172,-4.1172,-4.1191,-4.1172,-4.1172,-4.1172,-4.1172,-4.1172,-4.1172,-4.1172,-4.1172,-4.1172,-4.1172,-4.1172,-4.1172,-4.1172,-4.1191,-4.1191,-4.1191,-4.1523,-4.1836,-4.1836,-4.2168,-4.2461,-4.2422,-4.2441,-4.2441,-4.2441,-4.2461,-4.2617,-4.3027,-4.3105,-4.3242,-4.3652,-4.3711,-4.3711,-4.3711,-4.3711,-4.3711,-4.3711,-4.3711,-4.3711,-4.3711,-4.3711,-4.3711,-4.3711,-4.3711,-4.3711,-4.3711,-4.3711,-4.3711,-4.3711,-4.3711,-4.3711,-4.3711,-4.3711,-4.3711,-3.3897,0.0,0.0,0.0,0.0,0.0,-3.9722,-4.1907,-4.4267,-4.6326,-4.7506,-4.8435,-4.9414,-5.0042,-5.0419,-5.0419,-5.1247,-5.2026,-5.2427,-5.2477,-5.2327,-5.1925,-5.2377,-5.2391,-5.1557,-5.1313,-5.0553,-4.9031,-4.7822,-4.6448,-4.473,-4.3359,-4.2023,-4.0559,-3.9974,-3.9298,-3.8574,-3.8691,-3.9062,-3.9707,-3.9961,-4.0625,-4.1621,-4.1308,-4.1406,-4.1777,-4.1348,-4.1172,-4.1172,-4.1172,-4.1172,-4.1172,-4.1172,-4.1367,-4.1582,-4.1289,-4.1367,-4.1582,-4.1289,-4.1172,-4.1172,-4.1172,-4.1172,-4.1172,-4.1172,-4.1172,-4.1172,-4.1172,-4.1172,-4.1172,-4.1172,-4.1406,-4.1621,-4.1621,-4.2187,-4.2715,-4.2715,-4.3047,-4.3164,-4.2539,-4.2676,-4.2891,-4.2891,-4.3144,-4.3398,-4.3516,-4.3535,-4.3574,-4.3691,-4.3711,-4.3711,-4.3711,-4.3711,-4.3711,-4.3711,-4.3711,-4.3711,-4.3711,-4.3711,-4.3711,-4.3711,-4.3711,-4.3711,-4.3711,-4.3711,-4.3711,-4.3711,-4.3711,-4.3711,-4.3711,-4.3711,-4.3711,-3.3262,-3.3319,-3.3621,-3.3847,0.0,0.0,-3.7864,-3.9948,-4.2233,-4.4468,-4.5773,-4.6878,-4.8008,-4.8686,-4.9038,-4.9038,-5.0167,-5.1423,-5.2427,-5.2779,-5.2804,-5.2477,-5.2729,-5.2666,-5.2111,-5.1738,-5.0835,-4.9438,-4.8476,-4.709,-4.5181,-4.3144,-4.1718,-4.1008,-4.0091,-3.9439,-3.9141,-3.8921,-3.9199,-3.9902,-4.0078,-4.0742,-4.1777,-4.1367,-4.1504,-4.2031,-4.1426,-4.1172,-4.1172,-4.1172,-4.1172,-4.1172,-4.1172,-4.1426,-4.1777,-4.1523,-4.1582,-4.1758,-4.1523,-4.1328,-4.1172,-4.1172,-4.1172,-4.1172,-4.1172,-4.1172,-4.1172,-4.1172,-4.1172,-4.1172,-4.1172,-4.1484,-4.1797,-4.1797,-4.2461,-4.3086,-4.3086,-4.3418,-4.3555,-4.3047,-4.3164,-4.334,-4.334,-4.3535,-4.3711,-4.3711,-4.3711,-4.3711,-4.3711,-4.3711,-4.3711,-4.3711,-4.3711,-4.3711,-4.3711,-4.3711,-4.3711,-4.3711,-4.3711,-4.3711,-4.3711,-4.3711,-4.3711,-4.3711,-4.3711,-4.3711,-4.3711,-4.3711,-4.3711,-4.3711,-4.3711,-4.3711,-3.3219,-3.3111,-3.3194,-3.3696,-3.4223,0.0,-3.6483,-3.8115,-3.9923,-4.1982,-4.3363,-4.4518,-4.5648,-4.6301,-4.6677,-4.6677,-4.8109,-4.9866,-5.1674,-5.2452,-5.2854,-5.2929,-5.2929,-5.2929,-5.2929,-5.2283,-5.1397,-5.0198,-4.9295,-4.7822,-4.563,-4.3192,-4.1826,-4.1751,-4.0144,-3.95,-3.9804,-3.9436,-3.9504,-3.9975,-4.0406,-4.115,-4.2014,-4.1601,-4.1857,-4.2543,-4.17,-4.1327,-4.125,-4.125,-4.1172,-4.1172,-4.1172,-4.1465,-4.1855,-4.1816,-4.1836,-4.1855,-4.1816,-4.1523,-4.1172,-4.1172,-4.1172,-4.1172,-4.1172,-4.1172,-4.1172,-4.1172,-4.1172,-4.1172,-4.1172,-4.1523,-4.1875,-4.1875,-4.2519,-4.3144,-4.3144,-4.3437,-4.3711,-4.3711,-4.3711,-4.3711,-4.3711,-4.3711,-4.3711,-4.3711,-4.3711,-4.3711,-4.3711,-4.3711,-4.3711,-4.3711,-4.3711,-4.3711,-4.3711,-4.3711,-4.3711,-4.3711,-4.3711,-4.3711,-4.3711,-4.3711,-4.3711,-4.3711,-4.3711,-4.3711,-4.3711,-4.3711,-4.3711,-4.3711,-4.3711,-4.3711,-3.3119,-3.3111,-3.3136,-3.3219,-3.3646,0.0,-3.4474,-3.583,-3.7436,-3.8693,-4.0224,-4.1656,-4.276,-4.3413,-4.379,-4.379,-4.5573,-4.7832,-5.0393,-5.1624,-5.2427,-5.2879,-5.2929,-5.2929,-5.2929,-5.2515,-5.1911,-5.1022,-4.9079,-4.7507,-4.6448,-4.428,-4.2816,-4.2175,-4.08,-3.9991,-3.971,-3.9618,-3.9858,-4.0298,-4.111,-4.213,-4.3326,-4.3208,-4.3494,-4.3954,-4.2674,-4.2005,-4.1695,-4.1327,-4.1172,-4.1172,-4.1172,-4.1641,-4.2266,-4.1933,-4.2012,-4.2266,-4.1914,-4.1523,-4.1172,-4.1172,-4.1172,-4.1172,-4.1172,-4.1172,-4.1172,-4.1172,-4.1172,-4.1172,-4.1172,-4.1738,-4.2305,-4.2305,-4.2949,-4.3574,-4.3574,-4.3652,-4.3711,-4.3711,-4.3711,-4.3711,-4.3711,-4.3711,-4.3711,-4.3711,-4.3711,-4.3711,-4.3711,-4.3711,-4.3711,-4.3711,-4.3711,-4.3711,-4.3711,-4.3711,-4.3711,-4.3711,-4.3711,-4.3711,-4.3711,-4.3711,-4.3711,-4.3711,-4.3711,-4.3711,-4.3711,-4.3711,-4.3711,-4.3711,-4.3711,-4.3711,-3.3897,-3.3696,-3.3495,-3.3495,-3.3495,0.0,0.0,-3.4751,-3.5855,-3.6985,-3.809,-3.9195,-4.0352,-4.0805,-4.1028,-4.1304,-4.3212,-4.5321,-4.7255,-4.9941,-5.2,-5.2829,-5.2929,-5.2929,-5.2929,-5.2723,-5.2421,-5.1841,-5.0151,-4.8792,-4.8091,-4.5477,-4.3743,-4.3182,-4.1286,-4.036,-4.0347,-4.0351,-4.0693,-4.136,-4.2459,-4.3518,-4.4523,-4.4673,-4.4766,-4.4836,-4.333,-4.2454,-4.2062,-4.1169,-4.0976,-4.1172,-4.1172,-4.168,-4.2402,-4.2187,-4.2246,-4.2402,-4.2187,-4.1699,-4.1172,-4.1172,-4.1172,-4.1172,-4.1172,-4.1172,-4.1172,-4.1172,-4.1172,-4.1172,-4.1172,-4.1797,-4.2422,-4.2422,-4.3086,-4.3711,-4.3711,-4.3711,-4.3711,-4.3711,-4.3711,-4.3711,-4.3711,-4.3711,-4.3711,-4.3711,-4.3711,-4.3711,-4.3711,-4.3711,-4.3711,-4.3711,-4.3711,-4.3711,-4.3711,-4.3711,-4.3711,-4.3711,-4.3711,-4.3711,-4.3711,-4.3711,-4.3711,-4.3711,-4.3711,-4.3711,-4.3711,-4.3711,-4.3711,-4.3711,-4.3711,-4.3711,-3.468,-3.4399,-3.4022,-3.3922,-3.3571,-3.3319,0.0,0.0,0.0,-3.5579,-3.6182,-3.6835,-3.7788,-3.809,-3.8391,-3.8818,-4.0752,-4.261,-4.3815,-4.738,-5.0444,-5.2101,-5.2377,-5.2477,-5.2603,-5.2735,-5.2654,-5.2213,-5.1257,-5.0387,-4.9533,-4.6627,-4.472,-4.4257,-4.1928,-4.0904,-4.1273,-4.1325,-4.1766,-4.2508,-4.3823,-4.4826,-4.5621,-4.6142,-4.6111,-4.5524,-4.4006,-4.3139,-4.2657,-4.1396,-4.1053,-4.1445,-4.1289,-4.168,-4.2422,-4.2422,-4.248,-4.2558,-4.2558,-4.1992,-4.1289,-4.1289,-4.125,-4.1172,-4.1172,-4.1172,-4.1172,-4.1172,-4.1172,-4.1172,-4.1172,-4.1797,-4.2422,-4.2422,-4.3086,-4.3711,-4.3711,-4.3711,-4.3711,-4.3711,-4.3711,-4.3711,-4.3711,-4.3711,-4.3711,-4.3711,-4.3711,-4.3711,-4.3711,-4.3711,-4.3711,-4.3711,-4.3711,-4.3711,-4.3711,-4.3711,-4.3711,-4.3711,-4.3711,-4.3711,-4.3711,-4.3711,-4.3711,-4.3711,-4.3711,-4.3711,-4.3711,-4.3711,-4.3711,-4.3711,-4.3711,-4.3711,-3.468,-3.4675,-3.45,-3.4022,-3.3847,-3.3696,-3.3269,0.0,-3.3294,-3.3463,0.0,-3.4299,-3.4449,0.0,0.0,-3.5959,-3.7889,-3.9898,-4.1426,-4.3413,-4.5974,-4.954,-5.0393,-5.0896,-5.1423,-5.2079,-5.2144,-5.1352,-5.1211,-5.0648,-4.958,-4.7493,-4.5973,-4.5194,-4.3162,-4.2124,-4.2186,-4.2154,-4.2564,-4.3319,-4.4543,-4.5589,-4.629,-4.7518,-4.7422,-4.6144,-4.5376,-4.4581,-4.3801,-4.2637,-4.2184,-4.2249,-4.1464,-4.168,-4.2422,-4.2422,-4.2676,-4.3008,-4.3008,-4.2441,-4.1738,-4.1738,-4.1484,-4.1172,-4.1172,-4.1172,-4.1172,-4.1172,-4.1172,-4.1172,-4.1172,-4.1797,-4.2422,-4.2422,-4.3086,-4.3711,-4.3711,-4.3711,-4.3711,-4.3711,-4.3711,-4.3711,-4.3711,-4.3711,-4.3711,-4.3711,-4.3711,-4.3711,-4.3711,-4.3711,-4.3711,-4.3711,-4.3711,-4.3711,-4.3711,-4.3711,-4.3711,-4.3711,-4.3711,-4.3711,-4.3711,-4.3711,-4.3711,-4.3711,-4.3711,-4.3711,-4.3711,-4.3711,-4.3711,-4.3711,-4.3711,-4.3711,-3.6634,-3.6157,-3.5604,-3.5424,-3.4851,-3.4223,-3.3671,-3.3545,-3.3545,-3.3545,0.0,0.0,0.0,0.0,0.0,0.0,-3.7337,-3.8743,-3.9772,-4.1053,-4.3338,-4.723,-4.8435,-4.9375,-5.0406,-5.0733,-5.0742,-5.0381,-5.0416,-5.0237,-4.9769,-4.8094,-4.6811,-4.6061,-4.3562,-4.2322,-4.2322,-4.2518,-4.3141,-4.4172,-4.5587,-4.6785,-4.7788,-4.885,-4.8824,-4.7819,-4.6582,-4.5845,-4.5266,-4.3338,-4.2621,-4.2799,-4.1915,-4.1758,-4.209,-4.2344,-4.2383,-4.2363,-4.2617,-4.2148,-4.1426,-4.1426,-4.1308,-4.1172,-4.1172,-4.1172,-4.1172,-4.1172,-4.1172,-4.1172,-4.1172,-4.1797,-4.2422,-4.2422,-4.3086,-4.3711,-4.3711,-4.3711,-4.3711,-4.3711,-4.3711,-4.3711,-4.3711,-4.3711,-4.3711,-4.3711,-4.3711,-4.3711,-4.3711,-4.3711,-4.3711,-4.3711,-4.3711,-4.3711,-4.3711,-4.3711,-4.3711,-4.3711,-4.3711,-4.3711,-4.3711,-4.3711,-4.3711,-4.3711,-4.3711,-4.3711,-4.3711,-4.3711,-4.3711,-4.3711,-4.3711,-4.3711,-3.7864,-3.7312,-3.6832,-3.6681,-3.5881,-3.4977,-3.4274,-3.4123,-3.4073,-3.3922,-3.4022,0.0,0.0,0.0,-3.5583,-3.5881,0.0,-3.7688,-3.8165,-3.8994,-4.0927,-4.4518,-4.6301,-4.7721,-4.8983,-4.9108,-4.914,-4.9126,-4.9184,-4.9246,-4.949,-4.831,-4.7367,-4.6762,-4.4552,-4.3289,-4.3141,-4.3327,-4.3996,-4.5257,-4.653,-4.7689,-4.8874,-5.0028,-5.0035,-4.9105,-4.7882,-4.7371,-4.7076,-4.4721,-4.3871,-4.382,-4.2901,-4.2289,-4.1994,-4.2306,-4.2226,-4.2031,-4.2461,-4.2051,-4.1328,-4.1211,-4.1172,-4.1172,-4.1172,-4.1172,-4.1172,-4.1172,-4.1172,-4.1211,-4.1308,-4.1894,-4.2461,-4.2578,-4.3164,-4.3711,-4.3711,-4.3711,-4.3711,-4.3711,-4.3711,-4.3711,-4.3711,-4.3711,-4.3711,-4.3711,-4.3711,-4.3711,-4.3711,-4.3711,-4.3711,-4.3711,-4.3711,-4.3711,-4.3711,-4.3711,-4.3711,-4.3711,-4.3711,-4.3711,-4.3711,-4.3711,-4.3711,-4.3711,-4.3711,-4.3711,-4.3711,-4.3711,-4.3711,-4.3711,-4.3711,-4.3711,-3.7513,-3.7563,-3.7814,-3.7287,-3.6782,-3.6078,-3.4951,-3.4655,-3.455,-3.3997,-3.4324,-3.4655,-3.4751,-3.5132,-3.5332,-3.4851,-3.5705,0.0,0.0,-3.6983,-3.8341,-4.1125,-4.3915,-4.596,-4.6918,-4.7262,-4.7474,-4.7588,-4.7482,-4.7652,-4.8291,-4.7974,-4.7679,-4.7456,-4.6433,-4.5661,-4.5287,-4.4934,-4.5309,-4.6574,-4.7338,-4.8249,-4.9343,-5.0968,-5.0974,-4.9631,-4.9382,-4.9416,-4.9314,-4.7312,-4.6311,-4.5969,-4.4762,-4.3546,-4.2336,-4.2427,-4.2422,-4.2461,-4.291,-4.25,-4.1719,-4.1308,-4.1172,-4.1172,-4.1172,-4.1172,-4.1172,-4.1172,-4.1172,-4.1269,-4.168,-4.2109,-4.2539,-4.2949,-4.3398,-4.3711,-4.3711,-4.3711,-4.3711,-4.3711,-4.3711,-4.3711,-4.3711,-4.3711,-4.3711,-4.3711,-4.3711,-4.3711,-4.3711,-4.3711,-4.3711,-4.3711,-4.3711,-4.3711,-4.3711,-4.3711,-4.3711,-4.3711,-4.3711,-4.3711,-4.3711,-4.3711,-4.3711,-4.3711,-4.3711,-4.3711,-4.3711,-4.3711,-4.3711,-4.3711,-4.3711,-4.3711,-3.9597,-3.9521,-3.9622,-3.9446,-3.8693,-3.7814,-3.7061,-3.6358,-3.578,-3.5579,-3.5378,-3.5332,-3.573,-3.5956,-3.6031,-3.583,-3.6179,-3.6405,0.0,-3.6581,-3.7262,-3.8944,-4.158,-4.3469,-4.3952,-4.4415,-4.4639,-4.4581,-4.4953,-4.5532,-4.6384,-4.7442,-4.8041,-4.8075,-4.7705,-4.7338,-4.692,-4.6033,-4.6181,-4.7406,-4.7436,-4.826,-4.9715,-5.0881,-5.122,-5.0737,-5.0438,-5.0607,-5.0986,-4.9113,-4.8281,-4.7999,-4.5882,-4.4475,-4.3483,-4.2976,-4.2604,-4.2443,-4.2603,-4.2463,-4.2106,-4.1755,-4.1618,-4.156,-4.125,-4.1172,-4.1172,-4.1172,-4.1172,-4.1269,-4.1699,-4.2109,-4.2539,-4.2969,-4.3398,-4.3711,-4.3711,-4.3711,-4.3711,-4.3711,-4.3711,-4.3711,-4.3711,-4.3711,-4.3711,-4.3711,-4.3711,-4.3711,-4.3711,-4.3711,-4.3711,-4.3711,-4.3711,-4.3711,-4.3711,-4.3711,-4.3711,-4.3711,-4.3711,-4.3711,-4.3711,-4.3711,-4.3711,-4.3711,-4.3711,-4.3711,-4.3711,-4.3711,-4.3711,-4.3711,-4.3711,-4.3711,-4.0727,-4.0651,-4.0749,-4.0749,-4.0124,-3.932,-3.8743,-3.7914,-3.7161,-3.6782,-3.6383,-3.6182,-3.638,-3.6405,-3.6355,-3.6107,-3.6279,-3.6405,0.0,-3.6207,-3.6408,-3.7312,-3.9573,-4.1171,-4.1563,-4.1875,-4.2137,-4.2384,-4.2646,-4.3469,-4.5024,-4.673,-4.7943,-4.8519,-4.8944,-4.8864,-4.8381,-4.6971,-4.692,-4.8013,-4.782,-4.8566,-5.0095,-5.1321,-5.1975,-5.2151,-5.1718,-5.2,-5.2543,-5.0962,-5.0066,-4.9428,-4.7295,-4.5923,-4.4902,-4.3494,-4.2873,-4.2591,-4.243,-4.237,-4.237,-4.2082,-4.1927,-4.1773,-4.1483,-4.1327,-4.1172,-4.1172,-4.1289,-4.1484,-4.1914,-4.2344,-4.2773,-4.3203,-4.3496,-4.3711,-4.3711,-4.3711,-4.3711,-4.3711,-4.3828,-4.3906,-4.373,-4.3848,-4.3887,-4.373,-4.3711,-4.3711,-4.3711,-4.3711,-4.3711,-4.3711,-4.3711,-4.3711,-4.3711,-4.3711,-4.3711,-4.3711,-4.3711,-4.3711,-4.3711,-4.3711,-4.3711,-4.3711,-4.3711,-4.3711,-4.3711,-4.3711,-4.3711,-4.3711,-4.3711,-4.3711]},{"header":{"parameterUnit":"m.s-1","parameterCategory":1,"la1":30.6,"la2":29.2853,"lo1":-89.7004,"lo2":-87.6739,"dy":0.0162,"dx":0.0183,"nx":112,"ny":82,"refTime":"2026-03-29T12:00:00:Z","depth":0,"parameterNumber":3,"parameterNumberName":"V-component_of_WINDS"},"data":[0.0,0.0,0.0,0.0,0.0,0.0,0.0,0.0,0.0,0.0,0.0,0.0,0.0,0.0,0.0,0.0,0.0,0.0,0.0,0.0,0.0,0.0,0.0,0.0,0.0,0.0,0.0,0.0,0.0,0.0,0.0,0.0,0.0,0.0,0.0,0.0,0.0,0.0,0.0,0.0,0.0,0.0,0.0,0.0,0.0,0.0,0.0,0.0,0.0,0.0,0.0,0.0,0.0,0.0,0.0,0.0,0.0,0.0,0.0,0.0,0.0,0.0,0.0,0.0,0.0,0.0,0.0,0.0,0.0,0.0,0.0,0.0,0.0,0.0,0.0,0.0,0.0,0.0,0.0,0.0,0.0,0.0,0.0,0.0,0.0,0.0,0.0,0.0,0.0,0.0,3.166,3.4687,3.793,3.9531,3.8652,3.8242,3.6914,3.4336,0.0,0.0,0.0,0.0,0.0,0.0,0.0,0.0,0.0,0.0,0.0,0.0,0.0,0.0,0.0,0.0,0.0,0.0,0.0,0.0,0.0,0.0,0.0,0.0,0.0,0.0,0.0,0.0,0.0,0.0,0.0,0.0,0.0,0.0,0.0,0.0,0.0,0.0,0.0,0.0,0.0,0.0,0.0,0.0,0.0,0.0,0.0,0.0,0.0,0.0,0.0,0.0,0.0,0.0,0.0,0.0,0.0,0.0,0.0,0.0,0.0,0.0,0.0,0.0,0.0,0.0,0.0,0.0,0.0,0.0,0.0,0.0,0.0,0.0,0.0,0.0,0.0,0.0,0.0,0.0,0.0,0.0,0.0,0.0,0.0,0.0,0.0,0.0,0.0,0.0,0.0,0.0,0.0,0.0,0.0,0.0,0.0,0.0,0.0,0.0,0.0,0.0,0.0,0.0,3.3027,3.6055,3.8476,3.9531,3.8652,3.8516,3.7363,3.4766,0.0,0.0,0.0,0.0,0.0,0.0,0.0,0.0,0.0,0.0,0.0,0.0,0.0,0.0,0.0,0.0,0.0,0.0,0.0,0.0,0.0,0.0,0.0,0.0,0.0,0.0,0.0,0.0,0.0,0.0,0.0,0.0,0.0,0.0,0.0,0.0,0.0,0.0,0.0,0.0,0.0,0.0,0.0,0.0,0.0,0.0,0.0,0.0,0.0,0.0,0.0,0.0,0.0,0.0,0.0,0.0,0.0,0.0,0.0,0.0,0.0,0.0,0.0,0.0,0.0,0.0,0.0,0.0,0.0,0.0,0.0,0.0,0.0,0.0,0.0,0.0,0.0,0.0,0.0,0.0,0.0,0.0,0.0,0.0,0.0,0.0,0.0,0.0,0.0,0.0,0.0,0.0,0.0,0.0,0.0,0.0,0.0,0.0,0.0,0.0,0.0,0.0,0.0,3.3871,3.6057,3.7162,3.9248,4.0082,3.897,3.8672,3.7332,3.4675,3.1762,0.0,0.0,0.0,0.0,0.0,0.0,0.0,0.0,0.0,0.0,0.0,0.0,0.0,0.0,0.0,0.0,0.0,0.0,0.0,0.0,0.0,0.0,0.0,0.0,0.0,0.0,0.0,0.0,0.0,0.0,0.0,0.0,0.0,0.0,0.0,0.0,0.0,0.0,0.0,0.0,0.0,0.0,0.0,0.0,0.0,0.0,0.0,0.0,0.0,0.0,0.0,0.0,0.0,0.0,0.0,0.0,0.0,0.0,0.0,0.0,0.0,0.0,0.0,0.0,0.0,0.0,0.0,0.0,0.0,0.0,0.0,0.0,0.0,0.0,0.0,0.0,0.0,0.0,0.0,0.0,0.0,0.0,0.0,0.0,0.0,0.0,0.0,0.0,0.0,0.0,0.0,0.0,0.0,0.0,0.0,0.0,0.0,0.0,0.0,0.0,0.0,0.0,3.7277,3.9124,3.9082,4.074,4.1357,3.993,3.9265,3.7662,3.4696,3.1707,0.0,0.0,0.0,0.0,0.0,0.0,0.0,0.0,0.0,0.0,0.0,0.0,0.0,0.0,0.0,0.0,0.0,0.0,0.0,0.0,0.0,0.0,0.0,0.0,0.0,0.0,0.0,0.0,0.0,0.0,0.0,0.0,0.0,0.0,0.0,0.0,0.0,0.0,0.0,0.0,0.0,0.0,0.0,0.0,0.0,0.0,0.0,0.0,0.0,0.0,0.0,0.0,0.0,0.0,0.0,0.0,0.0,0.0,0.0,0.0,0.0,0.0,0.0,0.0,0.0,0.0,0.0,0.0,0.0,0.0,0.0,0.0,0.0,0.0,0.0,0.0,0.0,0.0,0.0,0.0,0.0,0.0,0.0,0.0,0.0,0.0,0.0,0.0,0.0,0.0,0.0,0.0,0.0,0.0,0.0,0.0,0.0,0.0,0.0,0.0,0.0,0.0,3.9561,4.1325,4.2678,4.3698,4.367,4.2189,4.1031,3.8766,3.5015,3.1975,0.0,0.0,0.0,0.0,0.0,0.0,0.0,0.0,0.0,0.0,0.0,0.0,0.0,0.0,0.0,0.0,0.0,0.0,0.0,0.0,0.0,0.0,0.0,0.0,0.0,0.0,0.0,0.0,0.0,0.0,0.0,0.0,0.0,0.0,0.0,0.0,0.0,0.0,0.0,0.0,0.0,0.0,0.0,0.0,0.0,0.0,0.0,0.0,0.0,0.0,0.0,0.0,0.0,0.0,0.0,0.0,0.0,0.0,0.0,0.0,0.0,0.0,0.0,0.0,0.0,0.0,0.0,0.0,0.0,0.0,0.0,0.0,0.0,0.0,0.0,0.0,0.0,0.0,0.0,0.0,0.0,0.0,0.0,0.0,0.0,0.0,0.0,0.0,0.0,0.0,0.0,0.0,0.0,0.0,0.0,0.0,0.0,0.0,0.0,0.0,0.0,0.0,4.1432,4.3105,4.3349,4.4505,4.4502,4.2726,4.1617,3.9481,3.6027,0.0,0.0,0.0,0.0,0.0,0.0,0.0,0.0,0.0,0.0,0.0,0.0,0.0,0.0,0.0,0.0,0.0,0.0,0.0,0.0,0.0,0.0,0.0,0.0,0.0,0.0,0.0,0.0,0.0,0.0,0.0,0.0,0.0,0.0,0.0,0.0,0.0,0.0,0.0,0.0,0.0,0.0,0.0,0.0,0.0,0.0,0.0,0.0,0.0,0.0,0.0,0.0,0.0,0.0,0.0,0.0,0.0,0.0,0.0,0.0,0.0,0.0,0.0,0.0,0.0,0.0,0.0,0.0,0.0,0.0,0.0,0.0,0.0,0.0,0.0,0.0,0.0,0.0,0.0,0.0,0.0,0.0,0.0,0.0,0.0,0.0,0.0,0.0,0.0,0.0,0.0,0.0,0.0,0.0,0.0,0.0,0.0,0.0,0.0,0.0,0.0,0.0,4.0845,4.363,4.5362,4.5339,4.6427,4.638,4.4483,4.3257,4.1169,3.7702,0.0,0.0,0.0,0.0,0.0,0.0,0.0,0.0,0.0,0.0,0.0,0.0,0.0,0.0,0.0,0.0,0.0,0.0,0.0,0.0,0.0,0.0,0.0,0.0,0.0,0.0,0.0,0.0,0.0,0.0,0.0,0.0,0.0,0.0,0.0,0.0,0.0,0.0,0.0,0.0,0.0,0.0,0.0,0.0,0.0,0.0,0.0,0.0,0.0,0.0,0.0,0.0,0.0,0.0,0.0,0.0,0.0,0.0,0.0,0.0,0.0,0.0,0.0,0.0,0.0,0.0,0.0,0.0,0.0,0.0,0.0,0.0,0.0,0.0,0.0,0.0,0.0,0.0,0.0,0.0,0.0,0.0,0.0,0.0,0.0,0.0,0.0,0.0,0.0,0.0,0.0,0.0,0.0,0.0,0.0,0.0,0.0,0.0,0.0,0.0,0.0,0.0,4.329,4.613,4.8158,4.9173,4.9854,4.9534,4.7952,4.6327,4.3811,0.0,0.0,0.0,0.0,0.0,0.0,0.0,0.0,0.0,0.0,0.0,0.0,0.0,0.0,0.0,0.0,0.0,0.0,0.0,0.0,0.0,0.0,0.0,0.0,0.0,0.0,0.0,0.0,0.0,0.0,0.0,0.0,0.0,0.0,0.0,0.0,0.0,0.0,0.0,0.0,0.0,0.0,0.0,0.0,0.0,0.0,0.0,0.0,0.0,0.0,0.0,0.0,0.0,0.0,0.0,0.0,0.0,0.0,0.0,0.0,0.0,0.0,0.0,0.0,0.0,0.0,0.0,0.0,0.0,0.0,0.0,0.0,0.0,0.0,0.0,0.0,0.0,0.0,0.0,0.0,0.0,0.0,0.0,0.0,0.0,0.0,0.0,0.0,0.0,0.0,0.0,0.0,0.0,0.0,0.0,0.0,0.0,0.0,0.0,0.0,0.0,0.0,0.0,4.3507,4.6537,4.8453,4.8772,4.9657,4.9534,4.7952,4.7016,4.4999,4.1371,0.0,0.0,0.0,0.0,0.0,0.0,0.0,0.0,0.0,0.0,0.0,0.0,0.0,0.0,0.0,0.0,0.0,0.0,0.0,0.0,0.0,0.0,0.0,0.0,0.0,0.0,0.0,0.0,0.0,0.0,0.0,0.0,0.0,0.0,0.0,0.0,0.0,0.0,0.0,0.0,0.0,0.0,0.0,0.0,0.0,0.0,0.0,0.0,0.0,0.0,0.0,0.0,0.0,0.0,0.0,0.0,0.0,0.0,0.0,0.0,0.0,0.0,0.0,0.0,0.0,0.0,0.0,0.0,0.0,0.0,0.0,0.0,0.0,0.0,0.0,0.0,0.0,0.0,0.0,0.0,0.0,0.0,0.0,0.0,0.0,0.0,0.0,0.0,0.0,0.0,0.0,0.0,0.0,0.0,0.0,0.0,0.0,0.0,0.0,0.0,0.0,0.0,4.3829,4.7035,4.9041,4.9264,5.0281,5.0355,4.8958,4.8536,4.6786,4.3095,0.0,0.0,0.0,0.0,0.0,0.0,0.0,0.0,0.0,0.0,0.0,0.0,0.0,0.0,0.0,0.0,0.0,0.0,0.0,0.0,0.0,0.0,0.0,0.0,0.0,0.0,0.0,0.0,0.0,0.0,0.0,0.0,0.0,0.0,0.0,0.0,0.0,0.0,0.0,0.0,0.0,0.0,0.0,0.0,0.0,0.0,0.0,0.0,0.0,0.0,0.0,0.0,0.0,0.0,0.0,0.0,0.0,0.0,0.0,0.0,0.0,0.0,0.0,0.0,0.0,0.0,0.0,0.0,0.0,0.0,0.0,0.0,0.0,0.0,0.0,0.0,0.0,0.0,0.0,0.0,0.0,0.0,0.0,0.0,0.0,0.0,0.0,0.0,0.0,0.0,0.0,0.0,0.0,0.0,0.0,0.0,0.0,0.0,0.0,0.0,0.0,0.0,4.4174,4.7593,4.992,5.0409,5.149,5.1716,5.0585,5.0434,4.88,4.5003,0.0,0.0,0.0,0.0,0.0,0.0,0.0,0.0,0.0,0.0,0.0,0.0,0.0,0.0,0.0,0.0,0.0,0.0,0.0,0.0,0.0,0.0,0.0,0.0,0.0,0.0,0.0,0.0,0.0,0.0,0.0,0.0,0.0,0.0,0.0,0.0,0.0,0.0,0.0,0.0,0.0,0.0,0.0,0.0,0.0,0.0,0.0,0.0,0.0,0.0,0.0,0.0,0.0,0.0,0.0,0.0,0.0,0.0,0.0,0.0,4.1625,4.0175,0.0,0.0,0.0,0.0,0.0,0.0,0.0,0.0,0.0,0.0,0.0,0.0,0.0,0.0,0.0,0.0,0.0,0.0,0.0,0.0,0.0,0.0,0.0,0.0,0.0,0.0,0.0,0.0,0.0,0.0,0.0,0.0,0.0,0.0,0.0,0.0,0.0,0.0,0.0,0.0,4.4832,4.8329,5.0627,5.1214,5.2287,5.2491,5.1368,5.0857,4.93,4.6178,4.3182,0.0,0.0,0.0,0.0,0.0,0.0,0.0,0.0,0.0,0.0,0.0,0.0,0.0,0.0,0.0,0.0,0.0,0.0,0.0,0.0,0.0,0.0,0.0,0.0,0.0,0.0,0.0,0.0,0.0,0.0,0.0,0.0,0.0,0.0,0.0,0.0,0.0,0.0,0.0,0.0,0.0,0.0,0.0,0.0,0.0,0.0,0.0,0.0,0.0,0.0,0.0,0.0,0.0,0.0,0.0,0.0,0.0,0.0,0.0,4.5395,4.3607,0.0,0.0,0.0,0.0,0.0,0.0,0.0,0.0,0.0,0.0,0.0,0.0,0.0,0.0,0.0,0.0,0.0,0.0,0.0,0.0,0.0,0.0,0.0,0.0,0.0,0.0,0.0,0.0,0.0,0.0,0.0,0.0,0.0,0.0,0.0,0.0,0.0,0.0,0.0,0.0,4.6207,4.9818,5.2322,5.3255,5.4325,5.4536,5.344,5.3071,5.1417,4.7969,4.4915,0.0,0.0,0.0,0.0,0.0,0.0,0.0,0.0,0.0,0.0,0.0,0.0,0.0,0.0,0.0,0.0,0.0,0.0,0.0,0.0,0.0,0.0,0.0,0.0,0.0,0.0,0.0,0.0,0.0,0.0,0.0,0.0,0.0,0.0,0.0,0.0,0.0,0.0,0.0,0.0,0.0,0.0,0.0,0.0,0.0,0.0,0.0,0.0,0.0,0.0,0.0,0.0,0.0,5.3617,5.4355,5.3976,5.5275,5.5388,5.4351,5.0262,4.8499,4.8364,4.7757,0.0,0.0,0.0,0.0,0.0,0.0,0.0,0.0,0.0,0.0,0.0,0.0,0.0,0.0,0.0,0.0,0.0,0.0,0.0,0.0,0.0,0.0,4.9493,5.0745,5.1577,5.0875,4.6481,0.0,0.0,0.0,0.0,0.0,0.0,0.0,0.0,0.0,0.0,0.0,4.7729,5.1431,5.41,5.5189,5.6387,5.6541,5.5407,5.5298,5.37,4.9848,4.6908,4.3677,0.0,0.0,0.0,0.0,0.0,0.0,0.0,0.0,0.0,0.0,0.0,0.0,0.0,0.0,0.0,0.0,0.0,0.0,0.0,0.0,0.0,0.0,0.0,0.0,0.0,0.0,0.0,0.0,0.0,0.0,0.0,0.0,4.1822,4.352,0.0,0.0,0.0,0.0,0.0,0.0,0.0,0.0,0.0,0.0,0.0,0.0,0.0,5.0975,5.2717,5.411,5.5492,5.6899,5.7437,5.836,5.9611,5.8931,5.9129,5.9967,5.819,0.0,5.3258,5.2573,0.0,0.0,0.0,0.0,0.0,0.0,0.0,0.0,0.0,0.0,0.0,0.0,0.0,0.0,0.0,0.0,0.0,0.0,0.0,0.0,0.0,0.0,5.3764,5.5075,5.5849,5.6065,5.5418,5.245,4.9409,4.7643,4.5912,4.3991,0.0,0.0,0.0,0.0,0.0,0.0,4.8425,5.209,5.4626,5.5315,5.6438,5.6658,5.5508,5.5398,5.4176,5.1277,4.8646,4.5982,4.3451,4.0174,0.0,0.0,0.0,0.0,0.0,0.0,0.0,0.0,0.0,0.0,0.0,0.0,0.0,0.0,0.0,0.0,0.0,0.0,0.0,0.0,0.0,0.0,0.0,0.0,0.0,0.0,0.0,0.0,0.0,4.3148,4.5183,4.6595,4.7377,4.7529,0.0,0.0,0.0,0.0,0.0,0.0,0.0,0.0,0.0,5.1846,5.3858,5.5663,5.7261,5.9303,6.0632,6.1339,6.2197,6.2789,6.3114,6.3021,6.3109,6.3288,6.3079,6.1972,6.0086,5.7543,5.5508,5.3773,0.0,0.0,0.0,0.0,5.09,5.2127,5.2785,5.2606,5.1887,5.081,0.0,0.0,0.0,0.0,0.0,0.0,0.0,4.9673,5.2247,5.464,5.6645,5.7603,5.859,5.9249,5.886,5.7363,5.5171,5.1912,4.9833,4.7719,4.4951,4.226,0.0,0.0,0.0,4.7683,5.1052,5.4443,5.6766,5.7223,5.8392,5.8589,5.713,5.7385,5.633,5.336,5.185,4.9803,4.712,4.456,4.2771,0.0,0.0,0.0,0.0,0.0,0.0,0.0,0.0,0.0,0.0,0.0,0.0,0.0,0.0,0.0,0.0,0.0,0.0,0.0,0.0,0.0,0.0,0.0,0.0,0.0,0.0,0.0,0.0,4.6686,4.8581,4.9731,5.0469,5.0515,0.0,0.0,0.0,0.0,0.0,0.0,5.1738,5.2845,5.4132,5.5658,5.7782,5.9608,6.1074,6.3199,6.4336,6.4515,6.5533,6.5832,6.5533,6.5862,6.5832,6.5533,6.5862,6.5742,6.5024,6.1732,5.9189,5.7244,5.5239,5.4341,5.4132,5.3623,5.4311,5.5568,5.6226,5.6137,5.5508,5.4341,5.2606,5.0614,4.8656,0.0,0.0,0.0,0.0,5.2695,5.47,5.7034,5.9069,5.9727,6.0775,6.1373,6.0535,6.0356,5.9164,5.5164,5.306,5.0941,4.794,4.5545,0.0,4.6181,4.807,5.0401,5.3272,5.6308,5.8291,5.8537,5.9507,5.9625,5.8259,5.8725,5.7772,5.4875,5.4317,5.2937,5.0278,4.8423,4.6878,4.5607,0.0,0.0,0.0,0.0,0.0,0.0,0.0,0.0,0.0,0.0,0.0,0.0,0.0,0.0,0.0,0.0,0.0,0.0,0.0,0.0,0.0,0.0,0.0,0.0,0.0,0.0,0.0,0.0,0.0,5.3175,5.3788,0.0,0.0,0.0,0.0,5.2905,5.4192,5.5209,5.5837,5.6496,5.7752,5.9727,6.0565,6.1882,6.3797,6.4575,6.5293,6.5922,6.5981,6.6311,6.6879,6.6281,6.634,6.6849,6.6251,6.5981,6.5832,6.4366,6.26,6.0655,5.865,5.7483,5.6885,5.6855,5.7693,5.8949,5.9608,5.9817,5.9668,5.8979,5.6166,5.2785,5.1439,5.0524,0.0,0.0,5.3922,5.5448,5.7423,5.9428,6.1134,6.1792,6.248,6.263,6.1343,6.1074,6.0086,5.6735,5.5275,5.3575,5.0305,0.0,4.7598,4.8351,5.0106,5.2083,5.4089,5.6574,5.8225,5.8199,5.8593,5.8571,5.7898,5.8141,5.7422,5.5123,5.5024,5.4259,5.2623,5.1321,5.0307,4.9623,4.6696,0.0,0.0,0.0,0.0,0.0,0.0,0.0,0.0,0.0,0.0,0.0,0.0,0.0,0.0,0.0,0.0,0.0,0.0,0.0,0.0,0.0,0.0,0.0,0.0,0.0,0.0,0.0,0.0,5.6426,5.744,0.0,5.634,5.5696,5.5628,5.6316,5.7992,5.9099,5.9338,6.0745,6.1882,6.257,6.3677,6.4605,6.5293,6.5951,6.64,6.664,6.664,6.6759,6.6969,6.6759,6.6759,6.6969,6.6759,6.664,6.661,6.6131,6.4515,6.2271,6.1134,6.0266,5.9638,5.9189,5.9608,6.0416,6.0655,6.0745,6.0565,5.9458,5.7573,5.5538,5.467,5.3952,5.3743,5.5269,5.6376,5.7423,5.8979,6.0565,6.1849,6.2228,6.2525,6.2401,6.1212,6.0169,5.8888,5.6865,5.6338,5.5675,5.3674,5.2114,5.1411,5.2096,5.3168,5.4449,5.5938,5.7642,5.8719,5.8555,5.8981,5.8932,5.8143,5.8153,5.7719,5.6581,5.645,5.622,5.5659,5.4988,5.4025,5.2763,5.0223,4.777,0.0,0.0,0.0,0.0,0.0,0.0,0.0,0.0,0.0,0.0,0.0,0.0,0.0,0.0,0.0,0.0,0.0,0.0,0.0,0.0,0.0,0.0,0.0,0.0,0.0,5.6436,5.8949,5.9428,6.0416,6.0655,5.9578,5.886,5.874,5.9428,6.0894,6.1762,6.1762,6.2989,6.3767,6.3977,6.4874,6.5533,6.6011,6.667,6.6999,6.6999,6.6999,6.706,6.7182,6.7182,6.7243,6.7365,6.7365,6.7365,6.7335,6.7034,6.5861,6.3968,6.3316,6.254,6.1732,6.1253,6.1373,6.1762,6.1762,6.1762,6.1583,6.0475,5.9518,5.865,5.8022,5.7543,5.7363,5.8201,5.8949,5.9668,6.0535,6.1583,6.2418,6.2517,6.2738,6.2445,6.0707,5.9461,5.8174,5.6637,5.6603,5.6436,5.5359,5.464,5.4341,5.479,5.5418,5.6226,5.7304,5.8411,5.9045,5.8828,5.9105,5.894,5.8094,5.8162,5.7871,5.7016,5.7134,5.7163,5.7119,5.6627,5.5701,5.4264,5.1464,4.8729,4.6061,0.0,0.0,0.0,0.0,0.0,0.0,0.0,0.0,0.0,0.0,0.0,0.0,0.0,0.0,0.0,0.0,0.0,0.0,0.0,0.0,0.0,0.0,0.0,5.488,5.8082,6.0655,6.2002,6.275,6.2899,6.2241,6.1613,6.1493,6.2151,6.278,6.3139,6.3109,6.3109,6.3378,6.3947,6.3977,6.4635,6.5951,6.664,6.6999,6.6999,6.6999,6.7182,6.7487,6.7548,6.7729,6.803,6.809,6.8059,6.7998,6.7299,6.6571,6.5994,6.529,6.4216,6.3137,6.3137,6.3137,6.3137,6.3137,6.3137,6.3047,6.2331,6.2121,6.1972,6.1313,6.1074,6.1044,6.1044,6.1493,6.1972,6.2032,6.254,6.2954,6.2551,6.3066,6.2848,5.9918,5.896,5.809,5.6241,5.6043,5.6008,5.5359,5.5807,5.6308,5.6308,5.6765,0.0,5.8082,5.871,5.9099,5.9099,5.8882,5.8426,5.7773,5.7976,5.766,5.6421,5.6839,5.6976,5.6674,5.602,5.5143,5.4132,5.0301,4.7252,4.5042,0.0,0.0,0.0,0.0,0.0,0.0,0.0,0.0,0.0,0.0,0.0,0.0,0.0,0.0,0.0,0.0,0.0,0.0,0.0,0.0,0.0,5.2366,5.467,5.6346,5.9847,6.254,6.3378,6.4485,6.4934,6.4276,6.4066,6.4036,6.4216,6.4844,6.4784,6.3797,6.3737,6.3617,6.3348,6.3767,6.4425,6.5293,6.643,6.6999,6.6999,6.6999,6.7182,6.7548,6.8118,6.8651,6.8976,6.961,6.9615,6.9058,6.887,6.8089,6.6862,6.5464,6.4435,6.3766,6.3766,6.3766,6.3766,6.3766,6.3595,6.3394,6.3213,6.2652,6.1972,6.1313,6.0416,5.9668,5.9668,5.9428,5.9428,6.0386,6.1134,6.1725,6.2047,6.2397,6.2135,6.0116,5.8304,5.6917,5.6384,5.5981,5.5942,5.6487,5.7543,5.8291,5.8291,5.8441,5.862,5.88,5.9009,5.9099,5.9099,5.9045,5.8722,5.8065,5.763,5.7272,5.6914,5.6199,5.5931,5.6302,5.5227,5.3794,5.2067,5.0032,4.8027,0.0,0.0,0.0,0.0,0.0,0.0,0.0,0.0,0.0,0.0,0.0,0.0,0.0,0.0,0.0,0.0,0.0,0.0,0.0,0.0,0.0,0.0,5.5089,5.7483,5.9338,6.2091,6.4126,6.4755,6.5772,6.6281,6.5892,6.5592,6.5562,6.5832,6.5951,6.5533,6.4485,6.3917,6.3438,6.3079,6.3438,6.4066,6.5024,6.634,6.706,6.7243,6.7243,6.7578,6.8268,6.8855,6.9495,7.0098,7.0743,7.0552,6.9886,6.9568,6.8806,6.7631,0.0,0.0,0.0,0.0,6.5016,6.4961,6.4771,6.4382,6.3989,6.3736,6.3153,6.2331,6.1403,6.0356,5.9398,5.886,5.8201,5.7932,5.8979,5.9967,6.0736,6.0929,6.1751,6.1882,5.9666,5.8028,5.6843,5.6452,5.6408,0.0,5.778,5.8783,5.9506,5.9506,5.9506,5.9506,5.9506,5.9369,5.9261,5.9261,5.9153,5.871,5.7782,5.7842,0.0,0.0,0.0,5.5807,5.5359,5.4072,0.0,0.0,0.0,0.0,0.0,0.0,0.0,0.0,4.6509,4.7078,0.0,0.0,0.0,0.0,0.0,0.0,0.0,0.0,0.0,0.0,0.0,0.0,0.0,0.0,0.0,0.0,5.7663,6.0236,6.281,6.4366,6.5473,6.6041,6.664,6.6999,6.6999,6.646,6.637,6.6939,6.646,6.5802,6.5054,6.3857,0.0,0.0,0.0,6.3767,6.5024,6.634,6.7182,6.7487,6.7578,6.8208,6.9352,6.9782,7.0463,7.1328,7.1625,7.137,7.0631,6.9957,6.9218,6.8376,6.7663,6.7018,6.648,6.648,6.648,6.6428,6.5929,0.0,0.0,6.4239,6.3622,6.2897,6.1549,6.0565,5.9697,5.8381,5.7453,5.7064,5.7812,5.8979,5.9872,5.9573,6.1088,6.1844,5.9032,5.807,5.7543,5.6825,5.7328,5.8257,5.9234,5.9901,6.025,6.025,6.025,6.025,6.0197,5.9849,5.9606,5.9583,5.9261,0.0,5.7214,5.8201,5.8082,5.6248,5.6496,5.5957,5.4162,5.2935,5.2306,5.2306,5.1122,5.0524,5.0524,5.0062,5.0421,5.1528,5.0122,4.9883,0.0,0.0,0.0,0.0,0.0,0.0,0.0,0.0,0.0,0.0,0.0,0.0,0.0,0.0,0.0,5.7214,5.9338,6.1433,6.3528,6.5443,6.667,6.6789,6.6909,6.6999,6.6999,6.6879,6.6849,6.6969,6.6879,6.6281,6.5084,6.4246,6.3588,6.3079,6.3558,6.4216,6.5024,6.634,6.7182,6.7487,6.8237,0.0,6.9667,7.1186,7.2111,7.2603,7.3337,7.2922,7.1737,7.1572,7.0716,6.9386,6.7894,6.7233,6.7137,6.7137,6.7137,6.7086,6.6774,6.6089,6.5367,6.5101,6.43,6.3153,6.1799,6.0401,0.0,5.7663,5.6466,5.5837,5.7004,5.8291,5.9303,5.9452,6.0795,6.1514,5.9591,5.8685,5.8416,5.8887,5.9114,5.9638,6.0961,6.1554,6.1841,6.1841,6.1841,6.1721,6.1297,6.0753,6.0285,5.9842,5.9392,5.856,5.7214,5.7334,5.6885,5.5478,5.4999,5.4341,5.3414,5.3114,5.2995,5.2995,5.2725,5.2606,5.2606,5.3054,5.3384,5.3593,5.1708,5.1468,0.0,0.0,0.0,0.0,0.0,0.0,0.0,0.0,0.0,0.0,0.0,5.3982,5.497,0.0,5.7693,5.9338,6.1014,6.266,6.4276,6.5951,6.6999,6.6999,6.6999,6.6999,6.6999,6.6999,6.6999,6.6999,6.6999,6.655,6.5562,6.4874,6.4366,6.4066,6.4366,6.4844,6.5503,6.649,6.7243,6.7789,6.8327,6.9178,7.0212,7.1602,7.2517,7.3129,7.3884,7.3343,7.1951,7.1189,7.0461,6.9751,6.8912,6.8535,6.8535,6.8535,6.8535,6.8485,6.8086,6.7446,6.6774,6.6098,6.507,6.3827,6.2243,6.0741,5.9308,5.7992,5.6915,5.6376,5.7363,5.859,5.9572,5.9351,6.0445,6.1122,5.9781,5.9478,5.9716,6.0422,6.1211,6.2029,6.2857,6.3494,6.3593,6.2826,6.268,6.2565,6.2202,6.152,6.0959,6.0576,5.9955,5.9138,5.8165,5.742,5.6756,5.6093,5.5129,5.4436,5.4074,5.3772,5.3592,5.3592,5.3592,5.3592,5.3592,5.3923,5.4387,5.487,5.3995,5.4037,0.0,0.0,0.0,0.0,0.0,0.0,0.0,5.1798,5.2546,5.3862,5.5538,5.6944,5.7573,5.856,5.9727,6.1074,6.2301,6.3528,6.4844,6.6161,6.6939,6.6819,6.6909,6.6999,6.6999,6.6999,6.6999,6.6999,6.6999,6.6759,6.6221,6.5712,6.5413,6.5413,6.5413,6.5652,6.6191,6.6729,6.7304,6.791,6.8268,6.9209,7.0526,7.1634,7.2497,7.3233,7.3587,7.3011,7.1686,7.0361,6.9798,6.9798,6.9798,6.9798,6.9798,6.9798,6.9798,6.9751,6.9188,6.8567,6.7852,6.6858,6.5692,6.4353,6.2726,6.1303,6.0027,5.883,5.8022,5.7633,5.8321,5.9398,6.0116,5.9512,6.0291,6.0967,6.0015,6.0368,6.1062,6.1772,6.3004,6.4081,6.4393,6.4988,6.4988,6.372,6.3531,6.3468,6.3212,6.245,6.1872,6.1602,6.0918,6.0206,5.9502,5.8215,5.7419,5.7339,5.6255,5.5612,5.5612,5.5092,5.4816,5.4816,5.4816,5.4816,5.4816,5.4721,5.5183,5.6193,5.6343,5.6446,4.5723,4.7459,5.0076,5.1439,5.3204,5.479,0.0,5.5568,5.5987,5.7304,5.8201,5.8979,5.9638,5.9877,6.0416,6.1762,6.26,6.3528,6.4844,6.6161,6.6759,6.6191,6.664,6.6999,6.6999,6.6999,6.6999,6.6999,6.6999,6.6969,6.6879,6.6819,6.6759,6.6759,6.6759,6.6819,6.6879,6.6939,6.7182,6.7548,6.8356,6.9147,6.9839,7.157,7.2571,7.2907,7.243,7.1786,7.0958,7.0129,6.9798,6.9798,6.9798,6.9798,6.9798,6.9798,6.9798,6.9751,6.9188,6.8501,6.7695,6.6849,6.5592,6.4229,6.3194,6.2027,6.0835,6.0086,5.9398,5.9039,5.9697,6.0446,6.089,6.0475,6.0921,6.1346,6.104,6.1246,6.1772,6.3036,6.38,6.4439,6.4918,6.5201,6.5303,6.5168,6.5123,6.4988,6.4531,6.402,6.3468,6.2955,6.2386,6.1757,6.1113,5.9759,5.8971,5.8971,5.8168,5.7759,5.7759,5.7696,5.7633,5.7633,5.7633,5.7633,5.7633,5.723,5.747,5.8254,5.8165,5.7872,4.7892,4.9733,5.2276,5.3593,5.5718,5.7633,5.8291,5.8441,5.883,6.0176,6.0954,6.1493,6.1762,6.1822,6.2002,6.257,6.3199,6.3947,6.4904,6.6161,6.661,6.5562,6.5323,6.5413,6.5802,6.5862,6.6011,6.64,6.6759,6.6999,6.6999,6.6999,6.6999,6.6999,6.6999,6.7121,6.7304,6.7304,6.7517,6.8059,6.8623,6.9352,7.0325,7.1602,7.2481,7.297,7.23,7.1587,7.0825,7.0096,6.9798,6.9798,6.9798,6.9798,6.9798,6.9798,6.9798,6.9751,6.9188,6.8567,6.7834,6.6837,6.5669,6.4457,6.3711,6.2905,6.2211,6.1912,6.1613,6.1463,6.1762,6.2032,6.2028,6.1283,6.1662,6.2074,6.1474,6.1856,6.262,6.375,6.4205,6.444,6.4652,6.4785,6.4664,6.4233,6.4895,6.5291,6.4963,6.4439,6.3894,6.3148,6.2907,6.2491,6.179,6.1217,6.0516,5.9688,5.937,5.9211,5.9211,5.8783,5.8751,5.9179,5.9211,5.9211,5.9211,5.9253,5.9456,5.9737,6.0017,6.0085,4.9748,5.1858,5.4281,5.5418,5.7842,6.0086,6.0745,6.1044,6.1433,6.2421,6.2869,6.3079,6.3079,6.2929,6.2929,6.3258,6.3857,6.4515,6.5203,6.6281,6.649,6.5173,6.4276,6.3857,6.4186,6.4545,6.5024,6.5682,6.652,6.6999,6.6999,6.6999,6.6999,6.6999,6.6999,6.7182,6.7487,6.7759,6.8089,6.8623,6.9151,6.9901,7.0862,7.1798,7.2483,7.2879,7.225,7.1536,7.0656,7.0045,6.9798,6.9798,6.9798,6.9798,6.9798,6.9655,6.9607,6.9478,6.8896,6.8236,6.7497,6.6491,6.5421,6.4376,6.3932,6.3451,6.3079,6.3079,6.3079,6.3079,6.3079,6.3079,6.2834,6.182,6.2225,6.2659,6.1984,6.2572,6.3464,6.4341,6.4593,6.4664,6.4664,6.4498,6.4243,6.3713,6.4299,6.4807,6.4904,6.4753,6.436,6.3768,6.372,6.3526,6.3056,6.283,6.228,6.1245,6.0987,6.089,6.089,6.0405,6.0372,6.089,6.089,6.089,6.089,6.112,6.1312,6.1526,6.1819,6.2168,5.081,5.3563,5.6226,5.6885,5.9548,6.2181,6.2839,6.3438,6.3887,6.3917,6.3468,6.3079,6.3079,6.254,6.254,6.3767,6.4545,6.5233,6.5892,6.655,6.649,6.5173,6.3887,6.2869,6.2241,6.3318,6.4306,6.4994,6.6251,6.6999,6.6999,6.6999,6.6999,6.6999,6.6999,6.7182,6.7487,6.8356,6.8914,6.9294,7.0124,7.0743,7.1163,7.2337,7.2685,7.2392,7.2116,7.1335,7.0209,6.9893,6.9798,6.9798,6.9798,6.9798,6.9751,6.9188,6.9042,6.8896,6.8101,6.7253,6.6385,6.5592,6.4715,6.3876,6.3565,6.3309,6.3079,6.3079,6.3079,6.3079,6.3079,6.3079,6.2922,6.2097,6.2495,6.3027,6.2798,6.3563,6.4407,6.4963,6.5246,6.5392,6.5392,6.4829,6.4365,6.4365,6.3769,6.3603,6.4332,6.495,6.5381,6.5336,6.5336,6.5303,6.5303,6.4719,6.4321,6.4255,6.3593,6.3196,6.3196,6.3163,6.3163,6.3196,6.3196,6.3196,6.3196,6.2793,6.2945,6.372,6.3531,6.3885,5.2486,5.497,5.7274,5.9249,6.1253,6.3019,6.4126,6.4545,6.4545,6.4096,6.3169,6.257,6.2989,6.2899,6.3169,6.4485,6.5592,6.64,6.664,6.6849,6.649,6.5173,6.3887,6.266,6.1553,6.1822,6.254,6.3647,6.4964,6.5892,6.6311,6.6759,6.7121,6.7304,6.7365,6.7759,6.8682,6.9178,6.9782,7.0494,7.1351,7.1982,7.2304,7.2742,7.273,7.2408,7.1923,7.1123,7.0176,7.0082,6.9941,6.9798,6.9574,6.943,6.9188,6.8451,6.7816,6.7272,6.7014,6.6385,6.553,6.4936,6.4356,6.3963,6.388,6.3595,6.3367,6.3367,6.3367,6.3367,6.3367,6.3367,6.3177,6.2403,6.3083,6.3689,6.3128,6.3831,6.4741,6.5192,6.5116,6.4872,6.4774,6.4531,6.42,6.3746,6.3868,6.41,6.4365,6.4995,6.5425,6.5425,6.5425,6.5425,6.5425,6.5194,6.4862,6.4399,6.4133,6.4045,6.4045,6.3537,6.3504,6.4001,6.3968,6.3968,6.4001,6.4188,6.4427,6.4764,6.4449,6.4565,5.4132,5.6675,5.9009,6.0984,6.263,6.4066,6.5144,6.5562,6.5353,6.3947,6.266,6.1792,6.1972,6.2211,6.2869,6.4425,6.5981,6.6999,6.6999,6.6999,6.658,6.5503,6.4425,6.3258,6.1942,6.1373,6.1463,6.2301,6.3797,6.4964,6.5622,6.652,6.7182,6.7487,6.7819,6.8446,6.941,6.9986,7.0677,7.1422,7.1981,7.2429,7.2737,7.2779,7.2577,7.2214,7.1807,7.1172,7.0456,7.0363,7.0223,7.0035,6.9703,6.9237,6.8716,6.7816,6.6806,6.5875,6.6013,6.5561,6.485,6.4382,6.4132,6.3993,6.3993,6.3766,6.3538,6.3652,6.3595,6.3538,6.3652,6.3595,6.3347,6.2676,6.3369,6.4064,6.3485,6.4276,6.5213,6.5592,6.5336,6.5037,6.4939,6.4652,6.4133,6.3415,6.3902,6.4365,6.4365,6.4995,6.5425,6.5425,6.5425,6.5425,6.5425,6.5425,6.5227,6.4763,6.4763,6.4763,6.4763,6.4299,6.4266,6.473,6.473,6.473,6.4763,6.5048,6.5251,6.5324,6.5082,6.5115,5.5858,5.871,6.1343,6.2032,6.3588,6.5144,6.5802,6.643,6.6161,6.3528,6.1882,6.0715,6.0057,6.0505,6.1613,6.3588,6.5652,6.6999,6.6999,6.6999,6.6759,6.6131,6.5473,6.4575,6.3288,6.2002,6.1224,6.1224,6.2929,6.4276,6.4934,6.6281,6.7182,6.7548,6.8356,6.9147,6.9782,7.0866,7.1556,7.2018,7.2018,7.2165,7.2408,7.2374,7.2262,7.198,7.1714,7.1324,7.087,7.0608,7.0515,7.0469,6.9988,6.9252,6.8371,6.7292,6.5982,6.4734,6.5101,6.4857,6.4326,6.4075,6.4049,6.4049,6.4049,6.3823,6.3652,6.3936,6.3823,6.3652,6.3936,6.3793,6.3403,6.2971,6.3579,6.4165,6.3948,6.4943,6.5867,6.6052,6.5955,6.578,6.578,6.5039,6.4243,6.3547,6.4011,6.4432,6.4365,6.4995,6.5425,6.5425,6.5425,6.5425,6.5425,6.5425,6.5425,6.5425,6.5425,6.5425,6.5425,6.5425,6.5425,6.5425,6.5425,6.5425,6.5425,6.5425,6.5425,6.5425,6.5425,6.5425,5.8291,6.0446,6.2121,6.3228,6.3887,6.4425,6.5114,6.5413,6.4784,6.2151,5.9757,5.8082,5.7902,5.8411,5.9697,6.2181,6.5054,6.6999,6.6999,6.6999,6.6939,6.6759,6.6161,6.5443,6.4605,6.3348,6.257,6.257,6.3019,6.3827,6.4964,6.6281,6.7304,6.785,6.8741,6.9698,7.0743,7.1836,7.2264,7.2018,7.2213,7.2311,7.2408,7.2223,7.2089,7.198,7.1546,7.1209,7.087,7.0825,7.0654,7.0469,6.9988,6.9285,6.8468,6.7324,6.5982,6.4764,6.466,6.4412,6.4075,6.4049,6.4331,6.4666,6.4666,6.4412,6.4158,6.427,6.4244,6.4158,6.43,6.4214,6.4045,6.353,6.4118,6.4715,6.428,6.5303,6.6259,6.6139,6.5955,6.578,6.578,6.547,6.5138,6.5159,6.5161,6.4962,6.4432,6.4995,6.5425,6.5425,6.5425,6.5425,6.5425,6.5425,6.5425,6.5425,6.5425,6.5425,6.5425,6.5425,6.5425,6.5425,6.5425,6.5425,6.5425,6.5425,6.5425,6.5425,6.5425,6.5425,6.0236,6.2151,6.3558,6.4276,6.4455,6.4485,6.4545,6.4366,6.3348,6.0416,5.7932,5.6286,5.6256,5.7034,5.865,6.1613,6.4605,6.655,6.655,6.6311,6.6131,6.6131,6.5802,6.5443,6.5054,6.4366,6.3947,6.3947,6.3647,6.3947,6.4964,6.6281,6.7304,6.797,6.9236,7.0458,7.1629,7.2279,7.2133,7.1361,7.1504,7.1599,7.174,7.1619,7.1601,7.1693,7.1391,7.1222,7.1086,7.1086,7.0961,7.0825,7.0283,6.9589,6.8699,6.765,6.6354,6.5094,6.4685,6.4382,6.4188,6.4188,6.4499,6.4888,6.4888,6.4635,6.4437,6.4579,6.4524,6.4437,6.4715,6.4771,6.4768,6.4643,6.5034,6.5352,6.5311,6.5891,6.6464,6.6302,6.6172,6.6042,6.5824,6.578,6.5736,6.578,6.5647,6.547,6.5072,6.5238,6.547,6.5559,6.547,6.547,6.5559,6.547,6.5425,6.5425,6.5425,6.5425,6.5425,6.5425,6.5425,6.5425,6.5425,6.5425,6.5425,6.5425,6.5425,6.5425,6.5425,6.5425,6.1822,6.3647,6.4994,6.4904,6.4844,6.4575,6.3797,6.2989,6.1523,5.8381,5.6107,5.473,5.488,5.6047,5.8052,6.1313,6.4186,6.5951,6.5772,6.5233,6.4874,6.4784,6.4844,6.4934,6.5024,6.5173,6.5293,6.5293,6.4725,6.4605,6.5144,6.6311,6.7396,6.8298,6.9896,7.1242,7.2344,7.2359,7.1737,7.0469,7.0515,7.0654,7.0916,7.0916,7.1052,7.1312,7.1312,7.1312,7.1312,7.1312,7.1312,7.1267,7.0779,7.0029,6.9169,6.8221,6.7002,6.5737,6.5204,6.4795,6.4493,6.4437,6.4635,6.4888,6.4888,6.4691,6.4524,6.4832,6.4691,6.4604,6.5187,6.5406,6.5598,6.5948,6.6138,6.6368,6.6659,6.6711,6.6684,6.6684,6.6574,6.6378,6.5955,6.6042,6.6052,6.5911,6.5824,6.578,6.5824,6.5603,6.5514,6.578,6.5603,6.5559,6.578,6.5603,6.547,6.5425,6.5425,6.5425,6.5425,6.5425,6.5425,6.5425,6.5425,6.5425,6.5425,6.5425,6.5425,6.5425,6.5425,6.5425,6.3288,6.4336,6.4904,6.4306,6.3797,6.3109,6.1882,6.0236,5.8351,5.6166,5.3683,5.2247,5.3324,5.5059,5.7244,5.9997,6.3558,6.5622,6.4515,6.4246,6.3977,6.3468,6.3857,6.4395,6.4964,6.6011,6.664,6.664,6.655,6.6281,6.5862,6.658,6.7969,7.0092,7.0965,7.154,7.2067,7.2311,7.1675,7.027,7.0641,7.087,7.0916,7.1131,7.1267,7.1312,7.1312,7.1312,7.1312,7.1312,7.1312,7.1267,7.0961,7.0469,6.9841,6.9026,6.8004,6.693,6.6385,6.5723,6.5077,6.4549,6.4635,6.4888,6.4888,6.4832,6.4832,6.4888,6.4832,6.4943,6.5483,6.5938,6.6385,6.6763,6.754,6.8115,6.8014,6.7843,6.7683,6.7683,6.7039,6.6464,6.6378,6.6215,6.6139,6.6378,6.6076,6.5867,6.6009,6.5658,6.5514,6.578,6.5736,6.5736,6.578,6.5736,6.5647,6.5425,6.5425,6.5425,6.5425,6.5425,6.5425,6.5425,6.5425,6.5425,6.5425,6.5425,6.5425,6.5425,6.5425,6.5425,6.4366,6.5263,6.5712,6.4336,6.3528,6.245,6.0086,5.8022,5.6047,5.4042,5.1798,5.0601,5.1917,5.3503,5.5598,5.859,6.2121,6.4126,6.3139,6.272,6.2391,6.2091,6.2301,6.3019,6.4366,6.6011,6.6999,6.6999,6.6999,6.6849,6.655,6.7185,6.8474,7.0543,7.1186,7.1731,7.2213,7.2311,7.1771,7.0549,7.0779,7.0961,7.1098,7.1222,7.1312,7.1312,7.1312,7.1312,7.1312,7.1312,7.1312,7.1267,7.1176,7.0961,7.0654,6.9969,6.9268,6.8453,6.7631,6.6733,6.583,6.5266,6.5022,6.4888,6.4888,6.4888,6.4888,6.4888,6.4888,6.5053,6.5538,6.613,6.6722,6.7328,6.8078,6.8613,6.8338,6.8304,6.8239,6.792,6.7539,6.7073,6.6574,6.6473,6.6473,6.6507,6.6292,6.6129,6.6095,6.5878,6.579,6.5955,6.5867,6.5867,6.6162,6.6042,6.5878,6.5746,6.5692,6.5603,6.5603,6.547,6.5425,6.5425,6.5425,6.5425,6.5425,6.5425,6.5425,6.5425,6.5425,6.5425,6.5173,6.5981,6.6311,6.4306,6.3228,6.1792,5.8471,5.5957,5.3862,5.2127,5.0212,4.9254,5.0571,5.1887,5.3803,5.6974,6.0266,6.2211,6.1553,6.1014,6.0685,6.0685,6.0805,6.1672,6.3617,6.5742,6.6999,6.6999,6.706,6.7121,6.7121,6.7819,6.9034,7.0655,7.1351,7.1889,7.2311,7.2408,7.1927,7.0825,7.0916,7.1131,7.1312,7.1312,7.1312,7.1312,7.1312,7.1312,7.1312,7.1312,7.1312,7.1312,7.1312,7.1312,7.1222,7.0779,7.0296,6.9746,6.8716,6.7663,6.6596,6.5991,6.5406,6.4888,6.4888,6.4888,6.4888,6.4888,6.4888,6.5053,6.5538,6.613,6.6796,6.7663,6.8291,6.8724,6.8636,6.8719,6.8762,6.8461,6.8267,6.792,6.7165,6.7057,6.6965,6.6828,6.6608,6.6421,6.6182,6.6139,6.6139,6.6182,6.6042,6.6119,6.6464,6.6302,6.6139,6.6095,6.5911,6.578,6.578,6.5559,6.5425,6.5425,6.5425,6.5425,6.5425,6.5425,6.5425,6.5425,6.5425,6.5425,6.5592,6.6011,6.5622,6.3647,6.2211,6.0416,5.7124,5.3892,5.1349,5.0524,4.8865,4.7878,4.9239,5.0511,5.2276,5.5029,5.8231,6.0116,5.9488,5.9338,5.9279,5.9279,5.9817,6.0954,6.2959,6.5473,6.6999,6.6999,6.7304,6.7487,6.7487,6.8564,6.9756,7.1021,7.1874,7.2235,7.2018,7.2438,7.1941,7.0515,7.1007,7.1267,7.1312,7.1312,7.1312,7.1312,7.1312,7.1312,7.1312,7.1312,7.1312,7.1312,7.1312,7.1312,7.1267,7.0961,7.0654,7.0283,6.9285,6.8186,6.7086,6.6332,6.5538,6.4888,6.4888,6.4888,6.4888,6.4888,6.4888,6.5053,6.5538,6.6098,6.6753,6.7802,6.847,6.9024,6.9453,6.9469,6.9491,6.9904,6.9451,6.8977,6.8866,6.8301,6.7793,6.7751,6.7039,6.6507,6.6464,6.6259,6.6182,6.6464,6.6464,6.6464,6.6507,6.6464,6.6345,6.6095,6.5911,6.578,6.578,6.5559,6.5425,6.5425,6.5425,6.5425,6.5425,6.5425,6.5425,6.5425,6.5425,6.5425,6.4096,6.5114,6.5353,6.257,6.1194,5.9428,5.5299,5.2426,5.0285,4.9284,4.8117,4.7578,4.8506,4.9434,5.078,5.3025,5.5837,5.7633,5.7363,5.8022,5.853,5.853,5.874,5.9847,6.2241,6.4126,6.5682,6.6909,6.7487,6.7879,6.8059,6.9003,7.0237,7.1842,7.2411,7.2546,7.2213,7.2423,7.1927,7.0745,7.0961,7.1176,7.1312,7.1312,7.1312,7.1312,7.1312,7.1312,7.1312,7.1312,7.1312,7.1312,7.1312,7.1312,7.1267,7.1176,7.1052,7.0825,6.9813,6.8765,6.765,6.668,6.5731,6.4888,6.4888,6.4888,6.4888,6.4888,6.4888,6.4998,6.5351,6.583,6.6417,6.7046,6.7714,6.8419,6.9074,6.9547,6.9934,7.0174,6.9958,6.962,6.918,6.8842,6.847,6.7963,6.7573,6.715,6.6574,6.6516,6.6684,6.7113,6.6776,6.655,6.6677,6.6643,6.6643,6.6558,6.6182,6.5965,6.5965,6.5603,6.5425,6.5425,6.5425,6.5425,6.5425,6.5425,6.5657,6.6088,6.6088,6.632,6.263,6.4066,6.4665,6.1583,5.9997,5.8082,5.3862,5.1229,4.9404,4.8476,4.7758,4.7459,4.7908,4.8386,4.9284,5.105,5.3234,5.491,5.5508,5.6705,5.7603,5.7782,5.7812,5.88,6.1253,6.3199,6.5054,6.6849,6.7548,6.7968,6.8199,6.9042,7.0354,7.2219,7.2867,7.2886,7.2408,7.2552,7.2022,7.0916,7.0961,7.1131,7.1312,7.1312,7.1312,7.1312,7.1312,7.1312,7.1312,7.1312,7.1312,7.1312,7.1312,7.1312,7.1312,7.1312,7.1312,7.1176,7.0176,6.9026,6.7953,6.6921,6.5817,6.4888,6.4888,6.4888,6.4888,6.4888,6.4888,6.4943,6.5132,6.546,6.5808,6.6054,6.6796,6.7695,6.8485,6.9397,7.0183,7.0501,7.0534,7.0364,6.9857,6.9586,6.9214,6.8673,6.8402,6.8021,6.7377,6.7361,6.7606,6.8017,6.7569,6.7352,6.7446,6.7489,6.7489,6.7489,6.7113,6.6819,6.6765,6.6368,6.6145,6.6055,6.6055,6.6055,6.6055,6.6055,6.6353,6.685,6.685,6.7069,6.1583,6.3049,6.3378,6.0745,5.859,5.6256,5.2965,5.0182,4.8297,4.8297,4.7758,4.7309,4.7309,4.7309,4.7758,4.912,5.0391,5.1977,5.3952,5.5359,5.6406,5.7034,5.7094,5.7902,5.9907,6.3079,6.5562,6.6879,6.7304,6.7576,6.7812,6.867,7.0078,7.1928,7.3077,7.3292,7.2441,7.2854,7.2363,7.0916,7.1176,7.1312,7.1312,7.1312,7.1312,7.1312,7.1312,7.1312,7.1312,7.1312,7.1312,7.1312,7.1312,7.1312,7.1312,7.1312,7.1312,7.1176,7.0176,6.9026,6.7953,6.6921,6.5817,6.4888,6.4888,6.4888,6.4888,6.4888,6.4888,6.4888,6.4888,6.4888,6.4888,6.4888,6.5817,6.6869,6.7903,6.8977,7.0082,7.1131,7.1312,7.1312,7.1312,7.0669,7.0161,7.0161,6.9553,6.9079,6.9079,6.9079,6.9079,6.9079,6.9079,6.9079,6.9079,6.9079,6.9079,6.9079,6.8793,6.8573,6.8305,6.808,6.7854,6.7566,6.7566,6.7566,6.7566,6.7566,6.7566,6.7566,6.7566,6.7566,5.8141,5.9967,6.0685,5.8082,5.6585,5.494,5.1618,4.9523,4.8147,4.7698,4.7459,4.7309,4.7309,4.7309,4.7578,4.8446,4.9314,5.0571,5.2546,5.476,5.6406,5.7034,5.871,6.0086,6.0715,6.3348,6.5562,6.6879,6.7304,6.7396,6.7232,6.8303,6.9603,7.1058,7.1862,7.2216,7.2116,7.2304,7.1938,7.1176,7.1267,7.1312,7.1312,7.1312,7.1312,7.1312,7.1312,7.1312,7.1312,7.1312,7.1312,7.1312,7.1312,7.1312,7.1312,7.1312,7.1312,7.1176,7.0176,6.9026,6.7953,6.6921,6.5817,6.4888,6.4888,6.4888,6.4888,6.4888,6.4888,6.4888,6.4888,6.5053,6.5187,6.5406,6.6289,6.7439,6.8436,6.9397,7.0316,7.1131,7.1312,7.1312,7.1312,7.1109,7.077,7.0263,6.9992,6.9654,6.918,6.9113,6.9282,6.9789,6.9857,6.9654,6.9147,6.9113,6.9113,6.9113,6.8827,6.8661,6.8573,6.8171,6.7978,6.7887,6.7704,6.7566,6.7566,6.7566,6.7877,6.8374,6.8871,6.9103,5.488,5.6885,5.7723,5.5568,5.4371,5.3025,5.0451,4.8865,4.7788,4.7399,4.7309,4.7219,4.698,4.692,4.707,4.7489,4.7908,4.9015,5.1498,5.4132,5.6406,5.8022,6.0146,6.1373,6.1134,6.3258,6.5084,6.6161,6.6432,6.6312,6.5857,6.6959,6.8186,6.9348,7.0795,7.1684,7.2014,7.2073,7.184,7.1312,7.1312,7.1312,7.1312,7.1312,7.1312,7.1312,7.1312,7.1312,0.0,7.1312,7.1312,7.1312,7.1312,7.1312,7.1312,7.1312,7.1312,7.1176,7.0176,6.9026,6.7953,6.6921,6.5817,6.4888,6.4888,6.4888,6.4888,6.4888,6.4888,6.4888,6.4888,6.5132,6.5538,6.5884,6.6837,6.8,6.8977,6.9779,7.0502,7.1176,7.1312,7.1312,7.1312,7.1312,7.1142,7.0669,7.0601,7.0432,6.9992,6.9925,7.0128,7.0567,7.0601,7.0432,6.9992,6.9925,6.9925,6.9925,6.9758,6.9625,6.9502,6.9266,6.904,6.8857,6.8672,6.8533,6.844,6.844,6.8672,6.9103,6.9566,6.9798,0.0,5.3803,5.464,5.3294,5.2067,5.081,4.9539,4.8207,0.0,4.7309,4.7279,4.707,4.6501,4.6309,4.6309,4.6441,4.6471,4.7608,5.09,5.3743,5.6645,5.9847,6.1373,6.1942,6.1313,6.2959,6.4336,6.4934,6.5024,6.4725,6.4036,6.5163,6.6215,6.7145,6.9873,7.1519,7.1959,7.2189,7.1988,7.1312,7.1312,7.1312,7.1312,7.1312,7.1312,7.1312,7.1312,7.1312,7.1312,7.1312,7.1312,7.1312,7.1312,7.1312,7.1312,7.1312,7.1312,7.1176,7.0176,6.9026,6.7953,6.6817,6.5762,6.4888,6.4888,6.4888,6.4888,6.4888,6.4888,6.4888,6.4888,6.5297,6.5862,6.6438,6.7459,6.8518,6.9556,7.0156,7.0654,7.1222,7.1312,7.1312,7.1312,7.1312,7.1312,7.1312,7.1312,7.1312,7.1312,7.1312,7.1312,7.1312,7.1312,7.1345,7.1379,7.1345,7.1312,7.1312,7.1312,7.1176,7.0916,7.0916,7.0687,7.0223,7.0223,7.0082,6.9798,6.9798,6.9798,6.9798,6.9798,6.9798,4.7399,0.0,5.2576,5.1259,5.0644,5.0076,0.0,4.7878,4.7309,4.7309,4.689,4.6651,4.701,4.6681,4.6651,4.7668,4.7818,4.8985,5.2247,5.5867,5.9039,6.1343,6.2361,6.278,6.263,6.3917,6.4844,6.5024,6.5024,6.4725,6.4036,6.5163,6.6215,6.7145,6.8696,7.0163,7.1447,7.1537,7.1481,7.1312,7.1312,7.1312,7.1312,7.1312,7.1312,7.1312,7.1312,7.1312,7.1312,7.1312,7.1312,7.1312,7.1312,7.1312,7.1312,7.1312,7.1312,7.1176,7.0176,6.9026,6.7802,6.5915,6.5108,6.4888,6.4888,6.4888,6.4888,6.4888,6.4888,6.4888,6.4888,6.5429,6.6205,6.693,6.7986,6.9091,7.0063,7.0561,7.0916,7.1222,7.1312,7.1312,7.1312,7.1312,7.1312,7.1312,7.1312,7.1312,7.1312,7.1312,7.1312,7.1312,7.1312,7.1548,7.209,7.1616,7.1312,7.1312,7.1312,7.1267,7.1222,7.1007,7.087,7.0733,7.0363,7.0082,6.9798,6.9798,6.9798,6.9798,6.9798,6.9798,4.5963,4.8117,4.9793,4.9075,4.8895,4.8626,4.7608,4.686,4.6381,4.6381,4.6112,4.5963,4.6322,4.6082,4.6292,4.7608,4.8356,5.0301,5.482,5.8082,6.0745,6.275,6.3558,6.3857,6.3528,6.4156,6.4455,6.4156,6.4126,6.4035,6.3762,6.4875,6.612,6.735,6.847,6.9827,7.1267,7.1312,7.1312,7.1312,7.1312,7.1312,7.1312,7.1312,7.1312,7.1312,7.1312,7.1312,7.1312,7.1312,7.1312,7.1312,7.1312,7.1312,7.1312,7.1312,7.1312,7.1176,7.027,6.9107,6.7682,6.6214,6.5569,6.546,6.5297,6.5187,6.5053,6.4943,6.4888,6.4888,6.4888,6.5623,6.6523,6.7446,6.8535,6.9622,7.0641,7.0961,7.1131,7.1267,7.1312,7.1312,7.1312,7.1312,7.1312,7.1312,7.1312,7.1312,7.1312,7.1312,7.1312,7.1312,7.1312,7.1616,7.2326,7.2022,7.1819,7.1819,7.1515,7.1312,7.1312,7.1176,7.1175,7.1421,7.1292,7.0961,7.0486,7.0343,7.0129,6.9798,6.9798,6.9798,4.5771,4.6711,4.7339,4.7429,4.7608,4.7578,4.692,4.6322,4.5873,4.5783,4.5603,4.5514,4.5723,4.5663,4.6142,4.7788,4.9494,5.2396,5.7543,5.9997,6.1942,6.3767,6.4515,6.4635,6.4066,6.4006,6.3737,6.3139,6.3137,6.3252,6.3481,6.4604,6.5929,6.7433,6.8601,6.9827,7.1176,7.1267,7.1312,7.1312,7.1312,7.1312,7.1312,7.1312,7.1312,7.1312,7.1312,7.1312,7.1312,7.1312,7.1312,7.1312,7.1312,7.1312,7.1312,7.1312,7.1312,7.1176,7.041,6.9188,6.7848,6.7078,6.6607,6.6258,6.5884,6.5592,6.5297,6.4998,6.4943,6.4943,6.4998,6.5839,6.7005,6.7953,6.9026,7.0129,7.1086,7.1312,7.1312,7.1312,7.1312,7.1312,7.1312,7.1312,7.1312,7.1312,7.1312,7.1312,7.1312,7.1312,7.1312,7.1312,7.1312,7.1616,7.2326,7.2293,7.2293,7.2394,7.1819,7.1447,7.1312,7.1413,7.1615,7.1993,7.2309,7.2104,7.1323,7.1084,7.0575,6.9798,6.9798,6.9798,4.5095,4.6352,4.7429,4.7997,4.8955,4.9568,4.8955,4.879,4.855,4.7938,4.695,4.6501,4.7608,4.7369,4.7967,5.096,5.4431,5.7274,5.874,6.0685,6.245,6.3827,6.4096,6.4126,6.4006,6.4006,6.3737,6.3139,6.3309,6.3481,6.3538,6.4635,6.583,6.6982,6.8086,6.9301,7.0608,7.1052,7.1312,7.1312,7.1312,7.1312,7.1312,7.1312,7.1312,7.1312,7.1312,7.1312,7.1312,7.1312,7.1312,7.1312,7.1312,7.1312,7.1312,7.1312,7.1312,7.1143,7.0156,6.9316,6.8634,6.8054,6.7548,6.7034,6.6544,6.6045,6.5538,6.5053,6.5053,6.5297,6.5483,6.6396,6.7542,6.8535,6.9445,7.0363,7.1131,7.1312,7.1312,7.1312,7.1312,7.1312,7.1312,7.1312,7.1312,7.1312,7.1312,7.1312,7.1312,7.1312,7.1312,7.1312,7.1312,7.1616,7.2326,7.1853,7.1751,7.236,7.2293,7.1954,7.1345,7.1921,7.2156,7.1993,7.264,7.2404,7.1323,7.1275,7.0733,6.9798,6.9798,6.9798,4.4945,4.6022,4.71,4.8476,4.9793,5.069,5.0391,5.0331,5.0032,4.906,4.8057,4.7668,4.8626,4.8865,5.0331,5.47,5.7244,5.9129,6.0535,6.1523,6.245,6.3378,6.3498,6.3498,6.3498,6.3498,6.3436,6.3339,6.3424,6.3622,6.3963,6.4802,6.5754,6.6649,6.7816,6.8912,7.0063,7.0608,7.1007,7.1312,7.1312,7.1312,7.1312,7.1312,7.1312,7.1312,7.1312,7.1312,7.1312,7.1312,7.1312,7.1312,7.1312,7.1312,7.1312,7.1312,7.1222,7.0961,7.0343,6.9874,6.9574,6.9156,6.8634,6.8086,6.7612,6.7046,6.6501,6.5947,6.5677,6.5592,6.6045,6.6994,6.8101,6.9123,6.9874,7.0549,7.1176,7.1312,7.1312,7.1312,7.1312,7.1312,7.1312,7.1312,7.1312,7.1312,7.1312,7.1312,7.1312,7.1312,7.1312,7.1312,7.1312,7.1616,7.2326,7.209,7.1887,7.1819,7.1819,7.165,7.1312,7.2022,7.2349,7.2211,7.278,7.2579,7.1512,7.137,7.0766,6.9798,7.0196,7.0394,4.4736,4.5574,4.6531,4.8356,4.9912,5.1079,5.1379,5.1558,5.1349,5.0182,4.9434,4.9134,4.9643,5.0631,5.2826,5.7393,5.8949,6.0176,6.1852,6.2241,6.251,6.3019,6.3079,6.3079,6.3079,6.3137,6.3309,6.3481,6.3622,6.3906,6.4382,6.4991,6.5754,6.6523,6.7612,6.8666,6.9699,7.025,7.0779,7.1312,7.1312,7.1312,7.1312,7.1312,7.1312,7.1312,7.1312,7.1312,7.1312,7.1312,7.1312,7.1312,7.1312,7.1312,7.1312,7.1312,7.1176,7.0961,7.0779,7.0595,7.041,7.0223,6.9765,6.9237,6.8716,6.8169,6.7644,6.7078,6.668,6.6491,6.6806,6.7714,6.8716,6.9651,7.025,7.0699,7.1222,7.1312,7.1312,7.1312,7.1312,7.1312,7.1312,7.1312,7.1312,7.1312,7.1312,7.1312,7.1312,7.1312,7.1312,7.1312,7.1312,7.1548,7.209,7.2157,7.1921,7.1345,7.1312,7.1312,7.1312,7.2022,7.2394,7.2394,7.292,7.272,7.1701,7.1465,7.0961,7.0063,7.0626,7.0991,4.4197,4.4855,4.5693,4.71,4.8895,5.0584,5.1858,5.2606,5.2845,5.2127,5.1468,5.102,5.1079,5.3144,5.5568,5.7752,5.9727,6.1224,6.2002,6.263,6.3019,6.3079,6.3079,6.3079,6.3079,6.3309,6.3481,6.3538,6.4019,6.4326,6.4382,6.5211,6.5969,6.6586,6.7644,6.8699,6.9798,7.0236,7.0779,7.1312,7.1312,7.1312,7.1312,7.1312,7.1312,7.1312,7.1312,7.1312,7.1312,7.1312,7.1312,7.1312,7.1312,7.1312,7.1312,7.1312,7.1267,7.1267,7.1267,7.1222,7.1222,7.1222,7.0825,7.0283,6.9746,6.922,6.8683,6.8154,6.8304,6.8584,6.8169,6.8699,6.9478,7.0283,7.0654,7.0961,7.1222,7.1312,7.1312,7.1312,7.1312,7.1312,7.1312,7.1312,7.1312,7.1312,7.1312,7.1312,7.1312,7.1312,7.1312,7.1312,7.1312,7.1345,7.1379,7.1379,7.1379,7.1312,7.1312,7.1312,7.1312,7.2022,7.2394,7.2394,7.3105,7.2907,7.1701,7.1654,7.1384,7.0825,7.0891,7.1256,4.4137,4.4496,4.5095,4.686,4.8177,4.9583,5.1708,5.3683,5.485,5.4192,5.4192,5.4042,5.3234,5.4251,5.5837,5.7812,5.9458,6.0864,6.1942,6.266,6.3194,6.3367,6.3367,6.3424,6.3652,6.3766,6.3849,6.4075,6.427,6.4524,6.4691,6.532,6.5969,6.6523,6.7644,6.8666,6.9732,7.025,7.0779,7.1312,7.1312,7.1312,7.1312,7.1312,7.1312,7.1312,7.1312,7.1312,7.1312,7.1312,7.1312,7.1312,7.1312,7.1312,7.1312,7.1312,7.1312,7.1312,7.1312,7.1312,7.1312,7.1312,7.1052,7.0654,7.0296,6.9969,6.9622,6.9252,6.9397,6.9622,6.922,6.9589,7.0236,7.087,7.1052,7.1176,7.1267,7.1312,7.1312,7.1312,7.1312,7.1312,7.1312,7.1312,7.1312,7.1312,7.1312,7.1312,7.1312,7.1312,7.1312,7.1312,7.1312,7.1312,7.1312,7.1312,7.1312,7.1312,7.1312,7.1312,7.1312,7.1582,7.1718,7.1718,7.2428,7.2527,7.1887,7.2183,7.2133,7.183,7.2149,7.2415,4.3858,4.3977,4.4436,4.6232,4.7339,4.8656,5.1289,5.3952,5.5777,5.5538,5.5688,5.5538,5.4431,5.476,5.5777,5.7513,5.8919,6.0326,6.1882,6.2595,6.3069,6.3451,6.3595,6.3766,6.3993,6.4106,6.4188,6.4382,6.4524,6.4635,6.4888,6.5406,6.5969,6.6523,6.7644,6.8666,6.9699,7.025,7.0779,7.1312,7.1312,7.1312,7.1312,7.1312,7.1312,7.1312,7.1312,7.1312,7.1312,7.1312,7.1312,7.1312,7.1312,7.1312,7.1312,7.1312,7.1312,7.1312,7.1312,7.1312,7.1312,7.1312,7.1176,7.0961,7.0825,7.0641,7.0502,7.0316,7.041,7.0502,7.025,7.0389,7.0733,7.1222,7.1312,7.1312,7.1312,7.1312,7.1312,7.1312,7.1312,7.1312,7.1312,7.1312,7.1312,7.1312,7.1312,7.1312,7.1312,7.1312,7.1312,7.1312,7.1312,7.1312,7.1312,7.1312,7.1312,7.1312,7.1312,7.1312,7.1312,7.1312,7.1413,7.165,7.2157,7.2358,7.2363,7.268,7.2811,7.2741,7.3077,7.3343,4.329,4.329,4.3618,4.4975,4.6352,4.8027,5.0661,5.3294,5.5388,5.6128,5.5658,5.4999,5.4341,5.476,5.5598,5.6885,5.8201,5.9787,6.1792,6.2345,6.2755,6.3448,6.3823,6.3993,6.3993,6.4244,6.4382,6.4382,6.4691,6.4888,6.4888,6.5406,6.5969,6.6617,6.7644,6.8699,6.9798,7.0236,7.0779,7.1312,7.1312,7.1312,7.1312,7.1312,7.1312,7.1312,7.1312,7.1312,7.1312,7.1312,7.1312,7.1312,7.1312,7.1312,7.1312,7.1312,7.1312,7.1312,7.1312,7.1312,7.1312,7.1312,7.1312,7.1312,7.1312,7.1312,7.1312,7.1312,7.1312,7.1312,7.1312,7.1131,7.0961,7.1222,7.1312,7.1312,7.1312,7.1312,7.1312,7.1312,7.1312,7.1312,7.1312,7.1312,7.1312,7.1312,7.1312,7.1312,7.1312,7.1312,7.1312,7.1312,7.1345,7.1345,7.1345,7.1345,7.1345,7.1345,7.1345,7.1312,7.1312,7.1312,7.165,7.2394,7.2428,7.2628,7.3137,7.3137,7.3256,7.3556,7.3473,7.3774,4.3898,4.4377,4.5155,4.695,4.8745,5.0631,5.2815,5.4281,5.5777,5.7812,5.7334,5.6398,5.5972,5.5661,5.5752,5.6594,5.7888,5.9302,6.0751,6.1855,6.2742,6.3346,6.3939,6.4356,6.461,6.4721,6.4777,6.4777,6.4832,6.4888,6.4888,6.5406,6.5938,6.6523,6.7612,6.8666,6.9699,7.025,7.0779,7.1312,7.1312,7.1582,7.2056,7.1548,7.1582,7.2056,7.1548,7.1312,7.1312,7.1312,7.1312,7.1312,7.1312,7.1312,7.1312,7.1312,7.1312,7.1312,7.1312,7.1312,7.1312,7.1312,7.1312,7.1312,7.1312,7.1312,7.1312,7.1312,7.1312,7.1312,7.1312,7.1222,7.1222,7.1267,7.1312,7.1312,7.1312,7.1312,7.1312,7.1312,7.1312,7.1312,7.1312,7.1312,7.1312,7.1312,7.1312,7.1312,7.1312,7.1751,7.209,7.209,7.2529,7.2834,7.2834,7.2834,7.2834,7.2834,7.2834,7.2394,7.1345,7.1819,7.2191,7.2394,7.3409,7.4005,7.4148,7.4464,7.469,7.4746,7.4437,7.4323,4.4436,4.5185,4.6292,4.8835,5.072,5.2665,5.5179,5.6077,5.6885,5.871,5.8261,5.7408,5.7088,5.6687,5.6566,5.6958,5.7872,5.9047,6.0343,6.1539,6.2572,6.3287,6.4095,6.4691,6.4888,6.4998,6.5108,6.5187,6.5297,6.5406,6.56,6.6,6.6396,6.6837,6.7816,6.8814,6.9732,7.0283,7.0779,7.1312,7.1312,7.1853,7.28,7.1785,7.1548,7.1954,7.1515,7.1312,7.1312,7.1312,7.1312,7.1312,7.1312,7.1312,7.1312,7.1312,7.1312,7.1312,7.1312,7.1312,7.1312,7.1312,7.1312,7.1312,7.1312,7.1312,7.1312,7.1312,7.1312,7.1312,7.1312,7.1312,7.1312,7.1312,7.1312,7.1312,7.1312,7.1312,7.1312,7.1312,7.1312,7.1312,7.1312,7.1312,7.1312,7.1312,7.1312,7.1312,7.1312,7.1954,7.2394,7.2394,7.3037,7.3477,7.3477,7.3477,7.3477,7.3477,7.3477,7.3105,7.2225,7.2597,7.2969,7.3274,7.4153,7.4762,7.5033,7.533,7.5422,7.5277,7.5018,7.4821,4.5005,4.5992,4.7369,5.0601,5.2516,5.4431,5.7513,5.8201,5.8381,5.8979,5.862,5.8075,5.779,5.7773,5.7773,5.7803,5.8316,5.9161,6.0307,6.128,6.2275,6.322,6.4199,6.4826,6.4888,6.5132,6.546,6.5754,6.6045,6.6364,6.6744,6.6953,6.7181,6.7439,6.8251,6.8994,6.9765,7.0236,7.0779,7.1312,7.1312,7.1988,7.324,7.1921,7.1312,7.1312,7.1312,7.1312,7.1312,7.1379,7.1413,7.1413,7.1413,7.1413,7.1413,7.1345,7.1312,7.1312,7.1312,7.1312,7.1312,7.1312,7.1312,7.1312,7.1312,7.1312,7.1312,7.1312,7.1312,7.1312,7.1312,7.1312,7.1312,7.1312,7.1312,7.1312,7.1312,7.1312,7.1312,7.1312,7.1312,7.1312,7.1312,7.1312,7.1312,7.1312,7.1312,7.1345,7.1413,7.2056,7.2529,7.2597,7.324,7.368,7.368,7.368,7.368,7.368,7.368,7.368,7.368,7.3612,7.3916,7.4593,7.4695,7.5033,7.5709,7.5709,7.5566,7.5325,7.5325,7.5179,4.5562,4.7339,4.9284,5.2067,5.494,5.7393,5.862,5.889,5.8949,5.9069,5.9009,5.8913,5.9084,5.9108,5.9161,5.9455,5.9577,5.9789,6.0062,6.0775,6.1575,6.2517,6.3244,6.4052,6.4826,6.5351,6.5777,6.628,6.6806,6.724,6.7751,6.7802,6.7903,6.7953,6.8535,6.9123,6.9699,7.025,7.0779,7.1312,7.1312,7.1481,7.1751,7.1447,7.1312,7.1312,7.1312,7.1312,7.1345,7.1921,7.2157,7.2157,7.2157,7.2157,7.209,7.1515,7.1312,7.1312,7.1312,7.1312,7.1312,7.1312,7.1312,7.1312,7.1312,7.1312,7.1312,7.1312,7.1312,7.1312,7.1312,7.1312,7.1312,7.1312,7.1312,7.1312,7.1312,7.1312,7.1312,7.1312,7.1312,7.1312,7.1312,7.1312,7.1312,7.1312,7.1312,7.1515,7.209,7.28,7.3477,7.4086,7.4796,7.5236,7.5236,7.5236,7.5236,7.5236,7.5236,7.5236,7.5236,7.4661,7.4458,7.4627,7.5168,7.554,7.5709,7.5709,7.5662,7.5614,7.5422,7.5277,4.6172,4.8237,5.0661,5.4581,5.7094,5.868,5.9039,5.9099,5.9099,5.9099,5.9099,5.9153,5.9476,5.9529,5.9583,5.9933,5.988,5.9827,6.0016,6.0455,6.12,6.2249,6.2975,6.3789,6.4826,6.5406,6.5969,6.6501,6.7046,6.758,6.8136,6.8286,6.8386,6.8535,6.9058,6.9589,7.011,7.0515,7.0916,7.1312,7.1312,7.1312,7.1312,7.1312,7.1312,7.1312,7.1312,7.1312,7.1345,7.1718,7.209,7.236,7.2022,7.209,7.2326,7.1582,7.1312,7.1312,7.1312,7.1312,7.1312,7.1312,7.1312,7.1312,7.1312,7.1312,7.1312,7.1312,7.1312,7.1312,7.1312,7.1312,7.1312,7.1312,7.1312,7.1312,7.1312,7.1312,7.1312,7.1312,7.1312,7.1312,7.1312,7.1312,7.1312,7.1312,7.1312,7.1582,7.2326,7.3037,7.3781,7.4525,7.527,7.5709,7.5709,7.5709,7.5709,7.5709,7.5709,7.5709,7.5709,7.5337,7.5134,7.5134,7.5506,7.5709,7.5709,7.5709,7.5709,7.5709,7.5566,7.5518,4.6411,4.9075,5.2199,5.7094,5.871,5.9099,5.9099,5.9099,5.9099,5.9099,5.9099,5.9153,5.9369,5.9422,5.9529,5.988,5.969,5.9583,5.988,6.0204,6.0832,6.2042,6.2737,6.355,6.4586,6.5313,6.5969,6.6533,6.7078,6.7644,6.8119,6.8468,6.8797,6.914,6.9622,7.0176,7.0608,7.087,7.1052,7.1312,7.1312,7.1312,7.1312,7.1312,7.1312,7.1312,7.1312,7.1312,7.1312,7.1447,7.1921,7.2529,7.1785,7.1954,7.2496,7.1616,7.1312,7.1312,7.1312,7.1312,7.1312,7.1312,7.1312,7.1312,7.1312,7.1312,7.1312,7.1312,7.1312,7.1312,7.1312,7.1312,7.1312,7.1312,7.1312,7.1312,7.1312,7.1312,7.1312,7.1312,7.1312,7.1312,7.1312,7.1312,7.1312,7.1312,7.1312,7.1616,7.2462,7.3105,7.3815,7.4695,7.5337,7.5709,7.5709,7.5709,7.5709,7.5709,7.5709,7.5709,7.5709,7.5709,7.5709,7.5709,7.5709,7.5709,7.5709,7.5709,7.5709,7.5709,7.5709,7.5709,4.5723,5.0421,5.5239,5.8231,5.9039,5.9099,5.9099,5.9099,5.9099,5.9099,5.9099,5.9099,5.9153,5.9153,5.9261,5.9529,5.9529,5.9529,5.9583,5.962,6.0029,6.1072,6.1795,6.2683,6.3848,6.5033,6.5969,6.6438,6.7014,6.7548,6.8104,6.8584,6.9074,6.9604,7.011,7.0687,7.1176,7.1222,7.1267,7.1312,7.1312,7.1312,7.1312,7.1312,7.1312,7.1312,7.1312,7.1312,7.1379,7.1988,7.2699,7.3274,7.2529,7.2699,7.3172,7.1819,7.1312,7.1312,7.1312,7.1312,7.1312,7.1312,7.1312,7.1312,7.1312,7.1312,7.1312,7.1312,7.1312,7.1312,7.1312,7.1312,7.1312,7.1312,7.1312,7.1312,7.1312,7.1312,7.1312,7.1312,7.1312,7.1312,7.1312,7.1312,7.1312,7.1312,7.1312,7.1819,7.3172,7.3443,7.4018,7.5405,7.5642,7.5709,7.5709,7.5709,7.5709,7.5709,7.5709,7.5709,7.5709,7.5709,7.5709,7.5709,7.5709,7.5709,7.5709,7.5709,7.5709,7.5709,7.5709,7.5709,4.7236,5.1798,5.5807,5.8441,5.9099,5.9099,5.9099,5.9099,5.9009,5.862,5.856,5.865,5.9039,5.9099,5.9207,5.9476,5.9369,5.9315,5.9476,5.9369,5.9717,6.0866,6.1588,6.2476,6.3694,6.4839,6.5646,6.5991,6.6575,6.7149,6.7714,6.8369,6.9058,6.9732,7.0236,7.0577,7.0669,7.1109,7.1312,7.1312,7.1312,7.1312,7.1312,7.1312,7.1312,7.1312,7.1312,7.1312,7.1345,7.165,7.2225,7.28,7.209,7.2225,7.2766,7.1684,7.1312,7.1312,7.1312,7.1312,7.1312,7.1312,7.1312,7.1312,7.1312,7.1312,7.1312,7.1312,7.1312,7.1312,7.1312,7.1312,7.1312,7.1312,7.1312,7.1312,7.1312,7.1312,7.1312,7.1312,7.1312,7.1312,7.1312,7.1312,7.1312,7.1312,7.165,7.2293,7.3341,7.3849,7.4525,7.5574,7.5709,7.5709,7.5709,7.5709,7.5709,7.5709,7.5709,7.5709,7.5709,7.5709,7.5709,7.5709,7.5709,7.5709,7.5709,7.5709,7.5709,7.5709,7.5709,7.5709,4.8386,5.2037,5.5029,5.7483,5.8231,5.8411,5.856,5.874,5.877,5.8441,5.8381,5.853,5.9009,5.8979,5.8973,5.9339,5.9207,5.9153,5.9369,5.9207,5.9495,6.0493,6.1389,6.2306,6.334,6.4443,6.5187,6.5483,6.6054,6.6638,6.713,6.805,6.8896,6.9765,7.0036,7.0208,7.0195,7.0737,7.1041,7.1041,7.121,7.1312,7.1312,7.1312,7.1312,7.1312,7.1312,7.1312,7.1312,7.1312,7.1751,7.2326,7.1616,7.1751,7.2326,7.1582,7.1312,7.1312,7.1312,7.1312,7.1312,7.1312,7.1312,7.1312,7.1312,7.1312,7.1312,7.1312,7.1312,7.1312,7.1312,7.1312,7.1312,7.1312,7.1312,7.1312,7.1312,7.1312,7.1312,7.1312,7.1312,7.1312,7.1312,7.1312,7.1379,7.1548,7.2056,7.2732,7.3646,7.4255,7.4897,7.5608,7.5709,7.5709,7.5709,7.5709,7.5709,7.5709,7.5709,7.5709,7.5709,7.5709,7.5709,7.5709,7.5709,7.5709,7.5709,7.5709,7.5709,7.5709,7.5709,7.5709,4.7788,5.0331,5.2845,5.488,5.5867,5.6466,5.7064,5.7693,5.8351,5.8919,5.9069,5.9069,5.9099,5.859,5.8381,5.9009,5.9099,5.9099,5.9099,5.9099,5.9237,5.9506,6.0705,6.1795,6.2425,6.3672,6.4579,6.4943,6.546,6.5991,6.6491,6.7612,6.8666,6.9666,6.9549,6.9704,7.0195,7.0229,7.0263,7.0263,7.0973,7.1312,7.1312,7.1312,7.1312,7.1312,7.1312,7.1312,7.1312,7.1312,7.1751,7.2326,7.1616,7.1751,7.2326,7.1582,7.1312,7.1312,7.1312,7.1312,7.1312,7.1312,7.1312,7.1312,7.1312,7.1312,7.1312,7.1312,7.1312,7.1312,7.1312,7.1312,7.1312,7.1312,7.1312,7.1312,7.1312,7.1312,7.1312,7.1312,7.1312,7.1312,7.1312,7.1312,7.1548,7.2225,7.2394,7.2935,7.4356,7.4593,7.4897,7.5608,7.5709,7.5709,7.5709,7.5709,7.5709,7.5709,7.5709,7.5709,7.5709,7.5709,7.5709,7.5709,7.5709,7.5709,7.5709,7.5709,7.5709,7.5709,7.5709,7.5709,4.5424,4.7668,5.0062,5.1618,5.3144,5.4551,5.5628,5.6705,5.7663,5.8351,5.8471,5.8471,5.8471,5.862,5.8979,5.9638,5.9727,5.9877,6.0326,6.0386,6.0346,6.0169,6.1338,6.2193,6.2371,6.3783,6.4881,6.5406,6.6076,6.6764,6.7304,6.8369,6.9285,7.0002,6.9812,6.9614,6.9485,6.8977,6.9214,7.0195,7.0466,7.0838,7.1312,7.1312,7.1312,7.1312,7.1312,7.1312,7.1312,7.1312,7.1481,7.1684,7.1413,7.1481,7.1684,7.1413,7.1312,7.1312,7.1312,7.1312,7.1312,7.1312,7.1312,7.1312,7.1312,7.1312,7.1312,7.1312,7.1312,7.1312,7.1312,7.1312,7.1312,7.1312,7.1684,7.2022,7.2022,7.165,7.1312,7.1312,7.1684,7.2022,7.2022,7.2394,7.28,7.3071,7.351,7.4018,7.4559,7.5033,7.5405,7.5676,7.5709,7.5709,7.5709,7.5709,7.5709,7.5709,7.5709,7.5709,7.5709,7.5709,7.5709,7.5709,7.5709,7.5709,7.5709,7.5709,7.5709,7.5709,7.5709,7.5709,4.3599,4.5274,4.7279,4.8551,5.0242,5.1947,5.3503,5.5029,5.6436,5.7543,5.7962,5.8201,5.8411,5.8979,5.9578,6.0027,6.0266,6.0595,6.1044,6.1104,6.101,6.0751,6.1683,6.2389,6.2433,6.3795,6.4991,6.5723,6.6659,6.7491,6.8269,6.9091,6.9566,6.9708,6.9346,6.887,6.8335,6.803,6.8402,6.9417,6.9925,7.0601,7.1312,7.1312,7.1447,7.1684,7.1413,7.1312,7.1312,7.1312,7.1312,7.1312,7.1312,7.1312,7.1312,7.1312,7.1312,7.1312,7.1312,7.1312,7.1312,7.1312,7.1312,7.1312,7.1312,7.1312,7.1312,7.1312,7.1312,7.1312,7.1312,7.1312,7.1312,7.1312,7.1853,7.2394,7.2394,7.2225,7.2056,7.2056,7.2428,7.2766,7.2766,7.3172,7.3578,7.3815,7.4289,7.4695,7.4931,7.5405,7.5709,7.5709,7.5709,7.5709,7.5709,7.5709,7.5709,7.5709,7.5709,7.5709,7.5709,7.5709,7.5709,7.5709,7.5709,7.5709,7.5709,7.5709,7.5709,7.5709,7.5709,7.5709,0.0,0.0,0.0,4.5771,4.716,4.8686,5.0631,5.2665,5.467,5.6645,5.7603,5.8291,5.8979,5.9638,6.0086,6.0086,6.0685,6.1164,6.1164,6.1164,6.1164,6.1134,6.1732,6.2205,6.2483,6.365,6.485,6.5929,6.689,6.7917,6.922,6.9589,6.943,6.8718,6.8171,6.7557,6.6812,6.7523,6.7895,6.7963,6.9451,7.0567,7.1345,7.1312,7.1718,7.236,7.1616,7.1312,7.1312,7.1312,7.1312,7.1312,7.1312,7.1312,7.1345,7.1312,7.1312,7.1345,7.1312,7.1312,7.1312,7.1312,7.1312,7.1312,7.1312,7.1312,7.1312,7.1312,7.1312,7.1312,7.1312,7.1345,7.1345,7.1345,7.1921,7.2462,7.2462,7.3037,7.3544,7.3477,7.351,7.351,7.351,7.3544,7.3815,7.4525,7.4661,7.4897,7.5608,7.5709,7.5709,7.5709,7.5709,7.5709,7.5709,7.5709,7.5709,7.5709,7.5709,7.5709,7.5709,7.5709,7.5709,7.5709,7.5709,7.5709,7.5709,7.5709,7.5709,7.5709,7.5709,7.5709,4.0397,0.0,0.0,0.0,0.0,0.0,4.7339,4.9942,5.2755,5.5209,5.6615,5.7723,5.889,5.9638,6.0086,6.0086,6.1074,6.2002,6.248,6.254,6.2361,6.1882,6.2421,6.2714,6.2544,6.365,6.485,6.596,6.689,6.7899,6.9042,6.9221,6.9082,6.8684,6.8031,6.7386,6.6812,6.7015,6.7658,6.8774,6.9214,7.0364,7.209,7.1548,7.1718,7.236,7.1616,7.1312,7.1312,7.1312,7.1312,7.1312,7.1312,7.165,7.2022,7.1515,7.165,7.2022,7.1515,7.1312,7.1312,7.1312,7.1312,7.1312,7.1312,7.1312,7.1312,7.1312,7.1312,7.1312,7.1312,7.1718,7.209,7.209,7.3071,7.3984,7.3984,7.4559,7.4762,7.368,7.3916,7.4289,7.4289,7.4728,7.5168,7.5371,7.5405,7.5473,7.5676,7.5709,7.5709,7.5709,7.5709,7.5709,7.5709,7.5709,7.5709,7.5709,7.5709,7.5709,7.5709,7.5709,7.5709,7.5709,7.5709,7.5709,7.5709,7.5709,7.5709,7.5709,7.5709,7.5709,3.9553,3.9709,4.0068,4.0337,0.0,0.0,4.5125,4.7608,5.0331,5.2995,5.4551,5.5867,5.7214,5.8022,5.8441,5.8441,5.9787,6.1283,6.248,6.2899,6.2929,6.254,6.2839,6.3044,6.2795,6.3607,6.4629,6.5607,6.6417,6.7407,6.8748,6.871,6.8581,6.8417,6.7554,6.7122,6.7116,6.7244,6.7895,6.9113,6.9417,7.0567,7.236,7.165,7.1887,7.28,7.1751,7.1312,7.1312,7.1312,7.1312,7.1312,7.1312,7.1751,7.236,7.1921,7.2022,7.2326,7.1921,7.1582,7.1312,7.1312,7.1312,7.1312,7.1312,7.1312,7.1312,7.1312,7.1312,7.1312,7.1312,7.1853,7.2394,7.2394,7.3544,7.4627,7.4627,7.5202,7.5439,7.4559,7.4762,7.5067,7.5067,7.5405,7.5709,7.5709,7.5709,7.5709,7.5709,7.5709,7.5709,7.5709,7.5709,7.5709,7.5709,7.5709,7.5709,7.5709,7.5709,7.5709,7.5709,7.5709,7.5709,7.5709,7.5709,7.5709,7.5709,7.5709,7.5709,7.5709,7.5709,7.5709,3.9589,3.9373,3.9559,4.0157,4.0786,0.0,4.3479,4.5424,4.7578,5.0032,5.1678,5.3054,5.4401,5.5179,5.5628,5.5628,5.7334,5.9428,6.1583,6.251,6.2989,6.3079,6.3079,6.3079,6.3079,6.3565,6.4183,6.4978,6.5714,6.689,6.8451,6.8126,6.792,6.7966,6.6976,6.6724,6.7406,6.7622,6.8079,6.889,6.9634,7.0738,7.2223,7.1514,7.1953,7.3316,7.1864,7.1222,7.1267,7.1267,7.1312,7.1312,7.1312,7.1819,7.2496,7.2428,7.2462,7.2496,7.2428,7.1921,7.1312,7.1312,7.1312,7.1312,7.1312,7.1312,7.1312,7.1312,7.1312,7.1312,7.1312,7.1921,7.2529,7.2529,7.3646,7.4728,7.4728,7.5236,7.5709,7.5709,7.5709,7.5709,7.5709,7.5709,7.5709,7.5709,7.5709,7.5709,7.5709,7.5709,7.5709,7.5709,7.5709,7.5709,7.5709,7.5709,7.5709,7.5709,7.5709,7.5709,7.5709,7.5709,7.5709,7.5709,7.5709,7.5709,7.5709,7.5709,7.5709,7.5709,7.5709,7.5709,3.9469,3.9373,3.9403,3.9589,4.0098,0.0,4.1085,4.2701,4.4515,4.6112,4.7938,4.9643,5.096,5.1738,5.2187,5.2187,5.4311,5.7004,6.0057,6.1523,6.248,6.3019,6.3079,6.3079,6.3079,6.3424,6.3819,6.4432,6.5875,6.7066,6.7899,6.7377,6.7208,6.7658,6.6579,6.6065,6.6417,6.6426,6.6829,6.7567,6.8082,6.9428,7.1398,7.0509,7.0975,7.2434,7.1198,7.0779,7.0961,7.1222,7.1312,7.1312,7.1312,7.2124,7.3206,7.2631,7.2766,7.3206,7.2597,7.1921,7.1312,7.1312,7.1312,7.1312,7.1312,7.1312,7.1312,7.1312,7.1312,7.1312,7.1312,7.2293,7.3274,7.3274,7.439,7.5473,7.5473,7.5608,7.5709,7.5709,7.5709,7.5709,7.5709,7.5709,7.5709,7.5709,7.5709,7.5709,7.5709,7.5709,7.5709,7.5709,7.5709,7.5709,7.5709,7.5709,7.5709,7.5709,7.5709,7.5709,7.5709,7.5709,7.5709,7.5709,7.5709,7.5709,7.5709,7.5709,7.5709,7.5709,7.5709,7.5709,4.0397,4.0157,3.9918,3.9918,3.9918,0.0,0.0,4.1414,4.2731,4.4077,4.5394,4.6711,4.7983,4.8521,4.8895,4.9224,5.1498,5.4012,5.6316,5.9518,6.1972,6.2959,6.3079,6.3079,6.3079,6.3252,6.3451,6.3876,6.5063,6.6089,6.6649,6.648,6.6561,6.6973,6.6232,6.6024,6.6489,6.6989,6.7558,6.8159,6.8447,6.9306,7.0565,6.9451,6.9763,7.1061,7.0021,6.9962,7.0699,7.0771,7.0973,7.1312,7.1312,7.2191,7.3443,7.3071,7.3172,7.3443,7.3071,7.2225,7.1312,7.1312,7.1312,7.1312,7.1312,7.1312,7.1312,7.1312,7.1312,7.1312,7.1312,7.2394,7.3477,7.3477,7.4627,7.5709,7.5709,7.5709,7.5709,7.5709,7.5709,7.5709,7.5709,7.5709,7.5709,7.5709,7.5709,7.5709,7.5709,7.5709,7.5709,7.5709,7.5709,7.5709,7.5709,7.5709,7.5709,7.5709,7.5709,7.5709,7.5709,7.5709,7.5709,7.5709,7.5709,7.5709,7.5709,7.5709,7.5709,7.5709,7.5709,7.5709,4.1422,4.0995,4.0546,4.0427,4.0008,3.9709,0.0,0.0,0.0,4.2402,4.312,4.3898,4.4934,4.5394,4.5753,4.6262,4.8566,5.078,5.2217,5.6466,6.0116,6.2091,6.2421,6.254,6.269,6.2987,6.3309,6.3622,6.4295,6.493,6.5584,6.5823,6.6145,6.6549,6.6291,6.6423,6.7022,6.7768,6.8323,6.8692,6.8789,6.9026,6.9253,6.8248,6.8363,6.9271,6.8579,6.9036,7.0296,7.0276,7.0749,7.1424,7.1334,7.2191,7.3477,7.3477,7.3578,7.3713,7.3713,7.2732,7.1515,7.1515,7.1447,7.1312,7.1312,7.1312,7.1312,7.1312,7.1312,7.1312,7.1312,7.2394,7.3477,7.3477,7.4627,7.5709,7.5709,7.5709,7.5709,7.5709,7.5709,7.5709,7.5709,7.5709,7.5709,7.5709,7.5709,7.5709,7.5709,7.5709,7.5709,7.5709,7.5709,7.5709,7.5709,7.5709,7.5709,7.5709,7.5709,7.5709,7.5709,7.5709,7.5709,7.5709,7.5709,7.5709,7.5709,7.5709,7.5709,7.5709,7.5709,7.5709,4.1422,4.1324,4.1115,4.0546,4.0337,4.0157,3.9649,0.0,3.9679,3.9792,0.0,4.0876,4.1055,0.0,0.0,4.295,4.5155,4.7549,4.9479,5.1738,5.479,5.9039,6.0057,6.0655,6.1283,6.2618,6.3679,6.427,6.4382,6.4826,6.5646,6.5972,6.6424,6.7003,6.7264,6.7413,6.7512,6.7625,6.746,6.7024,6.7297,6.7113,6.6727,6.6771,6.6791,6.6827,6.7115,6.816,6.9589,7.0263,7.1081,7.1904,7.1458,7.2191,7.3477,7.3477,7.3916,7.4492,7.4492,7.351,7.2293,7.2293,7.1853,7.1312,7.1312,7.1312,7.1312,7.1312,7.1312,7.1312,7.1312,7.2394,7.3477,7.3477,7.4627,7.5709,7.5709,7.5709,7.5709,7.5709,7.5709,7.5709,7.5709,7.5709,7.5709,7.5709,7.5709,7.5709,7.5709,7.5709,7.5709,7.5709,7.5709,7.5709,7.5709,7.5709,7.5709,7.5709,7.5709,7.5709,7.5709,7.5709,7.5709,7.5709,7.5709,7.5709,7.5709,7.5709,7.5709,7.5709,7.5709,7.5709,4.3658,4.309,4.2432,4.2124,4.1534,4.0786,4.0127,3.9978,3.9978,3.9978,0.0,0.0,0.0,0.0,0.0,0.0,4.4496,4.6172,4.7399,4.8925,5.1648,5.6286,5.7723,5.8973,6.0606,6.2511,6.3507,6.3196,6.3666,6.4156,6.4568,6.5293,6.5931,6.6552,6.7239,6.7566,6.7566,6.8042,6.7881,6.7214,6.6641,6.6046,6.5324,6.4386,6.4062,6.433,6.4558,6.6085,6.8552,6.9188,7.041,7.1761,7.1874,7.2326,7.2902,7.3341,7.3409,7.3375,7.3815,7.3003,7.1751,7.1751,7.1548,7.1312,7.1312,7.1312,7.1312,7.1312,7.1312,7.1312,7.1312,7.2394,7.3477,7.3477,7.4627,7.5709,7.5709,7.5709,7.5709,7.5709,7.5709,7.5709,7.5709,7.5709,7.5709,7.5709,7.5709,7.5709,7.5709,7.5709,7.5709,7.5709,7.5709,7.5709,7.5709,7.5709,7.5709,7.5709,7.5709,7.5709,7.5709,7.5709,7.5709,7.5709,7.5709,7.5709,7.5709,7.5709,7.5709,7.5709,7.5709,7.5709,4.5125,4.4466,4.3798,4.3618,4.2761,4.1683,4.0846,4.0666,4.0606,4.0427,4.0546,0.0,0.0,0.0,4.25,4.2761,0.0,4.4915,4.5382,4.6471,4.8775,5.3054,5.5179,5.7251,5.9553,6.1462,6.2334,6.1898,6.225,6.2749,6.3202,6.4255,6.5195,6.6014,6.7151,6.7786,6.7881,6.8503,6.84,6.7572,6.6607,6.5638,6.4564,6.3176,6.2622,6.271,6.311,6.4902,6.7702,6.8536,6.9868,7.1508,7.2109,7.2153,7.2009,7.3092,7.3138,7.28,7.3544,7.2834,7.1582,7.1379,7.1312,7.1312,7.1312,7.1312,7.1312,7.1312,7.1312,7.1379,7.1548,7.2563,7.3544,7.3747,7.4762,7.5709,7.5709,7.5709,7.5709,7.5709,7.5709,7.5709,7.5709,7.5709,7.5709,7.5709,7.5709,7.5709,7.5709,7.5709,7.5709,7.5709,7.5709,7.5709,7.5709,7.5709,7.5709,7.5709,7.5709,7.5709,7.5709,7.5709,7.5709,7.5709,7.5709,7.5709,7.5709,7.5709,7.5709,7.5709,7.5709,7.5709,4.4706,4.4766,4.5065,4.4436,4.3738,4.2901,4.1654,4.1392,4.1175,4.0516,4.0905,4.1392,4.1414,4.1961,4.2201,4.1534,4.2551,0.0,0.0,4.3977,4.5693,4.912,5.2336,5.526,5.781,5.8887,5.9817,6.0773,5.9961,6.0175,6.1809,6.3089,6.4288,6.5468,6.7245,6.8336,6.8584,6.8863,6.8617,6.7765,6.7137,6.5954,6.4305,6.4076,6.3371,6.2395,6.3634,6.528,6.7256,6.8679,6.9968,7.1125,7.1983,7.1585,7.0809,7.2751,7.3477,7.3544,7.4322,7.3612,7.2259,7.1548,7.1312,7.1312,7.1312,7.1312,7.1312,7.1312,7.1312,7.1481,7.2191,7.2935,7.368,7.439,7.5168,7.5709,7.5709,7.5709,7.5709,7.5709,7.5709,7.5709,7.5709,7.5709,7.5709,7.5709,7.5709,7.5709,7.5709,7.5709,7.5709,7.5709,7.5709,7.5709,7.5709,7.5709,7.5709,7.5709,7.5709,7.5709,7.5709,7.5709,7.5709,7.5709,7.5709,7.5709,7.5709,7.5709,7.5709,7.5709,7.5709,7.5709,4.7189,4.71,4.7219,4.701,4.6112,4.5065,4.4167,4.3329,4.2641,4.2402,4.2162,4.2201,4.2581,4.2851,4.294,4.2701,4.3021,4.329,0.0,4.3499,4.4407,4.6411,4.9553,5.215,5.3675,5.5712,5.6879,5.6677,5.7279,5.8016,5.8837,6.1134,6.2891,6.3943,6.5963,6.7137,6.7478,6.8086,6.7986,6.7233,6.6349,6.5219,6.3919,6.2693,6.1859,6.1549,6.2147,6.3764,6.5998,6.6677,6.8001,6.9676,7.0483,7.0319,6.9926,7.1701,7.1968,7.1518,7.1787,7.1551,7.1127,7.1063,7.1007,7.1086,7.1267,7.1312,7.1312,7.1312,7.1312,7.1481,7.2225,7.2935,7.368,7.4424,7.5168,7.5709,7.5709,7.5709,7.5709,7.5709,7.5709,7.5709,7.5709,7.5709,7.5709,7.5709,7.5709,7.5709,7.5709,7.5709,7.5709,7.5709,7.5709,7.5709,7.5709,7.5709,7.5709,7.5709,7.5709,7.5709,7.5709,7.5709,7.5709,7.5709,7.5709,7.5709,7.5709,7.5709,7.5709,7.5709,7.5709,7.5709,4.8536,4.8446,4.867,4.867,4.7818,4.686,4.6172,4.5185,4.4287,4.3738,4.3359,4.312,4.326,4.329,4.323,4.303,4.314,4.329,0.0,4.315,4.3389,4.4466,4.7057,4.9284,5.0532,5.2292,5.3331,5.3284,5.3975,5.5017,5.6476,5.9012,6.1089,6.2523,6.4658,6.6035,6.6438,6.7395,6.7478,6.6849,6.6121,6.5186,6.4118,6.2535,6.1942,6.2151,6.2461,6.3645,6.5467,6.5967,6.6894,6.8188,6.8975,6.9054,6.8977,7.0975,7.1352,7.0884,7.0616,7.0515,7.0515,7.0733,7.0825,7.0916,7.1131,7.1222,7.1312,7.1312,7.1515,7.1853,7.2597,7.3341,7.4086,7.483,7.5337,7.5709,7.5709,7.5709,7.5709,7.5709,7.5912,7.6048,7.5743,7.5946,7.6014,7.5743,7.5709,7.5709,7.5709,7.5709,7.5709,7.5709,7.5709,7.5709,7.5709,7.5709,7.5709,7.5709,7.5709,7.5709,7.5709,7.5709,7.5709,7.5709,7.5709,7.5709,7.5709,7.5709,7.5709,7.5709,7.5709,7.5709]}]]